Time,TemperatureF,DewpointF,PressureIn,WindDirection,WindDirectionDegrees,WindSpeedMPH,WindSpeedGustMPH,Humidity,HourlyPrecipIn,Conditions,Clouds,dailyrainin,SolarRadiationWatts/m^2,SoftwareType,DateUTC
2013-03-01 00:00:00,31.0,26.2,29.64,SSW,192,0.0,0.0,82,0.00,,,0.00,0.00,VWS V14.01,2013-03-01 05:00:00,
2013-03-01 00:01:00,31.0,26.2,29.64,North,4,0.0,0.0,82,0.00,,,0.00,0.00,VWS V14.01,2013-03-01 05:01:00,
2013-03-01 00:02:00,31.0,26.2,29.64,South,172,0.0,0.0,82,0.00,,,0.00,0.00,VWS V14.01,2013-03-01 05:02:00,
2013-03-01 00:03:00,31.0,26.2,29.64,South,179,0.0,0.0,82,0.00,,,0.00,0.00,VWS V14.01,2013-03-01 05:03:00,
2013-03-01 00:05:00,31.0,26.2,29.64,South,182,0.0,0.0,82,0.00,,,0.00,0.00,VWS V14.01,2013-03-01 05:05:00,
2013-03-01 00:06:00,31.0,26.2,29.64,West,271,0.0,0.0,82,0.00,,,0.00,0.00,VWS V14.01,2013-03-01 05:06:00,
2013-03-01 00:08:00,31.0,26.2,29.64,South,179,0.0,0.0,82,0.00,,,0.00,0.00,VWS V14.01,2013-03-01 05:08:00,
2013-03-01 00:10:00,31.0,26.2,29.64,SSW,202,0.0,0.0,82,0.00,,,0.00,0.00,VWS V14.01,2013-03-01 05:10:00,
2013-03-01 00:12:00,31.0,26.2,29.64,South,184,0.0,0.0,82,0.00,,,0.00,0.00,VWS V14.01,2013-03-01 05:12:00,
2013-03-01 00:13:00,31.0,26.2,29.64,WSW,254,0.0,0.0,82,0.00,,,0.00,0.00,VWS V14.01,2013-03-01 05:13:00,
2013-03-01 00:15:00,31.0,26.2,29.64,West,268,0.0,0.0,82,0.00,,,0.00,0.00,VWS V14.01,2013-03-01 05:15:00,
2013-03-01 00:16:00,31.0,26.2,29.64,SSW,202,0.0,0.0,82,0.00,,,0.00,0.00,VWS V14.01,2013-03-01 05:16:00,
2013-03-01 00:17:00,31.0,26.2,29.64,SSW,200,0.0,0.0,82,0.00,,,0.00,0.00,VWS V14.01,2013-03-01 05:17:00,
2013-03-01 00:21:00,31.0,26.2,29.64,West,268,0.0,0.0,82,0.00,,,0.00,0.00,VWS V14.01,2013-03-01 05:21:00,
2013-03-01 00:22:00,31.2,26.4,29.64,West,264,0.0,0.0,82,0.00,,,0.00,0.00,VWS V14.01,2013-03-01 05:22:00,
2013-03-01 00:23:00,31.2,26.4,29.64,West,278,0.0,0.0,82,0.00,,,0.00,0.00,VWS V14.01,2013-03-01 05:23:00,
2013-03-01 00:25:00,31.2,26.4,29.64,WSW,257,0.0,0.0,82,0.00,,,0.00,0.00,VWS V14.01,2013-03-01 05:25:00,
2013-03-01 00:27:00,31.2,26.4,29.64,WNW,294,0.0,0.0,82,0.00,,,0.00,0.00,VWS V14.01,2013-03-01 05:27:00,
2013-03-01 00:28:00,31.2,26.4,29.64,West,264,0.0,0.0,82,0.00,,,0.00,0.00,VWS V14.01,2013-03-01 05:28:00,
2013-03-01 00:32:00,31.2,26.4,29.64,South,172,0.0,0.0,82,0.00,,,0.00,0.00,VWS V14.01,2013-03-01 05:32:00,
2013-03-01 00:34:00,31.2,26.4,29.64,WSW,257,0.0,0.0,82,0.00,,,0.00,0.00,VWS V14.01,2013-03-01 05:34:00,
2013-03-01 00:39:00,31.2,26.4,29.64,West,265,0.0,0.0,82,0.00,,,0.00,0.00,VWS V14.01,2013-03-01 05:39:00,
2013-03-01 00:40:00,31.2,26.4,29.64,West,275,0.0,0.0,82,0.00,,,0.00,0.00,VWS V14.01,2013-03-01 05:40:00,
2013-03-01 00:41:00,31.2,26.1,29.64,West,263,0.0,0.0,81,0.00,,,0.00,0.00,VWS V14.01,2013-03-01 05:41:00,
2013-03-01 00:42:00,31.2,26.1,29.64,NW,319,0.0,0.0,81,0.00,,,0.00,0.00,VWS V14.01,2013-03-01 05:42:00,
2013-03-01 00:43:00,31.2,26.1,29.64,West,268,0.0,0.0,81,0.00,,,0.00,0.00,VWS V14.01,2013-03-01 05:43:00,
2013-03-01 00:44:00,31.3,26.2,29.64,WSW,258,0.0,0.0,81,0.00,,,0.00,0.00,VWS V14.01,2013-03-01 05:44:00,
2013-03-01 00:45:00,31.2,26.4,29.64,West,265,0.0,0.0,82,0.00,,,0.00,0.00,VWS V14.01,2013-03-01 05:45:00,
2013-03-01 00:46:00,31.3,26.2,29.64,West,263,0.0,0.0,81,0.00,,,0.00,0.00,VWS V14.01,2013-03-01 05:46:00,
2013-03-01 00:47:00,31.3,26.2,29.64,West,275,0.0,0.0,81,0.00,,,0.00,0.00,VWS V14.01,2013-03-01 05:47:00,
2013-03-01 00:48:00,31.3,26.2,29.64,West,261,0.0,0.0,81,0.00,,,0.00,0.00,VWS V14.01,2013-03-01 05:48:00,
2013-03-01 00:49:00,31.3,26.2,29.64,WSW,253,0.0,0.0,81,0.00,,,0.00,0.00,VWS V14.01,2013-03-01 05:49:00,
2013-03-01 00:50:00,31.3,26.2,29.64,WNW,289,0.0,0.0,81,0.00,,,0.00,0.00,VWS V14.01,2013-03-01 05:50:00,
2013-03-01 00:51:00,31.3,26.2,29.64,WSW,256,0.0,0.0,81,0.00,,,0.00,0.00,VWS V14.01,2013-03-01 05:51:00,
2013-03-01 00:52:00,31.3,26.2,29.64,WSW,247,0.0,0.0,81,0.00,,,0.00,0.00,VWS V14.01,2013-03-01 05:52:00,
2013-03-01 00:53:00,31.3,26.2,29.64,WSW,240,0.0,0.0,81,0.00,,,0.00,0.00,VWS V14.01,2013-03-01 05:53:00,
2013-03-01 00:54:00,31.3,26.2,29.64,West,267,0.0,0.0,81,0.00,,,0.00,0.00,VWS V14.01,2013-03-01 05:54:00,
2013-03-01 00:55:00,31.3,26.2,29.64,West,260,0.0,0.0,81,0.00,,,0.00,0.00,VWS V14.01,2013-03-01 05:55:00,
2013-03-01 00:56:00,31.3,26.5,29.64,WSW,248,0.0,0.0,82,0.00,,,0.00,0.00,VWS V14.01,2013-03-01 05:56:00,
2013-03-01 00:59:00,31.3,26.5,29.64,WSW,248,0.0,0.0,82,0.00,,,0.00,0.00,VWS V14.01,2013-03-01 05:59:00,
2013-03-01 01:01:00,31.3,26.5,29.64,WSW,256,0.0,0.0,82,0.00,,,0.00,0.00,VWS V14.01,2013-03-01 06:01:00,
2013-03-01 01:05:00,31.3,26.5,29.64,West,278,0.0,0.0,82,0.00,,,0.00,0.00,VWS V14.01,2013-03-01 06:05:00,
2013-03-01 01:09:00,31.3,26.5,29.64,WSW,243,0.0,0.0,82,0.00,,,0.00,0.00,VWS V14.01,2013-03-01 06:09:00,
2013-03-01 01:10:00,31.3,26.5,29.64,SW,227,0.0,0.0,82,0.00,,,0.00,0.00,VWS V14.01,2013-03-01 06:10:00,
2013-03-01 01:11:00,31.3,26.5,29.64,West,278,0.0,0.0,82,0.00,,,0.00,0.00,VWS V14.01,2013-03-01 06:11:00,
2013-03-01 01:12:00,31.3,26.5,29.64,WSW,246,0.0,0.0,82,0.00,,,0.00,0.00,VWS V14.01,2013-03-01 06:12:00,
2013-03-01 01:13:00,31.3,26.5,29.64,WSW,240,0.0,0.0,82,0.00,,,0.00,0.00,VWS V14.01,2013-03-01 06:13:00,
2013-03-01 01:14:00,31.3,26.5,29.64,WSW,244,0.0,0.0,82,0.00,,,0.00,0.00,VWS V14.01,2013-03-01 06:14:00,
2013-03-01 01:15:00,31.3,26.5,29.63,WSW,244,0.0,0.0,82,0.00,,,0.00,0.00,VWS V14.01,2013-03-01 06:15:00,
2013-03-01 01:16:00,31.3,26.5,29.63,West,268,0.0,0.0,82,0.00,,,0.00,0.00,VWS V14.01,2013-03-01 06:16:00,
2013-03-01 01:17:00,31.3,26.5,29.64,WSW,246,0.0,0.0,82,0.00,,,0.00,0.00,VWS V14.01,2013-03-01 06:17:00,
2013-03-01 01:18:00,31.3,26.5,29.63,SW,230,0.0,0.0,82,0.00,,,0.00,0.00,VWS V14.01,2013-03-01 06:18:00,
2013-03-01 01:19:00,31.3,26.5,29.63,West,260,0.0,0.0,82,0.00,,,0.00,0.00,VWS V14.01,2013-03-01 06:19:00,
2013-03-01 01:20:00,31.3,26.8,29.63,West,267,0.0,0.0,83,0.00,,,0.00,0.00,VWS V14.01,2013-03-01 06:20:00,
2013-03-01 01:21:00,31.3,26.8,29.63,West,265,0.0,0.0,83,0.00,,,0.00,0.00,VWS V14.01,2013-03-01 06:21:00,
2013-03-01 01:22:00,31.3,26.5,29.63,West,268,0.0,0.0,82,0.00,,,0.00,0.00,VWS V14.01,2013-03-01 06:22:00,
2013-03-01 01:23:00,31.2,26.6,29.63,WSW,251,0.0,0.0,83,0.00,,,0.00,0.00,VWS V14.01,2013-03-01 06:23:00,
2013-03-01 01:24:00,31.2,26.6,29.63,SW,229,0.0,0.0,83,0.00,,,0.00,0.00,VWS V14.01,2013-03-01 06:24:00,
2013-03-01 01:25:00,31.2,26.6,29.63,WSW,253,0.0,0.0,83,0.00,,,0.00,0.00,VWS V14.01,2013-03-01 06:25:00,
2013-03-01 01:26:00,31.2,26.6,29.63,SW,226,0.0,0.0,83,0.00,,,0.00,0.00,VWS V14.01,2013-03-01 06:26:00,
2013-03-01 01:27:00,31.3,26.8,29.63,West,260,0.0,0.0,83,0.00,,,0.00,0.00,VWS V14.01,2013-03-01 06:27:00,
2013-03-01 01:28:00,31.2,26.6,29.63,SSW,192,0.0,0.0,83,0.00,,,0.00,0.00,VWS V14.01,2013-03-01 06:28:00,
2013-03-01 01:29:00,31.2,26.6,29.63,WSW,254,0.0,0.0,83,0.00,,,0.00,0.00,VWS V14.01,2013-03-01 06:29:00,
2013-03-01 01:30:00,31.2,26.6,29.63,WSW,250,0.0,0.0,83,0.00,,,0.00,0.00,VWS V14.01,2013-03-01 06:30:00,
2013-03-01 01:31:00,31.2,26.6,29.63,WSW,248,0.0,0.0,83,0.00,,,0.00,0.00,VWS V14.01,2013-03-01 06:31:00,
2013-03-01 01:32:00,31.2,26.6,29.63,West,260,0.0,0.0,83,0.00,,,0.00,0.00,VWS V14.01,2013-03-01 06:32:00,
2013-03-01 01:33:00,31.2,26.6,29.63,SSW,192,0.0,0.0,83,0.00,,,0.00,0.00,VWS V14.01,2013-03-01 06:33:00,
2013-03-01 01:34:00,31.2,26.6,29.63,WSW,251,0.0,0.0,83,0.00,,,0.00,0.00,VWS V14.01,2013-03-01 06:34:00,
2013-03-01 01:35:00,31.2,26.6,29.63,WSW,246,0.0,0.0,83,0.00,,,0.00,0.00,VWS V14.01,2013-03-01 06:35:00,
2013-03-01 01:36:00,31.2,26.6,29.63,SW,227,0.0,0.0,83,0.00,,,0.00,0.00,VWS V14.01,2013-03-01 06:36:00,
2013-03-01 01:37:00,31.2,26.6,29.63,West,260,0.0,0.0,83,0.00,,,0.00,0.00,VWS V14.01,2013-03-01 06:37:00,
2013-03-01 01:38:00,31.2,26.6,29.63,West,275,0.0,0.0,83,0.00,,,0.00,0.00,VWS V14.01,2013-03-01 06:38:00,
2013-03-01 01:39:00,31.2,26.6,29.63,West,263,0.0,0.0,83,0.00,,,0.00,0.00,VWS V14.01,2013-03-01 06:39:00,
2013-03-01 01:40:00,31.2,26.6,29.63,South,186,0.0,0.0,83,0.00,,,0.00,0.00,VWS V14.01,2013-03-01 06:40:00,
2013-03-01 01:41:00,31.2,26.6,29.63,WSW,258,0.0,0.0,83,0.00,,,0.00,0.00,VWS V14.01,2013-03-01 06:41:00,
2013-03-01 01:42:00,31.2,26.6,29.63,WSW,243,0.0,0.0,83,0.00,,,0.00,0.00,VWS V14.01,2013-03-01 06:42:00,
2013-03-01 01:43:00,31.2,26.6,29.63,West,270,0.0,0.0,83,0.00,,,0.00,0.00,VWS V14.01,2013-03-01 06:43:00,
2013-03-01 01:44:00,31.2,26.6,29.63,WSW,258,0.0,0.0,83,0.00,,,0.00,0.00,VWS V14.01,2013-03-01 06:44:00,
2013-03-01 01:45:00,31.2,26.6,29.62,WSW,258,0.0,0.0,83,0.00,,,0.00,0.00,VWS V14.01,2013-03-01 06:45:00,
2013-03-01 01:46:00,31.2,26.4,29.62,West,278,0.0,0.0,82,0.00,,,0.00,0.00,VWS V14.01,2013-03-01 06:46:00,
2013-03-01 01:47:00,31.3,26.5,29.62,West,263,0.0,0.0,82,0.00,,,0.00,0.00,VWS V14.01,2013-03-01 06:47:00,
2013-03-01 01:48:00,31.3,26.5,29.62,WSW,243,0.0,0.0,82,0.00,,,0.00,0.00,VWS V14.01,2013-03-01 06:48:00,
2013-03-01 01:49:00,31.2,26.6,29.63,WSW,258,0.0,0.0,83,0.00,,,0.00,0.00,VWS V14.01,2013-03-01 06:49:00,
2013-03-01 01:50:00,31.3,26.5,29.62,West,267,0.0,0.0,82,0.00,,,0.00,0.00,VWS V14.01,2013-03-01 06:50:00,
2013-03-01 01:51:00,31.3,26.8,29.62,WSW,237,0.0,0.0,83,0.00,,,0.00,0.00,VWS V14.01,2013-03-01 06:51:00,
2013-03-01 01:52:00,31.3,26.8,29.62,West,278,0.0,0.0,83,0.00,,,0.00,0.00,VWS V14.01,2013-03-01 06:52:00,
2013-03-01 01:53:00,31.3,26.8,29.62,WNW,291,0.0,0.0,83,0.00,,,0.00,0.00,VWS V14.01,2013-03-01 06:53:00,
2013-03-01 01:54:00,31.3,26.8,29.62,WNW,288,0.0,0.0,83,0.00,,,0.00,0.00,VWS V14.01,2013-03-01 06:54:00,
2013-03-01 01:55:00,31.3,26.5,29.62,West,267,0.0,0.0,82,0.00,,,0.00,0.00,VWS V14.01,2013-03-01 06:55:00,
2013-03-01 01:56:00,31.3,26.8,29.62,West,263,0.0,0.0,83,0.00,,,0.00,0.00,VWS V14.01,2013-03-01 06:56:00,
2013-03-01 01:57:00,31.3,26.8,29.62,West,261,0.0,0.0,83,0.00,,,0.00,0.00,VWS V14.01,2013-03-01 06:57:00,
2013-03-01 01:58:00,31.3,26.8,29.62,WSW,243,0.0,0.0,83,0.00,,,0.00,0.00,VWS V14.01,2013-03-01 06:58:00,
2013-03-01 01:59:00,31.3,26.8,29.62,WSW,251,0.0,0.0,83,0.00,,,0.00,0.00,VWS V14.01,2013-03-01 06:59:00,
2013-03-01 02:00:00,31.3,26.8,29.61,SW,230,0.0,0.0,83,0.00,,,0.00,0.00,VWS V14.01,2013-03-01 07:00:00,
2013-03-01 02:01:00,31.3,26.8,29.62,West,263,0.0,0.0,83,0.00,,,0.00,0.00,VWS V14.01,2013-03-01 07:01:00,
2013-03-01 02:02:00,31.3,26.8,29.61,West,270,0.0,0.0,83,0.00,,,0.00,0.00,VWS V14.01,2013-03-01 07:02:00,
2013-03-01 02:03:00,31.3,26.8,29.61,West,261,0.0,0.0,83,0.00,,,0.00,0.00,VWS V14.01,2013-03-01 07:03:00,
2013-03-01 02:04:00,31.3,26.8,29.61,West,277,0.0,0.0,83,0.00,,,0.00,0.00,VWS V14.01,2013-03-01 07:04:00,
2013-03-01 02:05:00,31.3,26.5,29.61,WSW,257,0.0,0.0,82,0.00,,,0.00,0.00,VWS V14.01,2013-03-01 07:05:00,
2013-03-01 02:06:00,31.3,26.8,29.61,WSW,241,0.0,0.0,83,0.00,,,0.00,0.00,VWS V14.01,2013-03-01 07:06:00,
2013-03-01 02:07:00,31.3,26.5,29.61,WNW,287,0.0,0.0,82,0.00,,,0.00,0.00,VWS V14.01,2013-03-01 07:07:00,
2013-03-01 02:08:00,31.3,26.5,29.61,South,185,0.0,0.0,82,0.00,,,0.00,0.00,VWS V14.01,2013-03-01 07:08:00,
2013-03-01 02:10:00,31.3,26.5,29.61,SSE,164,0.0,0.0,82,0.00,,,0.00,0.00,VWS V14.01,2013-03-01 07:10:00,
2013-03-01 02:11:00,31.3,26.5,29.61,WSW,253,0.0,0.0,82,0.00,,,0.00,0.00,VWS V14.01,2013-03-01 07:11:00,
2013-03-01 02:12:00,31.3,26.5,29.61,WNW,287,0.0,0.0,82,0.00,,,0.00,0.00,VWS V14.01,2013-03-01 07:12:00,
2013-03-01 02:14:00,31.3,26.5,29.61,WNW,294,0.0,0.0,82,0.00,,,0.00,0.00,VWS V14.01,2013-03-01 07:14:00,
2013-03-01 02:15:00,31.3,26.5,29.62,WSW,254,0.0,0.0,82,0.00,,,0.00,0.00,VWS V14.01,2013-03-01 07:15:00,
2013-03-01 02:16:00,31.3,26.5,29.62,SSW,198,0.0,0.0,82,0.00,,,0.00,0.00,VWS V14.01,2013-03-01 07:16:00,
2013-03-01 02:18:00,31.3,26.5,29.62,SW,230,0.0,0.0,82,0.00,,,0.00,0.00,VWS V14.01,2013-03-01 07:18:00,
2013-03-01 02:19:00,31.3,26.5,29.61,WNW,294,0.0,0.0,82,0.00,,,0.00,0.00,VWS V14.01,2013-03-01 07:19:00,
2013-03-01 02:27:00,31.5,26.4,29.62,West,260,0.0,0.0,81,0.00,,,0.00,0.00,VWS V14.01,2013-03-01 07:27:00,
2013-03-01 02:28:00,31.5,26.4,29.62,West,261,0.0,0.0,81,0.00,,,0.00,0.00,VWS V14.01,2013-03-01 07:28:00,
2013-03-01 02:32:00,31.5,26.4,29.61,WSW,248,0.0,0.0,81,0.00,,,0.00,0.00,VWS V14.01,2013-03-01 07:32:00,
2013-03-01 02:33:00,31.5,26.4,29.62,West,260,0.0,0.0,81,0.00,,,0.00,0.00,VWS V14.01,2013-03-01 07:33:00,
2013-03-01 02:34:00,31.5,26.4,29.61,SW,236,0.0,0.0,81,0.00,,,0.00,0.00,VWS V14.01,2013-03-01 07:34:00,
2013-03-01 02:35:00,31.5,26.4,29.61,WSW,251,0.0,0.0,81,0.00,,,0.00,0.00,VWS V14.01,2013-03-01 07:35:00,
2013-03-01 02:36:00,31.5,26.4,29.61,West,265,0.0,0.0,81,0.00,,,0.00,0.00,VWS V14.01,2013-03-01 07:36:00,
2013-03-01 02:37:00,31.5,26.4,29.61,WSW,243,0.0,0.0,81,0.00,,,0.00,0.00,VWS V14.01,2013-03-01 07:37:00,
2013-03-01 02:38:00,31.5,26.4,29.61,South,182,0.0,0.0,81,0.00,,,0.00,0.00,VWS V14.01,2013-03-01 07:38:00,
2013-03-01 02:39:00,31.5,26.4,29.61,WSW,253,0.0,0.0,81,0.00,,,0.00,0.00,VWS V14.01,2013-03-01 07:39:00,
2013-03-01 02:40:00,31.5,26.4,29.61,West,260,0.0,0.0,81,0.00,,,0.00,0.00,VWS V14.01,2013-03-01 07:40:00,
2013-03-01 02:41:00,31.5,26.4,29.61,West,260,0.0,0.0,81,0.00,,,0.00,0.00,VWS V14.01,2013-03-01 07:41:00,
2013-03-01 02:42:00,31.5,26.4,29.61,SSW,202,0.0,0.0,81,0.00,,,0.00,0.00,VWS V14.01,2013-03-01 07:42:00,
2013-03-01 02:43:00,31.5,26.4,29.61,West,272,0.0,0.0,81,0.00,,,0.00,0.00,VWS V14.01,2013-03-01 07:43:00,
2013-03-01 02:44:00,31.5,26.4,29.61,West,267,0.0,0.0,81,0.00,,,0.00,0.00,VWS V14.01,2013-03-01 07:44:00,
2013-03-01 02:45:00,31.5,26.4,29.60,West,261,0.0,0.0,81,0.00,,,0.00,0.00,VWS V14.01,2013-03-01 07:45:00,
2013-03-01 02:46:00,31.5,26.4,29.60,West,267,0.0,0.0,81,0.00,,,0.00,0.00,VWS V14.01,2013-03-01 07:46:00,
2013-03-01 02:47:00,31.5,26.4,29.60,WSW,243,0.0,0.0,81,0.00,,,0.00,0.00,VWS V14.01,2013-03-01 07:47:00,
2013-03-01 02:48:00,31.5,26.4,29.61,South,186,0.0,0.0,81,0.00,,,0.00,0.00,VWS V14.01,2013-03-01 07:48:00,
2013-03-01 02:49:00,31.5,26.4,29.60,WSW,247,0.0,0.0,81,0.00,,,0.00,0.00,VWS V14.01,2013-03-01 07:49:00,
2013-03-01 02:50:00,31.5,26.4,29.60,SW,234,0.0,0.0,81,0.00,,,0.00,0.00,VWS V14.01,2013-03-01 07:50:00,
2013-03-01 02:51:00,31.5,26.0,29.60,South,184,0.0,0.0,80,0.00,,,0.00,0.00,VWS V14.01,2013-03-01 07:51:00,
2013-03-01 02:52:00,31.5,26.0,29.60,SSW,213,0.0,0.0,80,0.00,,,0.00,0.00,VWS V14.01,2013-03-01 07:52:00,
2013-03-01 02:53:00,31.5,26.0,29.60,WSW,254,0.0,0.0,80,0.00,,,0.00,0.00,VWS V14.01,2013-03-01 07:53:00,
2013-03-01 02:54:00,31.5,26.4,29.60,WSW,247,0.0,0.0,81,0.00,,,0.00,0.00,VWS V14.01,2013-03-01 07:54:00,
2013-03-01 02:55:00,31.5,26.0,29.60,WSW,253,0.0,0.0,80,0.00,,,0.00,0.00,VWS V14.01,2013-03-01 07:55:00,
2013-03-01 02:56:00,31.5,26.0,29.60,SW,220,0.0,0.0,80,0.00,,,0.00,0.00,VWS V14.01,2013-03-01 07:56:00,
2013-03-01 02:57:00,31.5,26.0,29.60,WSW,256,0.0,0.0,80,0.00,,,0.00,0.00,VWS V14.01,2013-03-01 07:57:00,
2013-03-01 02:58:00,31.5,26.0,29.60,SSW,193,0.0,0.0,80,0.00,,,0.00,0.00,VWS V14.01,2013-03-01 07:58:00,
2013-03-01 02:59:00,31.5,26.0,29.60,SW,226,0.0,0.0,80,0.00,,,0.00,0.00,VWS V14.01,2013-03-01 07:59:00,
2013-03-01 03:00:00,31.5,26.0,29.60,WSW,251,0.0,0.0,80,0.00,,,0.00,0.00,VWS V14.01,2013-03-01 08:00:00,
2013-03-01 03:01:00,31.5,26.0,29.60,ESE,121,0.0,0.0,80,0.00,,,0.00,0.00,VWS V14.01,2013-03-01 08:01:00,
2013-03-01 03:02:00,31.5,26.0,29.60,SSW,209,0.0,0.0,80,0.00,,,0.00,0.00,VWS V14.01,2013-03-01 08:02:00,
2013-03-01 03:03:00,31.5,26.0,29.60,West,264,0.0,0.0,80,0.00,,,0.00,0.00,VWS V14.01,2013-03-01 08:03:00,
2013-03-01 03:04:00,31.5,26.0,29.60,West,278,0.0,0.0,80,0.00,,,0.00,0.00,VWS V14.01,2013-03-01 08:04:00,
2013-03-01 03:05:00,31.5,26.0,29.60,WSW,251,0.0,0.0,80,0.00,,,0.00,0.00,VWS V14.01,2013-03-01 08:05:00,
2013-03-01 03:06:00,31.5,25.8,29.60,WSW,237,0.0,0.0,79,0.00,,,0.00,0.00,VWS V14.01,2013-03-01 08:06:00,
2013-03-01 03:07:00,31.5,25.8,29.60,WSW,246,0.0,0.0,79,0.00,,,0.00,0.00,VWS V14.01,2013-03-01 08:07:00,
2013-03-01 03:08:00,31.5,25.8,29.60,WSW,251,0.0,0.0,79,0.00,,,0.00,0.00,VWS V14.01,2013-03-01 08:08:00,
2013-03-01 03:09:00,31.6,25.9,29.60,West,277,0.0,0.0,79,0.00,,,0.00,0.00,VWS V14.01,2013-03-01 08:09:00,
2013-03-01 03:10:00,31.5,26.0,29.60,WNW,296,0.0,0.0,80,0.00,,,0.00,0.00,VWS V14.01,2013-03-01 08:10:00,
2013-03-01 03:11:00,31.6,25.9,29.60,West,272,0.0,0.0,79,0.00,,,0.00,0.00,VWS V14.01,2013-03-01 08:11:00,
2013-03-01 03:12:00,31.6,25.5,29.60,SSW,202,0.0,0.0,78,0.00,,,0.00,0.00,VWS V14.01,2013-03-01 08:12:00,
2013-03-01 03:13:00,31.6,25.5,29.60,West,265,0.0,0.0,78,0.00,,,0.00,0.00,VWS V14.01,2013-03-01 08:13:00,
2013-03-01 03:14:00,31.6,25.5,29.60,West,263,0.0,0.0,78,0.00,,,0.00,0.00,VWS V14.01,2013-03-01 08:14:00,
2013-03-01 03:15:00,31.6,25.9,29.60,South,188,0.0,0.0,79,0.00,,,0.00,0.00,VWS V14.01,2013-03-01 08:15:00,
2013-03-01 03:16:00,31.6,25.5,29.60,West,267,0.0,0.0,78,0.00,,,0.00,0.00,VWS V14.01,2013-03-01 08:16:00,
2013-03-01 03:17:00,31.6,25.5,29.60,WSW,250,0.0,0.0,78,0.00,,,0.00,0.00,VWS V14.01,2013-03-01 08:17:00,
2013-03-01 03:18:00,31.6,25.5,29.60,SW,227,0.0,0.0,78,0.00,,,0.00,0.00,VWS V14.01,2013-03-01 08:18:00,
2013-03-01 03:19:00,31.6,25.5,29.60,SW,216,0.0,0.0,78,0.00,,,0.00,0.00,VWS V14.01,2013-03-01 08:19:00,
2013-03-01 03:20:00,31.6,25.5,29.60,West,264,0.0,0.0,78,0.00,,,0.00,0.00,VWS V14.01,2013-03-01 08:20:00,
2013-03-01 03:21:00,31.6,25.5,29.60,West,267,0.0,0.0,78,0.00,,,0.00,0.00,VWS V14.01,2013-03-01 08:21:00,
2013-03-01 03:22:00,31.6,25.5,29.60,SSE,161,0.0,0.0,78,0.00,,,0.00,0.00,VWS V14.01,2013-03-01 08:22:00,
2013-03-01 03:23:00,31.6,25.5,29.60,West,268,0.0,0.0,78,0.00,,,0.00,0.00,VWS V14.01,2013-03-01 08:23:00,
2013-03-01 03:24:00,31.6,25.5,29.60,West,265,0.0,0.0,78,0.00,,,0.00,0.00,VWS V14.01,2013-03-01 08:24:00,
2013-03-01 03:25:00,31.6,25.5,29.60,West,268,0.0,0.0,78,0.00,,,0.00,0.00,VWS V14.01,2013-03-01 08:25:00,
2013-03-01 03:26:00,31.6,25.5,29.60,WNW,282,0.0,0.0,78,0.00,,,0.00,0.00,VWS V14.01,2013-03-01 08:26:00,
2013-03-01 03:27:00,31.6,25.5,29.60,SSE,161,0.0,0.0,78,0.00,,,0.00,0.00,VWS V14.01,2013-03-01 08:27:00,
2013-03-01 03:28:00,31.6,25.5,29.60,WSW,247,0.0,0.0,78,0.00,,,0.00,0.00,VWS V14.01,2013-03-01 08:28:00,
2013-03-01 03:29:00,31.6,25.5,29.60,WNW,288,0.0,0.0,78,0.00,,,0.00,0.00,VWS V14.01,2013-03-01 08:29:00,
2013-03-01 03:30:00,31.6,25.5,29.60,West,263,0.0,0.0,78,0.00,,,0.00,0.00,VWS V14.01,2013-03-01 08:30:00,
2013-03-01 03:31:00,31.6,25.2,29.60,WSW,248,0.0,0.0,77,0.00,,,0.00,0.00,VWS V14.01,2013-03-01 08:31:00,
2013-03-01 03:32:00,31.6,25.5,29.60,West,265,0.0,0.0,78,0.00,,,0.00,0.00,VWS V14.01,2013-03-01 08:32:00,
2013-03-01 03:33:00,31.6,25.2,29.60,SW,220,0.0,0.0,77,0.00,,,0.00,0.00,VWS V14.01,2013-03-01 08:33:00,
2013-03-01 03:34:00,31.6,25.2,29.60,WSW,240,0.0,0.0,77,0.00,,,0.00,0.00,VWS V14.01,2013-03-01 08:34:00,
2013-03-01 03:35:00,31.6,25.2,29.60,SW,224,0.0,0.0,77,0.00,,,0.00,0.00,VWS V14.01,2013-03-01 08:35:00,
2013-03-01 03:36:00,31.6,25.2,29.60,South,189,0.0,0.0,77,0.00,,,0.00,0.00,VWS V14.01,2013-03-01 08:36:00,
2013-03-01 03:37:00,31.6,25.2,29.60,West,270,0.0,0.0,77,0.00,,,0.00,0.00,VWS V14.01,2013-03-01 08:37:00,
2013-03-01 03:38:00,31.6,25.2,29.60,WSW,253,0.0,0.0,77,0.00,,,0.00,0.00,VWS V14.01,2013-03-01 08:38:00,
2013-03-01 03:39:00,31.6,25.5,29.60,West,265,0.0,0.0,78,0.00,,,0.00,0.00,VWS V14.01,2013-03-01 08:39:00,
2013-03-01 03:40:00,31.6,25.5,29.60,South,184,0.0,0.0,78,0.00,,,0.00,0.00,VWS V14.01,2013-03-01 08:40:00,
2013-03-01 03:41:00,31.6,25.5,29.60,WSW,258,0.0,0.0,78,0.00,,,0.00,0.00,VWS V14.01,2013-03-01 08:41:00,
2013-03-01 03:42:00,31.6,25.5,29.60,West,270,0.0,0.0,78,0.00,,,0.00,0.00,VWS V14.01,2013-03-01 08:42:00,
2013-03-01 03:43:00,31.6,25.2,29.60,WSW,253,0.0,0.0,77,0.00,,,0.00,0.00,VWS V14.01,2013-03-01 08:43:00,
2013-03-01 03:44:00,31.6,25.5,29.60,South,179,0.0,0.0,78,0.00,,,0.00,0.00,VWS V14.01,2013-03-01 08:44:00,
2013-03-01 03:45:00,31.6,25.5,29.60,WNW,299,0.0,0.0,78,0.00,,,0.00,0.00,VWS V14.01,2013-03-01 08:45:00,
2013-03-01 03:46:00,31.6,25.5,29.60,West,270,0.0,0.0,78,0.00,,,0.00,0.00,VWS V14.01,2013-03-01 08:46:00,
2013-03-01 03:47:00,31.6,25.5,29.60,WSW,251,0.0,0.0,78,0.00,,,0.00,0.00,VWS V14.01,2013-03-01 08:47:00,
2013-03-01 03:48:00,31.6,25.5,29.60,West,260,0.0,0.0,78,0.00,,,0.00,0.00,VWS V14.01,2013-03-01 08:48:00,
2013-03-01 03:49:00,31.6,25.5,29.60,South,179,0.0,0.0,78,0.00,,,0.00,0.00,VWS V14.01,2013-03-01 08:49:00,
2013-03-01 03:50:00,31.6,25.5,29.60,WSW,251,0.0,0.0,78,0.00,,,0.00,0.00,VWS V14.01,2013-03-01 08:50:00,
2013-03-01 03:51:00,31.6,25.5,29.60,WSW,240,0.0,0.0,78,0.00,,,0.00,0.00,VWS V14.01,2013-03-01 08:51:00,
2013-03-01 03:52:00,31.6,25.5,29.60,South,169,0.0,0.0,78,0.00,,,0.00,0.00,VWS V14.01,2013-03-01 08:52:00,
2013-03-01 03:53:00,31.6,25.5,29.60,WNW,291,0.0,0.0,78,0.00,,,0.00,0.00,VWS V14.01,2013-03-01 08:53:00,
2013-03-01 03:54:00,31.6,25.5,29.60,West,263,0.0,0.0,78,0.00,,,0.00,0.00,VWS V14.01,2013-03-01 08:54:00,
2013-03-01 03:55:00,31.6,25.5,29.60,WSW,251,0.0,0.0,78,0.00,,,0.00,0.00,VWS V14.01,2013-03-01 08:55:00,
2013-03-01 03:56:00,31.6,25.5,29.60,SSE,165,0.0,0.0,78,0.00,,,0.00,0.00,VWS V14.01,2013-03-01 08:56:00,
2013-03-01 03:57:00,31.6,25.5,29.60,WSW,251,0.0,0.0,78,0.00,,,0.00,0.00,VWS V14.01,2013-03-01 08:57:00,
2013-03-01 03:58:00,31.8,25.7,29.60,WNW,285,0.0,0.0,78,0.00,,,0.00,0.00,VWS V14.01,2013-03-01 08:58:00,
2013-03-01 03:59:00,31.6,25.5,29.60,West,275,0.0,0.0,78,0.00,,,0.00,0.00,VWS V14.01,2013-03-01 08:59:00,
2013-03-01 04:00:00,31.8,25.7,29.61,WNW,287,0.0,0.0,78,0.00,,,0.00,0.00,VWS V14.01,2013-03-01 09:00:00,
2013-03-01 04:01:00,31.6,25.5,29.60,SSE,165,0.0,0.0,78,0.00,,,0.00,0.00,VWS V14.01,2013-03-01 09:01:00,
2013-03-01 04:02:00,31.8,26.0,29.61,WSW,253,0.0,0.0,79,0.00,,,0.00,0.00,VWS V14.01,2013-03-01 09:02:00,
2013-03-01 04:03:00,31.8,26.0,29.61,SW,233,0.0,0.0,79,0.00,,,0.00,0.00,VWS V14.01,2013-03-01 09:03:00,
2013-03-01 04:04:00,31.8,26.0,29.61,WSW,250,0.0,0.0,79,0.00,,,0.00,0.00,VWS V14.01,2013-03-01 09:04:00,
2013-03-01 04:05:00,31.8,26.0,29.61,WSW,243,0.0,0.0,79,0.00,,,0.00,0.00,VWS V14.01,2013-03-01 09:05:00,
2013-03-01 04:06:00,31.6,25.9,29.61,SSW,203,0.0,0.0,79,0.00,,,0.00,0.00,VWS V14.01,2013-03-01 09:06:00,
2013-03-01 04:07:00,31.8,26.0,29.61,WSW,253,0.0,0.0,79,0.00,,,0.00,0.00,VWS V14.01,2013-03-01 09:07:00,
2013-03-01 04:08:00,31.6,25.9,29.61,West,280,0.0,0.0,79,0.00,,,0.00,0.00,VWS V14.01,2013-03-01 09:08:00,
2013-03-01 04:09:00,31.6,25.9,29.61,SSW,199,0.0,0.0,79,0.00,,,0.00,0.00,VWS V14.01,2013-03-01 09:09:00,
2013-03-01 04:10:00,31.6,25.9,29.61,WSW,251,0.0,0.0,79,0.00,,,0.00,0.00,VWS V14.01,2013-03-01 09:10:00,
2013-03-01 04:11:00,31.6,25.5,29.61,WSW,254,0.0,0.0,78,0.00,,,0.00,0.00,VWS V14.01,2013-03-01 09:11:00,
2013-03-01 04:12:00,31.6,25.9,29.61,South,175,0.0,0.0,79,0.00,,,0.00,0.00,VWS V14.01,2013-03-01 09:12:00,
2013-03-01 04:13:00,31.6,25.5,29.61,WSW,243,0.0,0.0,78,0.00,,,0.00,0.00,VWS V14.01,2013-03-01 09:13:00,
2013-03-01 04:14:00,31.6,25.5,29.61,West,267,0.0,0.0,78,0.00,,,0.00,0.00,VWS V14.01,2013-03-01 09:14:00,
2013-03-01 04:15:00,31.6,25.5,29.61,WSW,258,0.0,0.0,78,0.00,,,0.00,0.00,VWS V14.01,2013-03-01 09:15:00,
2013-03-01 04:16:00,31.6,25.5,29.61,West,277,0.0,0.0,78,0.00,,,0.00,0.00,VWS V14.01,2013-03-01 09:16:00,
2013-03-01 04:17:00,31.6,25.5,29.61,SSW,193,0.0,0.0,78,0.00,,,0.00,0.00,VWS V14.01,2013-03-01 09:17:00,
2013-03-01 04:18:00,31.6,25.5,29.61,WSW,243,0.0,0.0,78,0.00,,,0.00,0.00,VWS V14.01,2013-03-01 09:18:00,
2013-03-01 04:19:00,31.6,25.5,29.61,WSW,247,0.0,0.0,78,0.00,,,0.00,0.00,VWS V14.01,2013-03-01 09:19:00,
2013-03-01 04:20:00,31.6,25.5,29.61,WSW,248,0.0,0.0,78,0.00,,,0.00,0.00,VWS V14.01,2013-03-01 09:20:00,
2013-03-01 04:21:00,31.6,25.5,29.61,West,263,0.0,0.0,78,0.00,,,0.00,0.00,VWS V14.01,2013-03-01 09:21:00,
2013-03-01 04:22:00,31.6,25.5,29.61,WSW,241,0.0,0.0,78,0.00,,,0.00,0.00,VWS V14.01,2013-03-01 09:22:00,
2013-03-01 04:23:00,31.6,25.5,29.61,West,270,0.0,0.0,78,0.00,,,0.00,0.00,VWS V14.01,2013-03-01 09:23:00,
2013-03-01 04:24:00,31.6,25.5,29.61,WSW,237,0.0,0.0,78,0.00,,,0.00,0.00,VWS V14.01,2013-03-01 09:24:00,
2013-03-01 04:25:00,31.6,25.5,29.61,SW,227,0.0,0.0,78,0.00,,,0.00,0.00,VWS V14.01,2013-03-01 09:25:00,
2013-03-01 04:26:00,31.6,25.5,29.61,SSW,203,0.0,0.0,78,0.00,,,0.00,0.00,VWS V14.01,2013-03-01 09:26:00,
2013-03-01 04:27:00,31.6,25.5,29.61,WSW,257,0.0,0.0,78,0.00,,,0.00,0.00,VWS V14.01,2013-03-01 09:27:00,
2013-03-01 04:28:00,31.6,25.5,29.61,West,265,0.0,0.0,78,0.00,,,0.00,0.00,VWS V14.01,2013-03-01 09:28:00,
2013-03-01 04:29:00,31.6,25.5,29.61,SSW,206,0.0,0.0,78,0.00,,,0.00,0.00,VWS V14.01,2013-03-01 09:29:00,
2013-03-01 04:30:00,31.6,25.5,29.62,WSW,237,0.0,0.0,78,0.00,,,0.00,0.00,VWS V14.01,2013-03-01 09:30:00,
2013-03-01 04:31:00,31.6,25.5,29.62,WNW,294,0.0,0.0,78,0.00,,,0.00,0.00,VWS V14.01,2013-03-01 09:31:00,
2013-03-01 04:32:00,31.6,25.5,29.62,West,275,0.0,0.0,78,0.00,,,0.00,0.00,VWS V14.01,2013-03-01 09:32:00,
2013-03-01 04:33:00,31.6,25.5,29.61,WSW,256,0.0,0.0,78,0.00,,,0.00,0.00,VWS V14.01,2013-03-01 09:33:00,
2013-03-01 04:34:00,31.6,25.2,29.62,West,272,0.0,0.0,77,0.00,,,0.00,0.00,VWS V14.01,2013-03-01 09:34:00,
2013-03-01 04:35:00,31.6,25.2,29.62,SW,233,0.0,0.0,77,0.00,,,0.00,0.00,VWS V14.01,2013-03-01 09:35:00,
2013-03-01 04:36:00,31.8,25.4,29.62,SW,233,0.0,0.0,77,0.00,,,0.00,0.00,VWS V14.01,2013-03-01 09:36:00,
2013-03-01 04:37:00,31.8,25.4,29.62,WSW,258,0.0,0.0,77,0.00,,,0.00,0.00,VWS V14.01,2013-03-01 09:37:00,
2013-03-01 04:38:00,31.8,25.4,29.62,WSW,258,0.0,0.0,77,0.00,,,0.00,0.00,VWS V14.01,2013-03-01 09:38:00,
2013-03-01 04:39:00,31.6,25.2,29.62,West,272,0.0,0.0,77,0.00,,,0.00,0.00,VWS V14.01,2013-03-01 09:39:00,
2013-03-01 04:40:00,31.8,25.4,29.62,SSW,200,0.0,0.0,77,0.00,,,0.00,0.00,VWS V14.01,2013-03-01 09:40:00,
2013-03-01 04:41:00,31.8,25.4,29.62,West,277,0.0,0.0,77,0.00,,,0.00,0.00,VWS V14.01,2013-03-01 09:41:00,
2013-03-01 04:42:00,31.8,25.4,29.62,WNW,282,0.0,0.0,77,0.00,,,0.00,0.00,VWS V14.01,2013-03-01 09:42:00,
2013-03-01 04:43:00,31.8,25.4,29.62,WSW,240,0.0,0.0,77,0.00,,,0.00,0.00,VWS V14.01,2013-03-01 09:43:00,
2013-03-01 04:44:00,31.8,25.4,29.62,SW,219,0.0,0.0,77,0.00,,,0.00,0.00,VWS V14.01,2013-03-01 09:44:00,
2013-03-01 04:45:00,31.8,25.4,29.62,WSW,248,0.0,0.0,77,0.00,,,0.00,0.00,VWS V14.01,2013-03-01 09:45:00,
2013-03-01 04:46:00,31.8,25.4,29.62,WSW,257,0.0,0.0,77,0.00,,,0.00,0.00,VWS V14.01,2013-03-01 09:46:00,
2013-03-01 04:47:00,31.8,25.4,29.62,WSW,257,0.0,0.0,77,0.00,,,0.00,0.00,VWS V14.01,2013-03-01 09:47:00,
2013-03-01 04:48:00,31.8,25.4,29.62,WSW,253,0.0,0.0,77,0.00,,,0.00,0.00,VWS V14.01,2013-03-01 09:48:00,
2013-03-01 04:49:00,31.8,25.4,29.62,WSW,243,0.0,0.0,77,0.00,,,0.00,0.00,VWS V14.01,2013-03-01 09:49:00,
2013-03-01 04:50:00,31.8,25.4,29.62,WSW,248,0.0,0.0,77,0.00,,,0.00,0.00,VWS V14.01,2013-03-01 09:50:00,
2013-03-01 04:51:00,31.8,25.4,29.62,West,264,0.0,0.0,77,0.00,,,0.00,0.00,VWS V14.01,2013-03-01 09:51:00,
2013-03-01 04:52:00,31.8,25.4,29.62,SW,236,0.0,0.0,77,0.00,,,0.00,0.00,VWS V14.01,2013-03-01 09:52:00,
2013-03-01 04:53:00,31.8,25.4,29.62,WSW,241,0.0,0.0,77,0.00,,,0.00,0.00,VWS V14.01,2013-03-01 09:53:00,
2013-03-01 04:54:00,31.8,25.4,29.62,WNW,282,0.0,0.0,77,0.00,,,0.00,0.00,VWS V14.01,2013-03-01 09:54:00,
2013-03-01 04:55:00,31.8,25.4,29.62,NW,312,0.0,0.0,77,0.00,,,0.00,0.00,VWS V14.01,2013-03-01 09:55:00,
2013-03-01 04:59:00,31.8,25.4,29.62,WSW,248,0.0,0.0,77,0.00,,,0.00,0.00,VWS V14.01,2013-03-01 09:59:00,
2013-03-01 05:05:00,31.8,25.4,29.62,WSW,248,0.0,0.0,77,0.00,,,0.00,0.00,VWS V14.01,2013-03-01 10:05:00,
2013-03-01 05:06:00,31.8,25.4,29.62,West,281,0.0,0.0,77,0.00,,,0.00,0.00,VWS V14.01,2013-03-01 10:06:00,
2013-03-01 05:07:00,31.8,25.4,29.62,WSW,254,0.0,0.0,77,0.00,,,0.00,0.00,VWS V14.01,2013-03-01 10:07:00,
2013-03-01 05:08:00,31.8,25.4,29.62,West,281,0.0,0.0,77,0.00,,,0.00,0.00,VWS V14.01,2013-03-01 10:08:00,
2013-03-01 05:09:00,31.8,25.4,29.62,West,263,0.0,0.0,77,0.00,,,0.00,0.00,VWS V14.01,2013-03-01 10:09:00,
2013-03-01 05:10:00,31.8,25.4,29.62,West,271,0.0,0.0,77,0.00,,,0.00,0.00,VWS V14.01,2013-03-01 10:10:00,
2013-03-01 05:11:00,31.9,25.5,29.62,West,271,0.0,0.0,77,0.00,,,0.00,0.00,VWS V14.01,2013-03-01 10:11:00,
2013-03-01 05:12:00,31.9,25.5,29.62,West,260,0.0,0.0,77,0.00,,,0.00,0.00,VWS V14.01,2013-03-01 10:12:00,
2013-03-01 05:13:00,31.9,25.5,29.62,West,264,0.0,0.0,77,0.00,,,0.00,0.00,VWS V14.01,2013-03-01 10:13:00,
2013-03-01 05:14:00,31.9,25.5,29.62,WSW,257,0.0,0.0,77,0.00,,,0.00,0.00,VWS V14.01,2013-03-01 10:14:00,
2013-03-01 05:15:00,31.9,25.5,29.62,WSW,247,0.0,0.0,77,0.00,,,0.00,0.00,VWS V14.01,2013-03-01 10:15:00,
2013-03-01 05:16:00,31.9,25.5,29.62,West,271,0.0,0.0,77,0.00,,,0.00,0.00,VWS V14.01,2013-03-01 10:16:00,
2013-03-01 05:17:00,31.9,25.5,29.62,West,261,0.0,0.0,77,0.00,,,0.00,0.00,VWS V14.01,2013-03-01 10:17:00,
2013-03-01 05:18:00,31.9,25.5,29.62,WSW,243,0.0,0.0,77,0.00,,,0.00,0.00,VWS V14.01,2013-03-01 10:18:00,
2013-03-01 05:19:00,31.9,25.5,29.62,WSW,254,0.0,0.0,77,0.00,,,0.00,0.00,VWS V14.01,2013-03-01 10:19:00,
2013-03-01 05:20:00,31.9,25.5,29.62,WNW,288,0.0,0.0,77,0.00,,,0.00,0.00,VWS V14.01,2013-03-01 10:20:00,
2013-03-01 05:21:00,31.9,25.5,29.62,WSW,244,0.0,0.0,77,0.00,,,0.00,0.00,VWS V14.01,2013-03-01 10:21:00,
2013-03-01 05:22:00,31.9,25.5,29.62,West,281,0.0,0.0,77,0.00,,,0.00,0.00,VWS V14.01,2013-03-01 10:22:00,
2013-03-01 05:23:00,31.9,25.5,29.62,West,281,0.0,0.0,77,0.00,,,0.00,0.00,VWS V14.01,2013-03-01 10:23:00,
2013-03-01 05:24:00,31.9,25.5,29.62,West,278,0.0,0.0,77,0.00,,,0.00,0.00,VWS V14.01,2013-03-01 10:24:00,
2013-03-01 05:25:00,31.9,25.5,29.62,SW,215,0.0,0.0,77,0.00,,,0.00,0.00,VWS V14.01,2013-03-01 10:25:00,
2013-03-01 05:26:00,31.9,25.5,29.62,West,280,0.0,0.0,77,0.00,,,0.00,0.00,VWS V14.01,2013-03-01 10:26:00,
2013-03-01 05:27:00,31.9,25.5,29.62,WNW,289,0.0,0.0,77,0.00,,,0.00,0.00,VWS V14.01,2013-03-01 10:27:00,
2013-03-01 05:28:00,31.9,25.5,29.62,SW,222,0.0,0.0,77,0.00,,,0.00,0.00,VWS V14.01,2013-03-01 10:28:00,
2013-03-01 05:29:00,31.8,25.4,29.62,West,270,0.0,0.0,77,0.00,,,0.00,0.00,VWS V14.01,2013-03-01 10:29:00,
2013-03-01 05:30:00,31.8,25.4,29.63,SSW,209,0.0,0.0,77,0.00,,,0.00,0.00,VWS V14.01,2013-03-01 10:30:00,
2013-03-01 05:31:00,31.9,25.5,29.62,South,174,0.0,0.0,77,0.00,,,0.00,0.00,VWS V14.01,2013-03-01 10:31:00,
2013-03-01 05:32:00,31.8,25.4,29.63,South,175,0.0,0.0,77,0.00,,,0.00,0.00,VWS V14.01,2013-03-01 10:32:00,
2013-03-01 05:33:00,31.8,25.4,29.63,SSW,192,0.0,0.0,77,0.00,,,0.00,0.00,VWS V14.01,2013-03-01 10:33:00,
2013-03-01 05:34:00,31.8,25.4,29.63,SSW,203,0.0,0.0,77,0.00,,,0.00,0.00,VWS V14.01,2013-03-01 10:34:00,
2013-03-01 05:35:00,31.8,25.4,29.63,WSW,239,0.0,0.0,77,0.00,,,0.00,0.00,VWS V14.01,2013-03-01 10:35:00,
2013-03-01 05:36:00,31.8,25.4,29.63,SSE,161,0.0,0.0,77,0.00,,,0.00,0.00,VWS V14.01,2013-03-01 10:36:00,
2013-03-01 05:37:00,31.8,25.4,29.63,South,175,0.0,0.0,77,0.00,,,0.00,0.00,VWS V14.01,2013-03-01 10:37:00,
2013-03-01 05:38:00,31.8,25.4,29.63,West,267,0.0,0.0,77,0.00,,,0.00,0.00,VWS V14.01,2013-03-01 10:38:00,
2013-03-01 05:39:00,31.8,25.4,29.63,West,263,0.0,0.0,77,0.00,,,0.00,0.00,VWS V14.01,2013-03-01 10:39:00,
2013-03-01 05:40:00,31.8,25.4,29.63,West,263,0.0,0.0,77,0.00,,,0.00,0.00,VWS V14.01,2013-03-01 10:40:00,
2013-03-01 05:41:00,31.8,25.4,29.63,South,172,0.0,0.0,77,0.00,,,0.00,0.00,VWS V14.01,2013-03-01 10:41:00,
2013-03-01 05:42:00,31.8,25.4,29.63,SW,227,0.0,0.0,77,0.00,,,0.00,0.00,VWS V14.01,2013-03-01 10:42:00,
2013-03-01 05:43:00,31.8,25.4,29.63,West,267,0.0,0.0,77,0.00,,,0.00,0.00,VWS V14.01,2013-03-01 10:43:00,
2013-03-01 05:44:00,31.8,25.4,29.63,WNW,284,0.0,0.0,77,0.00,,,0.00,0.00,VWS V14.01,2013-03-01 10:44:00,
2013-03-01 05:45:00,31.8,25.4,29.63,West,270,0.0,0.0,77,0.00,,,0.00,0.00,VWS V14.01,2013-03-01 10:45:00,
2013-03-01 05:46:00,31.8,25.4,29.63,West,267,0.0,0.0,77,0.00,,,0.00,0.00,VWS V14.01,2013-03-01 10:46:00,
2013-03-01 05:47:00,31.8,25.4,29.63,SSW,206,0.0,0.0,77,0.00,,,0.00,0.00,VWS V14.01,2013-03-01 10:47:00,
2013-03-01 05:48:00,31.8,25.4,29.63,SSW,212,0.0,0.0,77,0.00,,,0.00,0.00,VWS V14.01,2013-03-01 10:48:00,
2013-03-01 05:49:00,31.8,25.4,29.63,SW,234,0.0,0.0,77,0.00,,,0.00,0.00,VWS V14.01,2013-03-01 10:49:00,
2013-03-01 05:50:00,31.8,25.4,29.63,West,278,0.0,0.0,77,0.00,,,0.00,0.00,VWS V14.01,2013-03-01 10:50:00,
2013-03-01 05:51:00,31.8,25.4,29.63,WSW,256,0.0,0.0,77,0.00,,,0.00,0.00,VWS V14.01,2013-03-01 10:51:00,
2013-03-01 05:52:00,31.8,25.4,29.63,WSW,256,0.0,0.0,77,0.00,,,0.00,0.00,VWS V14.01,2013-03-01 10:52:00,
2013-03-01 05:53:00,31.8,25.4,29.63,WSW,250,0.0,0.0,77,0.00,,,0.00,0.00,VWS V14.01,2013-03-01 10:53:00,
2013-03-01 05:54:00,31.8,25.4,29.63,SW,234,0.0,0.0,77,0.00,,,0.00,0.00,VWS V14.01,2013-03-01 10:54:00,
2013-03-01 05:55:00,31.8,25.4,29.63,WSW,239,0.0,0.0,77,0.00,,,0.00,0.00,VWS V14.01,2013-03-01 10:55:00,
2013-03-01 05:56:00,31.8,25.4,29.63,SW,220,0.0,0.0,77,0.00,,,0.00,0.00,VWS V14.01,2013-03-01 10:56:00,
2013-03-01 05:57:00,31.8,25.4,29.63,SW,227,0.0,0.0,77,0.00,,,0.00,0.00,VWS V14.01,2013-03-01 10:57:00,
2013-03-01 05:58:00,31.8,25.4,29.63,SSW,210,0.0,0.0,77,0.00,,,0.00,0.00,VWS V14.01,2013-03-01 10:58:00,
2013-03-01 05:59:00,31.8,25.4,29.63,WSW,251,0.0,0.0,77,0.00,,,0.00,0.00,VWS V14.01,2013-03-01 10:59:00,
2013-03-01 06:00:00,31.8,25.4,29.64,SW,234,0.0,0.0,77,0.00,,,0.00,0.00,VWS V14.01,2013-03-01 11:00:00,
2013-03-01 06:01:00,31.8,25.4,29.64,SW,217,0.0,0.0,77,0.00,,,0.00,0.00,VWS V14.01,2013-03-01 11:01:00,
2013-03-01 06:02:00,31.8,25.4,29.64,WSW,257,0.0,0.0,77,0.00,,,0.00,0.00,VWS V14.01,2013-03-01 11:02:00,
2013-03-01 06:03:00,31.8,25.4,29.64,South,172,0.0,0.0,77,0.00,,,0.00,0.00,VWS V14.01,2013-03-01 11:03:00,
2013-03-01 06:04:00,31.8,25.4,29.64,WSW,244,0.0,0.0,77,0.00,,,0.00,0.00,VWS V14.01,2013-03-01 11:04:00,
2013-03-01 06:05:00,31.8,25.4,29.64,SW,234,0.0,0.0,77,0.00,,,0.00,0.00,VWS V14.01,2013-03-01 11:05:00,
2013-03-01 06:06:00,31.8,25.4,29.64,WSW,241,0.0,0.0,77,0.00,,,0.00,0.00,VWS V14.01,2013-03-01 11:06:00,
2013-03-01 06:07:00,31.8,25.4,29.64,West,270,0.0,0.0,77,0.00,,,0.00,0.00,VWS V14.01,2013-03-01 11:07:00,
2013-03-01 06:08:00,31.8,25.4,29.64,SSW,202,0.0,0.0,77,0.00,,,0.00,0.00,VWS V14.01,2013-03-01 11:08:00,
2013-03-01 06:09:00,31.8,25.4,29.64,SSW,209,0.0,0.0,77,0.00,,,0.00,0.00,VWS V14.01,2013-03-01 11:09:00,
2013-03-01 06:10:00,31.8,25.4,29.64,WSW,243,0.0,0.0,77,0.00,,,0.00,0.00,VWS V14.01,2013-03-01 11:10:00,
2013-03-01 06:11:00,31.8,25.4,29.64,SW,232,0.0,0.0,77,0.00,,,0.00,0.00,VWS V14.01,2013-03-01 11:11:00,
2013-03-01 06:12:00,31.8,25.4,29.64,South,184,0.0,0.0,77,0.00,,,0.00,0.00,VWS V14.01,2013-03-01 11:12:00,
2013-03-01 06:13:00,31.8,25.4,29.64,South,188,0.0,0.0,77,0.00,,,0.00,0.00,VWS V14.01,2013-03-01 11:13:00,
2013-03-01 06:14:00,31.8,25.4,29.64,SSW,195,0.0,0.0,77,0.00,,,0.00,0.00,VWS V14.01,2013-03-01 11:14:00,
2013-03-01 06:15:00,31.8,25.4,29.64,South,176,0.0,0.0,77,0.00,,,0.00,0.00,VWS V14.01,2013-03-01 11:15:00,
2013-03-01 06:16:00,31.8,25.4,29.64,SW,232,0.0,0.0,77,0.00,,,0.00,0.00,VWS V14.01,2013-03-01 11:16:00,
2013-03-01 06:17:00,31.8,25.4,29.64,SW,224,0.0,0.0,77,0.00,,,0.00,0.00,VWS V14.01,2013-03-01 11:17:00,
2013-03-01 06:18:00,31.8,25.4,29.64,SSW,213,0.0,0.0,77,0.00,,,0.00,0.00,VWS V14.01,2013-03-01 11:18:00,
2013-03-01 06:19:00,31.8,25.4,29.64,SSW,212,0.0,0.0,77,0.00,,,0.00,0.00,VWS V14.01,2013-03-01 11:19:00,
2013-03-01 06:20:00,31.8,25.4,29.64,West,270,0.0,0.0,77,0.00,,,0.00,0.00,VWS V14.01,2013-03-01 11:20:00,
2013-03-01 06:21:00,31.8,25.4,29.64,WSW,256,0.0,0.0,77,0.00,,,0.00,0.00,VWS V14.01,2013-03-01 11:21:00,
2013-03-01 06:22:00,31.8,25.4,29.64,SSW,205,0.0,0.0,77,0.00,,,0.00,0.00,VWS V14.01,2013-03-01 11:22:00,
2013-03-01 06:23:00,31.8,25.4,29.64,WSW,257,0.0,0.0,77,0.00,,,0.00,0.00,VWS V14.01,2013-03-01 11:23:00,
2013-03-01 06:24:00,31.8,25.4,29.64,SSW,213,0.0,0.0,77,0.00,,,0.00,0.00,VWS V14.01,2013-03-01 11:24:00,
2013-03-01 06:25:00,31.8,25.4,29.64,South,171,0.0,0.0,77,0.00,,,0.00,0.00,VWS V14.01,2013-03-01 11:25:00,
2013-03-01 06:26:00,31.8,25.4,29.64,South,175,0.0,0.0,77,0.00,,,0.00,0.00,VWS V14.01,2013-03-01 11:26:00,
2013-03-01 06:27:00,31.8,25.4,29.64,SSW,205,0.0,0.0,77,0.00,,,0.00,0.00,VWS V14.01,2013-03-01 11:27:00,
2013-03-01 06:28:00,31.8,25.4,29.64,South,185,0.0,0.0,77,0.00,,,0.00,0.00,VWS V14.01,2013-03-01 11:28:00,
2013-03-01 06:29:00,31.8,25.4,29.64,SW,226,0.0,0.0,77,0.00,,,0.00,0.00,VWS V14.01,2013-03-01 11:29:00,
2013-03-01 06:30:00,31.8,25.4,29.65,SW,219,0.0,0.0,77,0.00,,,0.00,0.00,VWS V14.01,2013-03-01 11:30:00,
2013-03-01 06:31:00,31.8,25.4,29.65,WSW,257,0.0,0.0,77,0.00,,,0.00,0.00,VWS V14.01,2013-03-01 11:31:00,
2013-03-01 06:32:00,31.8,25.4,29.64,South,184,0.0,0.0,77,0.00,,,0.00,0.00,VWS V14.01,2013-03-01 11:32:00,
2013-03-01 06:33:00,31.8,25.4,29.65,WSW,258,0.0,0.0,77,0.00,,,0.00,0.00,VWS V14.01,2013-03-01 11:33:00,
2013-03-01 06:34:00,31.8,25.4,29.65,South,178,0.0,0.0,77,0.00,,,0.00,0.00,VWS V14.01,2013-03-01 11:34:00,
2013-03-01 06:35:00,31.8,25.4,29.65,SSE,162,0.0,0.0,77,0.00,,,0.00,0.00,VWS V14.01,2013-03-01 11:35:00,
2013-03-01 06:36:00,31.8,25.4,29.65,WSW,241,0.0,0.0,77,0.00,,,0.00,0.00,VWS V14.01,2013-03-01 11:36:00,
2013-03-01 06:37:00,31.8,25.4,29.65,SW,219,0.0,0.0,77,0.00,,,0.00,0.00,VWS V14.01,2013-03-01 11:37:00,
2013-03-01 06:38:00,31.8,25.4,29.65,SSE,157,0.0,0.0,77,0.00,,,0.00,0.00,VWS V14.01,2013-03-01 11:38:00,
2013-03-01 06:39:00,31.8,25.4,29.65,SW,230,0.0,0.0,77,0.00,,,0.00,0.00,VWS V14.01,2013-03-01 11:39:00,
2013-03-01 06:40:00,31.6,25.2,29.65,SSW,195,0.0,0.0,77,0.00,,,0.00,0.00,VWS V14.01,2013-03-01 11:40:00,
2013-03-01 06:41:00,31.6,25.2,29.65,South,191,0.0,0.0,77,0.00,,,0.00,0.00,VWS V14.01,2013-03-01 11:41:00,
2013-03-01 06:42:00,31.8,25.4,29.65,SW,224,0.0,0.0,77,0.00,,,0.00,0.00,VWS V14.01,2013-03-01 11:42:00,
2013-03-01 06:43:00,31.8,25.4,29.65,South,178,0.0,0.0,77,0.00,,,0.00,0.00,VWS V14.01,2013-03-01 11:43:00,
2013-03-01 06:44:00,31.8,25.4,29.65,South,171,0.0,0.0,77,0.00,,,0.00,0.00,VWS V14.01,2013-03-01 11:44:00,
2013-03-01 06:45:00,31.8,25.4,29.66,South,174,0.0,0.0,77,0.00,,,0.00,0.00,VWS V14.01,2013-03-01 11:45:00,
2013-03-01 06:46:00,31.8,25.4,29.66,South,169,0.0,0.0,77,0.00,,,0.00,0.00,VWS V14.01,2013-03-01 11:46:00,
2013-03-01 06:47:00,31.8,25.4,29.66,South,175,0.0,0.0,77,0.00,,,0.00,0.00,VWS V14.01,2013-03-01 11:47:00,
2013-03-01 06:48:00,31.8,25.4,29.65,South,178,0.0,0.0,77,0.00,,,0.00,0.00,VWS V14.01,2013-03-01 11:48:00,
2013-03-01 06:49:00,31.8,25.4,29.66,South,184,0.0,0.0,77,0.00,,,0.00,0.00,VWS V14.01,2013-03-01 11:49:00,
2013-03-01 06:50:00,31.8,25.4,29.66,South,175,0.0,0.0,77,0.00,,,0.00,0.00,VWS V14.01,2013-03-01 11:50:00,
2013-03-01 06:51:00,31.8,25.4,29.66,South,175,0.0,0.0,77,0.00,,,0.00,0.00,VWS V14.01,2013-03-01 11:51:00,
2013-03-01 06:52:00,31.8,25.4,29.66,South,185,0.0,0.0,77,0.00,,,0.00,0.00,VWS V14.01,2013-03-01 11:52:00,
2013-03-01 06:53:00,31.8,25.4,29.66,SSW,193,0.0,0.0,77,0.00,,,0.00,0.00,VWS V14.01,2013-03-01 11:53:00,
2013-03-01 06:54:00,31.6,25.5,29.66,SSE,151,0.0,0.0,78,0.00,,,0.00,0.00,VWS V14.01,2013-03-01 11:54:00,
2013-03-01 06:55:00,31.6,25.5,29.66,SW,222,0.0,0.0,78,0.00,,,0.00,0.00,VWS V14.01,2013-03-01 11:55:00,
2013-03-01 06:56:00,31.6,25.5,29.66,WSW,241,0.0,0.0,78,0.00,,,0.00,0.00,VWS V14.01,2013-03-01 11:56:00,
2013-03-01 06:57:00,31.6,25.5,29.66,WSW,250,0.0,0.0,78,0.00,,,0.00,0.00,VWS V14.01,2013-03-01 11:57:00,
2013-03-01 06:58:00,31.6,25.5,29.66,SSW,196,0.0,0.0,78,0.00,,,0.00,0.00,VWS V14.01,2013-03-01 11:58:00,
2013-03-01 06:59:00,31.6,25.5,29.66,SSE,151,0.0,0.0,78,0.00,,,0.00,0.00,VWS V14.01,2013-03-01 11:59:00,
2013-03-01 07:00:00,31.6,25.5,29.66,South,179,0.0,0.0,78,0.00,,,0.00,0.00,VWS V14.01,2013-03-01 12:00:00,
2013-03-01 07:01:00,31.6,25.5,29.66,WSW,246,0.0,0.0,78,0.00,,,0.00,0.00,VWS V14.01,2013-03-01 12:01:00,
2013-03-01 07:02:00,31.6,25.5,29.66,South,172,0.0,0.0,78,0.00,,,0.00,0.00,VWS V14.01,2013-03-01 12:02:00,
2013-03-01 07:03:00,31.6,25.5,29.66,WNW,289,0.0,0.0,78,0.00,,,0.00,0.00,VWS V14.01,2013-03-01 12:03:00,
2013-03-01 07:04:00,31.6,25.5,29.66,SE,136,0.0,0.0,78,0.00,,,0.00,0.00,VWS V14.01,2013-03-01 12:04:00,
2013-03-01 07:05:00,31.6,25.5,29.66,South,179,0.0,0.0,78,0.00,,,0.00,0.00,VWS V14.01,2013-03-01 12:05:00,
2013-03-01 07:06:00,31.6,25.5,29.66,South,191,0.0,0.0,78,0.00,,,0.00,0.00,VWS V14.01,2013-03-01 12:06:00,
2013-03-01 07:07:00,31.6,25.9,29.66,SE,127,0.0,0.0,79,0.00,,,0.00,0.00,VWS V14.01,2013-03-01 12:07:00,
2013-03-01 07:08:00,31.6,25.9,29.66,West,264,0.0,0.0,79,0.00,,,0.00,0.00,VWS V14.01,2013-03-01 12:08:00,
2013-03-01 07:09:00,31.6,25.9,29.66,West,264,0.0,0.0,79,0.00,,,0.00,0.00,VWS V14.01,2013-03-01 12:09:00,
2013-03-01 07:10:00,31.6,25.9,29.66,SSW,202,0.0,0.0,79,0.00,,,0.00,0.00,VWS V14.01,2013-03-01 12:10:00,
2013-03-01 07:11:00,31.6,25.5,29.66,South,191,0.0,0.0,78,0.00,,,0.00,0.00,VWS V14.01,2013-03-01 12:11:00,
2013-03-01 07:12:00,31.6,25.9,29.66,WSW,258,0.0,0.0,79,0.00,,,0.00,0.00,VWS V14.01,2013-03-01 12:12:00,
2013-03-01 07:13:00,31.6,25.9,29.66,SSE,152,0.0,0.0,79,0.00,,,0.00,0.00,VWS V14.01,2013-03-01 12:13:00,
2013-03-01 07:14:00,31.6,25.5,29.66,South,179,0.0,0.0,78,0.00,,,0.00,0.00,VWS V14.01,2013-03-01 12:14:00,
2013-03-01 07:15:00,31.6,25.5,29.66,SSW,192,0.0,0.0,78,0.00,,,0.00,0.00,VWS V14.01,2013-03-01 12:15:00,
2013-03-01 07:16:00,31.6,25.5,29.66,South,169,0.0,0.0,78,0.00,,,0.00,7.00,VWS V14.01,2013-03-01 12:16:00,
2013-03-01 07:17:00,31.6,25.9,29.66,WSW,258,0.0,0.0,79,0.00,,,0.00,0.00,VWS V14.01,2013-03-01 12:17:00,
2013-03-01 07:18:00,31.6,25.9,29.66,SSW,195,0.0,0.0,79,0.00,,,0.00,7.00,VWS V14.01,2013-03-01 12:18:00,
2013-03-01 07:19:00,31.6,25.5,29.66,WNW,296,0.0,0.0,78,0.00,,,0.00,7.00,VWS V14.01,2013-03-01 12:19:00,
2013-03-01 07:20:00,31.6,25.5,29.66,SSW,210,0.0,0.0,78,0.00,,,0.00,7.00,VWS V14.01,2013-03-01 12:20:00,
2013-03-01 07:21:00,31.6,25.5,29.66,SSW,199,0.0,0.0,78,0.00,,,0.00,9.00,VWS V14.01,2013-03-01 12:21:00,
2013-03-01 07:22:00,31.6,25.5,29.66,South,189,0.0,0.0,78,0.00,,,0.00,9.00,VWS V14.01,2013-03-01 12:22:00,
2013-03-01 07:23:00,31.6,25.9,29.66,SSW,195,0.0,0.0,79,0.00,,,0.00,7.00,VWS V14.01,2013-03-01 12:23:00,
2013-03-01 07:24:00,31.6,25.5,29.66,SW,232,0.0,0.0,78,0.00,,,0.00,9.00,VWS V14.01,2013-03-01 12:24:00,
2013-03-01 07:25:00,31.6,25.5,29.66,WSW,240,0.0,0.0,78,0.00,,,0.00,12.00,VWS V14.01,2013-03-01 12:25:00,
2013-03-01 07:26:00,31.6,25.5,29.66,SW,223,0.0,0.0,78,0.00,,,0.00,12.00,VWS V14.01,2013-03-01 12:26:00,
2013-03-01 07:27:00,31.6,25.5,29.66,SW,215,0.0,0.0,78,0.00,,,0.00,12.00,VWS V14.01,2013-03-01 12:27:00,
2013-03-01 07:28:00,31.6,25.5,29.66,West,263,0.0,0.0,78,0.00,,,0.00,12.00,VWS V14.01,2013-03-01 12:28:00,
2013-03-01 07:29:00,31.6,25.5,29.66,SW,232,0.0,0.0,78,0.00,,,0.00,9.00,VWS V14.01,2013-03-01 12:29:00,
2013-03-01 07:30:00,31.6,25.5,29.66,SSW,198,0.0,0.0,78,0.00,,,0.00,14.00,VWS V14.01,2013-03-01 12:30:00,
2013-03-01 07:31:00,31.6,25.5,29.66,WSW,241,0.0,0.0,78,0.00,,,0.00,14.00,VWS V14.01,2013-03-01 12:31:00,
2013-03-01 07:32:00,31.6,25.5,29.66,West,263,0.0,0.0,78,0.00,,,0.00,14.00,VWS V14.01,2013-03-01 12:32:00,
2013-03-01 07:33:00,31.8,25.7,29.66,WSW,248,0.0,0.0,78,0.00,,,0.00,19.00,VWS V14.01,2013-03-01 12:33:00,
2013-03-01 07:34:00,31.8,25.7,29.66,WSW,253,0.0,0.0,78,0.00,,,0.00,19.00,VWS V14.01,2013-03-01 12:34:00,
2013-03-01 07:35:00,31.6,25.5,29.66,SSW,198,0.0,0.0,78,0.00,,,0.00,14.00,VWS V14.01,2013-03-01 12:35:00,
2013-03-01 07:36:00,31.8,25.7,29.66,WSW,240,0.0,0.0,78,0.00,,,0.00,19.00,VWS V14.01,2013-03-01 12:36:00,
2013-03-01 07:37:00,31.8,25.7,29.66,WSW,247,0.0,0.0,78,0.00,,,0.00,23.00,VWS V14.01,2013-03-01 12:37:00,
2013-03-01 07:38:00,31.8,25.7,29.66,WSW,250,0.0,0.0,78,0.00,,,0.00,23.00,VWS V14.01,2013-03-01 12:38:00,
2013-03-01 07:39:00,31.8,25.7,29.66,SSE,164,0.0,0.0,78,0.00,,,0.00,23.00,VWS V14.01,2013-03-01 12:39:00,
2013-03-01 07:40:00,31.8,25.7,29.66,WSW,251,0.0,0.0,78,0.00,,,0.00,23.00,VWS V14.01,2013-03-01 12:40:00,
2013-03-01 07:41:00,31.8,25.7,29.66,WSW,240,0.0,0.0,78,0.00,,,0.00,19.00,VWS V14.01,2013-03-01 12:41:00,
2013-03-01 07:42:00,31.8,25.7,29.66,West,267,0.0,0.0,78,0.00,,,0.00,30.00,VWS V14.01,2013-03-01 12:42:00,
2013-03-01 07:43:00,31.8,25.7,29.66,SSW,208,0.0,0.0,78,0.00,,,0.00,30.00,VWS V14.01,2013-03-01 12:43:00,
2013-03-01 07:44:00,31.8,25.7,29.66,SSW,209,0.0,0.0,78,0.00,,,0.00,30.00,VWS V14.01,2013-03-01 12:44:00,
2013-03-01 07:45:00,31.8,25.7,29.66,SSW,200,0.0,0.0,78,0.00,,,0.00,35.00,VWS V14.01,2013-03-01 12:45:00,
2013-03-01 07:46:00,31.8,25.7,29.66,WSW,247,0.0,0.0,78,0.00,,,0.00,35.00,VWS V14.01,2013-03-01 12:46:00,
2013-03-01 07:47:00,31.8,25.7,29.66,West,267,0.0,0.0,78,0.00,,,0.00,30.00,VWS V14.01,2013-03-01 12:47:00,
2013-03-01 07:48:00,31.8,25.7,29.66,West,261,0.0,0.0,78,0.00,,,0.00,35.00,VWS V14.01,2013-03-01 12:48:00,
2013-03-01 07:49:00,31.8,25.4,29.66,West,263,0.0,0.0,77,0.00,,,0.00,33.00,VWS V14.01,2013-03-01 12:49:00,
2013-03-01 07:50:00,31.8,25.4,29.66,SSW,193,0.0,0.0,77,0.00,,,0.00,33.00,VWS V14.01,2013-03-01 12:50:00,
2013-03-01 07:51:00,31.8,25.4,29.66,SSW,209,0.0,0.0,77,0.00,,,0.00,33.00,VWS V14.01,2013-03-01 12:51:00,
2013-03-01 07:52:00,31.9,25.5,29.66,SSW,196,0.0,0.0,77,0.00,,,0.00,33.00,VWS V14.01,2013-03-01 12:52:00,
2013-03-01 07:53:00,31.8,25.7,29.66,West,261,0.0,0.0,78,0.00,,,0.00,35.00,VWS V14.01,2013-03-01 12:53:00,
2013-03-01 07:54:00,31.9,25.5,29.66,West,265,0.0,0.0,77,0.00,,,0.00,39.00,VWS V14.01,2013-03-01 12:54:00,
2013-03-01 07:55:00,31.9,25.5,29.66,SW,236,0.0,0.0,77,0.00,,,0.00,39.00,VWS V14.01,2013-03-01 12:55:00,
2013-03-01 07:56:00,31.9,25.5,29.66,West,263,0.0,0.0,77,0.00,,,0.00,39.00,VWS V14.01,2013-03-01 12:56:00,
2013-03-01 07:57:00,31.9,25.5,29.66,South,182,0.0,0.0,77,0.00,,,0.00,39.00,VWS V14.01,2013-03-01 12:57:00,
2013-03-01 07:58:00,31.9,25.5,29.66,West,265,0.0,0.0,77,0.00,,,0.00,40.00,VWS V14.01,2013-03-01 12:58:00,
2013-03-01 07:59:00,31.9,25.5,29.66,West,265,0.0,0.0,77,0.00,,,0.00,39.00,VWS V14.01,2013-03-01 12:59:00,
2013-03-01 08:00:00,31.9,25.5,29.66,WSW,258,0.0,0.0,77,0.00,,,0.00,40.00,VWS V14.01,2013-03-01 13:00:00,
2013-03-01 08:01:00,31.9,25.5,29.66,South,186,0.0,0.0,77,0.00,,,0.00,40.00,VWS V14.01,2013-03-01 13:01:00,
2013-03-01 08:02:00,31.9,25.5,29.66,South,188,0.0,0.0,77,0.00,,,0.00,44.00,VWS V14.01,2013-03-01 13:02:00,
2013-03-01 08:03:00,32.1,25.7,29.66,SSW,199,0.0,0.0,77,0.00,,,0.00,44.00,VWS V14.01,2013-03-01 13:03:00,
2013-03-01 08:04:00,31.9,25.5,29.66,SSW,192,0.0,0.0,77,0.00,,,0.00,40.00,VWS V14.01,2013-03-01 13:04:00,
2013-03-01 08:05:00,32.1,25.4,29.66,West,264,0.0,0.0,76,0.00,,,0.00,44.00,VWS V14.01,2013-03-01 13:05:00,
2013-03-01 08:06:00,32.1,25.4,29.66,SSW,205,0.0,0.0,76,0.00,,,0.00,44.00,VWS V14.01,2013-03-01 13:06:00,
2013-03-01 08:07:00,32.1,25.4,29.66,South,186,0.0,0.0,76,0.00,,,0.00,44.00,VWS V14.01,2013-03-01 13:07:00,
2013-03-01 08:08:00,32.1,25.4,29.66,West,270,0.0,0.0,76,0.00,,,0.00,44.00,VWS V14.01,2013-03-01 13:08:00,
2013-03-01 08:09:00,32.1,25.4,29.66,SW,233,0.0,0.0,76,0.00,,,0.00,44.00,VWS V14.01,2013-03-01 13:09:00,
2013-03-01 08:10:00,32.1,25.7,29.66,WSW,248,0.0,0.0,77,0.00,,,0.00,37.00,VWS V14.01,2013-03-01 13:10:00,
2013-03-01 08:11:00,32.1,25.7,29.66,South,182,0.0,0.0,77,0.00,,,0.00,37.00,VWS V14.01,2013-03-01 13:11:00,
2013-03-01 08:12:00,32.2,25.8,29.66,WSW,248,0.0,0.0,77,0.00,,,0.00,37.00,VWS V14.01,2013-03-01 13:12:00,
2013-03-01 08:13:00,32.2,25.8,29.66,SW,216,0.0,0.0,77,0.00,,,0.00,37.00,VWS V14.01,2013-03-01 13:13:00,
2013-03-01 08:14:00,32.2,25.8,29.66,SSE,150,0.0,0.0,77,0.00,,,0.00,37.00,VWS V14.01,2013-03-01 13:14:00,
2013-03-01 08:15:00,32.1,25.7,29.66,WSW,248,0.0,0.0,77,0.00,,,0.00,37.00,VWS V14.01,2013-03-01 13:15:00,
2013-03-01 08:16:00,32.2,25.5,29.66,WSW,250,0.0,0.0,76,0.00,,,0.00,44.00,VWS V14.01,2013-03-01 13:16:00,
2013-03-01 08:17:00,32.2,25.5,29.66,SW,230,0.0,0.0,76,0.00,,,0.00,44.00,VWS V14.01,2013-03-01 13:17:00,
2013-03-01 08:18:00,32.2,25.5,29.66,West,267,0.0,0.0,76,0.00,,,0.00,44.00,VWS V14.01,2013-03-01 13:18:00,
2013-03-01 08:19:00,32.2,25.5,29.66,South,179,0.0,0.0,76,0.00,,,0.00,49.00,VWS V14.01,2013-03-01 13:19:00,
2013-03-01 08:20:00,32.2,25.8,29.66,West,260,0.0,0.0,77,0.00,,,0.00,44.00,VWS V14.01,2013-03-01 13:20:00,
2013-03-01 08:21:00,32.2,25.8,29.66,WSW,253,0.0,0.0,77,0.00,,,0.00,49.00,VWS V14.01,2013-03-01 13:21:00,
2013-03-01 08:22:00,32.2,25.8,29.66,West,268,0.0,0.0,77,0.00,,,0.00,49.00,VWS V14.01,2013-03-01 13:22:00,
2013-03-01 08:23:00,32.2,25.8,29.66,SSW,203,0.0,0.0,77,0.00,,,0.00,46.00,VWS V14.01,2013-03-01 13:23:00,
2013-03-01 08:24:00,32.2,25.8,29.66,SSW,205,0.0,0.0,77,0.00,,,0.00,46.00,VWS V14.01,2013-03-01 13:24:00,
2013-03-01 08:25:00,32.2,25.8,29.66,WSW,239,0.0,0.0,77,0.00,,,0.00,46.00,VWS V14.01,2013-03-01 13:25:00,
2013-03-01 08:26:00,32.2,25.8,29.66,WSW,253,0.0,0.0,77,0.00,,,0.00,49.00,VWS V14.01,2013-03-01 13:26:00,
2013-03-01 08:27:00,32.2,25.8,29.66,South,189,0.0,0.0,77,0.00,,,0.00,49.00,VWS V14.01,2013-03-01 13:27:00,
2013-03-01 08:28:00,32.2,25.8,29.66,West,265,0.0,0.0,77,0.00,,,0.00,49.00,VWS V14.01,2013-03-01 13:28:00,
2013-03-01 08:29:00,32.2,25.8,29.66,WNW,284,0.0,0.0,77,0.00,,,0.00,49.00,VWS V14.01,2013-03-01 13:29:00,
2013-03-01 08:30:00,32.4,26.0,29.66,WNW,282,0.0,0.0,77,0.00,,,0.00,49.00,VWS V14.01,2013-03-01 13:30:00,
2013-03-01 08:31:00,32.2,25.8,29.66,WNW,296,0.0,0.0,77,0.00,,,0.00,46.00,VWS V14.01,2013-03-01 13:31:00,
2013-03-01 08:32:00,32.2,25.5,29.66,West,270,0.0,0.0,76,0.00,,,0.00,60.00,VWS V14.01,2013-03-01 13:32:00,
2013-03-01 08:33:00,32.2,25.5,29.66,WSW,254,0.0,0.0,76,0.00,,,0.00,60.00,VWS V14.01,2013-03-01 13:33:00,
2013-03-01 08:34:00,32.2,25.5,29.66,WSW,248,0.0,0.0,76,0.00,,,0.00,58.00,VWS V14.01,2013-03-01 13:34:00,
2013-03-01 08:35:00,32.2,25.5,29.66,WSW,243,0.0,0.0,76,0.00,,,0.00,56.00,VWS V14.01,2013-03-01 13:35:00,
2013-03-01 08:36:00,32.4,26.0,29.66,West,275,0.0,0.0,77,0.00,,,0.00,56.00,VWS V14.01,2013-03-01 13:36:00,
2013-03-01 08:37:00,32.4,25.7,29.66,WSW,257,0.0,0.0,76,0.00,,,0.00,72.00,VWS V14.01,2013-03-01 13:37:00,
2013-03-01 08:38:00,32.4,25.7,29.66,WSW,248,0.0,0.0,76,0.00,,,0.00,84.00,VWS V14.01,2013-03-01 13:38:00,
2013-03-01 08:39:00,32.4,25.7,29.66,West,271,0.0,0.0,76,0.00,,,0.00,90.00,VWS V14.01,2013-03-01 13:39:00,
2013-03-01 08:40:00,32.4,25.7,29.66,West,263,0.0,0.0,76,0.00,,,0.00,91.00,VWS V14.01,2013-03-01 13:40:00,
2013-03-01 08:41:00,32.4,25.7,29.66,WSW,244,0.0,0.0,76,0.00,,,0.00,93.00,VWS V14.01,2013-03-01 13:41:00,
2013-03-01 08:42:00,32.4,25.7,29.66,WSW,257,0.0,0.0,76,0.00,,,0.00,72.00,VWS V14.01,2013-03-01 13:42:00,
2013-03-01 08:43:00,32.4,25.7,29.66,West,260,0.0,0.0,76,0.00,,,0.00,102.00,VWS V14.01,2013-03-01 13:43:00,
2013-03-01 08:44:00,32.4,25.7,29.66,South,169,0.0,0.0,76,0.00,,,0.00,106.00,VWS V14.01,2013-03-01 13:44:00,
2013-03-01 08:45:00,32.5,26.1,29.67,West,274,0.0,0.0,77,0.00,,,0.00,102.00,VWS V14.01,2013-03-01 13:45:00,
2013-03-01 08:46:00,32.5,26.1,29.67,WSW,247,0.0,0.0,77,0.00,,,0.00,100.00,VWS V14.01,2013-03-01 13:46:00,
2013-03-01 08:47:00,32.4,25.7,29.66,WSW,239,0.0,0.0,76,0.00,,,0.00,99.00,VWS V14.01,2013-03-01 13:47:00,
2013-03-01 08:48:00,32.5,26.1,29.67,West,278,0.0,0.0,77,0.00,,,0.00,99.00,VWS V14.01,2013-03-01 13:48:00,
2013-03-01 08:49:00,32.5,25.8,29.67,WSW,248,0.0,0.0,76,0.00,,,0.00,99.00,VWS V14.01,2013-03-01 13:49:00,
2013-03-01 08:50:00,32.5,25.8,29.67,WSW,246,0.0,0.0,76,0.00,,,0.00,97.00,VWS V14.01,2013-03-01 13:50:00,
2013-03-01 08:51:00,32.5,25.8,29.67,WSW,246,0.0,0.0,76,0.00,,,0.00,97.00,VWS V14.01,2013-03-01 13:51:00,
2013-03-01 08:52:00,32.5,25.8,29.67,WSW,257,0.0,0.0,76,0.00,,,0.00,95.00,VWS V14.01,2013-03-01 13:52:00,
2013-03-01 08:53:00,32.5,26.1,29.67,West,278,0.0,0.0,77,0.00,,,0.00,99.00,VWS V14.01,2013-03-01 13:53:00,
2013-03-01 08:54:00,32.7,26.0,29.67,West,265,0.0,0.0,76,0.00,,,0.00,100.00,VWS V14.01,2013-03-01 13:54:00,
2013-03-01 08:55:00,32.7,26.0,29.67,West,268,0.0,0.0,76,0.00,,,0.00,100.00,VWS V14.01,2013-03-01 13:55:00,
2013-03-01 08:56:00,32.7,26.0,29.67,West,265,0.0,0.0,76,0.00,,,0.00,104.00,VWS V14.01,2013-03-01 13:56:00,
2013-03-01 08:57:00,32.7,26.0,29.67,West,265,0.0,0.0,76,0.00,,,0.00,118.00,VWS V14.01,2013-03-01 13:57:00,
2013-03-01 08:58:00,32.7,26.0,29.67,WSW,243,0.0,0.0,76,0.00,,,0.00,95.00,VWS V14.01,2013-03-01 13:58:00,
2013-03-01 08:59:00,32.8,26.1,29.67,West,265,0.0,0.0,76,0.00,,,0.00,132.00,VWS V14.01,2013-03-01 13:59:00,
2013-03-01 09:00:00,32.8,26.1,29.67,West,265,0.0,0.0,76,0.00,,,0.00,127.00,VWS V14.01,2013-03-01 14:00:00,
2013-03-01 09:01:00,32.8,26.1,29.67,West,264,0.0,0.0,76,0.00,,,0.00,127.00,VWS V14.01,2013-03-01 14:01:00,
2013-03-01 09:02:00,32.8,25.8,29.67,West,264,0.0,0.0,75,0.00,,,0.00,127.00,VWS V14.01,2013-03-01 14:02:00,
2013-03-01 09:03:00,32.9,25.9,29.67,West,264,0.0,0.0,75,0.00,,,0.00,121.00,VWS V14.01,2013-03-01 14:03:00,
2013-03-01 09:04:00,32.8,26.1,29.67,West,265,0.0,0.0,76,0.00,,,0.00,132.00,VWS V14.01,2013-03-01 14:04:00,
2013-03-01 09:05:00,32.9,25.9,29.67,South,185,0.0,0.0,75,0.00,,,0.00,100.00,VWS V14.01,2013-03-01 14:05:00,
2013-03-01 09:06:00,32.9,25.9,29.67,WSW,241,0.0,0.0,75,0.00,,,0.00,104.00,VWS V14.01,2013-03-01 14:06:00,
2013-03-01 09:07:00,32.9,25.9,29.67,SSE,154,0.0,0.0,75,0.00,,,0.00,107.00,VWS V14.01,2013-03-01 14:07:00,
2013-03-01 09:08:00,32.9,25.5,29.67,SSE,168,0.0,0.0,74,0.00,,,0.00,113.00,VWS V14.01,2013-03-01 14:08:00,
2013-03-01 09:09:00,32.9,25.9,29.67,SSW,193,0.0,0.0,75,0.00,,,0.00,111.00,VWS V14.01,2013-03-01 14:09:00,
2013-03-01 09:10:00,33.1,25.7,29.67,West,267,0.0,0.0,74,0.00,,,0.00,120.00,VWS V14.01,2013-03-01 14:10:00,
2013-03-01 09:11:00,33.1,25.7,29.67,West,267,0.0,0.0,74,0.00,,,0.00,125.00,VWS V14.01,2013-03-01 14:11:00,
2013-03-01 09:12:00,33.1,25.7,29.67,WSW,256,0.0,0.0,74,0.00,,,0.00,135.00,VWS V14.01,2013-03-01 14:12:00,
2013-03-01 09:13:00,33.1,25.7,29.67,SSW,209,0.0,0.0,74,0.00,,,0.00,141.00,VWS V14.01,2013-03-01 14:13:00,
2013-03-01 09:14:00,33.1,26.0,29.67,South,172,0.0,0.0,75,0.00,,,0.00,116.00,VWS V14.01,2013-03-01 14:14:00,
2013-03-01 09:15:00,33.2,25.8,29.67,SW,233,0.0,0.0,74,0.00,,,0.00,150.00,VWS V14.01,2013-03-01 14:15:00,
2013-03-01 09:16:00,33.2,25.8,29.67,SW,232,0.0,0.0,74,0.00,,,0.00,143.00,VWS V14.01,2013-03-01 14:16:00,
2013-03-01 09:17:00,33.2,25.8,29.67,South,185,0.0,0.0,74,0.00,,,0.00,139.00,VWS V14.01,2013-03-01 14:17:00,
2013-03-01 09:18:00,33.2,25.5,29.67,South,185,0.0,0.0,73,0.00,,,0.00,144.00,VWS V14.01,2013-03-01 14:18:00,
2013-03-01 09:19:00,33.2,25.5,29.67,WSW,254,0.0,0.0,73,0.00,,,0.00,153.00,VWS V14.01,2013-03-01 14:19:00,
2013-03-01 09:20:00,33.2,25.8,29.67,SW,233,0.0,0.0,74,0.00,,,0.00,150.00,VWS V14.01,2013-03-01 14:20:00,
2013-03-01 09:21:00,33.2,25.5,29.67,WSW,244,0.0,0.0,73,0.00,,,0.00,169.00,VWS V14.01,2013-03-01 14:21:00,
2013-03-01 09:22:00,33.4,25.7,29.67,WNW,287,0.0,0.0,73,0.00,,,0.00,179.00,VWS V14.01,2013-03-01 14:22:00,
2013-03-01 09:23:00,33.4,25.7,29.67,SW,230,0.0,0.0,73,0.00,,,0.00,181.00,VWS V14.01,2013-03-01 14:23:00,
2013-03-01 09:24:00,33.4,25.4,29.67,SW,234,0.0,0.0,72,0.00,,,0.00,183.00,VWS V14.01,2013-03-01 14:24:00,
2013-03-01 09:25:00,33.5,25.8,29.67,SW,236,0.0,0.0,73,0.00,,,0.00,181.00,VWS V14.01,2013-03-01 14:25:00,
2013-03-01 09:26:00,33.2,25.5,29.67,WSW,244,0.0,0.0,73,0.00,,,0.00,169.00,VWS V14.01,2013-03-01 14:26:00,
2013-03-01 09:27:00,33.5,25.5,29.67,SSW,193,0.0,0.0,72,0.00,,,0.00,197.00,VWS V14.01,2013-03-01 14:27:00,
2013-03-01 09:28:00,33.7,25.6,29.67,West,263,0.0,0.0,72,0.00,,,0.00,197.00,VWS V14.01,2013-03-01 14:28:00,
2013-03-01 09:29:00,33.7,25.6,29.67,South,176,0.0,0.0,72,0.00,,,0.00,176.00,VWS V14.01,2013-03-01 14:29:00,
2013-03-01 09:30:00,33.7,25.6,29.66,SW,223,0.0,0.0,72,0.00,,,0.00,160.00,VWS V14.01,2013-03-01 14:30:00,
2013-03-01 09:31:00,33.8,25.4,29.66,WSW,239,0.0,0.0,71,0.00,,,0.00,150.00,VWS V14.01,2013-03-01 14:31:00,
2013-03-01 09:32:00,33.5,25.5,29.67,SSW,193,0.0,0.0,72,0.00,,,0.00,197.00,VWS V14.01,2013-03-01 14:32:00,
2013-03-01 09:33:00,33.8,25.4,29.66,South,186,0.0,0.0,71,0.00,,,0.00,135.00,VWS V14.01,2013-03-01 14:33:00,
2013-03-01 09:34:00,33.8,25.4,29.66,WNW,288,0.0,0.0,71,0.00,,,0.00,141.00,VWS V14.01,2013-03-01 14:34:00,
2013-03-01 09:35:00,33.8,25.4,29.66,WNW,288,0.0,0.0,71,0.00,,,0.00,150.00,VWS V14.01,2013-03-01 14:35:00,
2013-03-01 09:36:00,33.8,25.1,29.66,West,278,0.0,0.0,70,0.00,,,0.00,157.00,VWS V14.01,2013-03-01 14:36:00,
2013-03-01 09:37:00,33.8,25.4,29.66,SW,219,0.0,0.0,71,0.00,,,0.00,143.00,VWS V14.01,2013-03-01 14:37:00,
2013-03-01 09:38:00,33.8,25.1,29.66,West,261,0.0,0.0,70,0.00,,,0.00,151.00,VWS V14.01,2013-03-01 14:38:00,
2013-03-01 09:39:00,33.8,25.1,29.66,SW,234,0.0,0.0,70,0.00,,,0.00,151.00,VWS V14.01,2013-03-01 14:39:00,
2013-03-01 09:40:00,34.0,25.6,29.66,SW,234,0.0,0.0,71,0.00,,,0.00,151.00,VWS V14.01,2013-03-01 14:40:00,
2013-03-01 09:41:00,34.0,25.6,29.66,South,171,0.0,0.0,71,0.00,,,0.00,153.00,VWS V14.01,2013-03-01 14:41:00,
2013-03-01 09:42:00,34.0,25.6,29.66,South,185,0.0,0.0,71,0.00,,,0.00,151.00,VWS V14.01,2013-03-01 14:42:00,
2013-03-01 09:43:00,33.8,25.1,29.66,West,261,0.0,0.0,70,0.00,,,0.00,151.00,VWS V14.01,2013-03-01 14:43:00,
2013-03-01 09:44:00,34.0,25.3,29.66,SW,227,0.0,0.0,70,0.00,,,0.00,137.00,VWS V14.01,2013-03-01 14:44:00,
2013-03-01 09:45:00,34.1,25.4,29.67,SSE,162,0.0,0.0,70,0.00,,,0.00,141.00,VWS V14.01,2013-03-01 14:45:00,
2013-03-01 09:46:00,34.1,25.4,29.67,WNW,282,0.0,0.0,70,0.00,,,0.00,137.00,VWS V14.01,2013-03-01 14:46:00,
2013-03-01 09:47:00,34.1,25.4,29.67,SW,217,0.0,0.0,70,0.00,,,0.00,128.00,VWS V14.01,2013-03-01 14:47:00,
2013-03-01 09:48:00,34.0,25.3,29.66,South,182,0.0,0.0,70,0.00,,,0.00,143.00,VWS V14.01,2013-03-01 14:48:00,
2013-03-01 09:49:00,34.1,25.0,29.67,West,265,0.0,0.0,69,0.00,,,0.00,109.00,VWS V14.01,2013-03-01 14:49:00,
2013-03-01 09:50:00,34.1,25.0,29.67,West,270,0.0,0.0,69,0.00,,,0.00,107.00,VWS V14.01,2013-03-01 14:50:00,
2013-03-01 09:51:00,34.1,25.0,29.67,WSW,258,0.0,0.0,69,0.00,,,0.00,104.00,VWS V14.01,2013-03-01 14:51:00,
2013-03-01 09:52:00,34.1,25.0,29.67,West,260,0.0,0.0,69,0.00,,,0.00,99.00,VWS V14.01,2013-03-01 14:52:00,
2013-03-01 09:53:00,34.1,25.4,29.67,WSW,258,0.0,0.0,70,0.00,,,0.00,118.00,VWS V14.01,2013-03-01 14:53:00,
2013-03-01 09:54:00,34.0,24.9,29.67,SSW,212,0.0,0.0,69,0.00,,,0.00,95.00,VWS V14.01,2013-03-01 14:54:00,
2013-03-01 09:55:00,34.0,24.9,29.67,WSW,239,0.0,0.0,69,0.01,,,0.01,113.00,VWS V14.01,2013-03-01 14:55:00,
2013-03-01 09:56:00,34.0,25.3,29.67,SW,222,0.0,0.0,70,0.01,,,0.01,118.00,VWS V14.01,2013-03-01 14:56:00,
2013-03-01 09:57:00,34.0,25.3,29.67,West,263,0.0,0.0,70,0.01,,,0.01,120.00,VWS V14.01,2013-03-01 14:57:00,
2013-03-01 09:58:00,34.0,24.9,29.67,West,261,0.0,0.0,69,0.01,,,0.01,125.00,VWS V14.01,2013-03-01 14:58:00,
2013-03-01 09:59:00,34.0,25.3,29.67,West,268,0.0,0.0,70,0.01,,,0.01,134.00,VWS V14.01,2013-03-01 14:59:00,
2013-03-01 10:00:00,34.0,24.9,29.67,SSW,212,0.0,0.0,69,0.00,,,0.00,95.00,VWS V14.01,2013-03-01 15:00:00,
2013-03-01 10:01:00,33.8,25.1,29.67,SW,232,0.0,0.0,70,0.01,,,0.01,162.00,VWS V14.01,2013-03-01 15:01:00,
2013-03-01 10:02:00,33.8,25.1,29.67,WSW,243,0.0,0.0,70,0.01,,,0.01,153.00,VWS V14.01,2013-03-01 15:02:00,
2013-03-01 10:03:00,33.8,24.7,29.67,WSW,256,0.0,0.0,69,0.01,,,0.01,139.00,VWS V14.01,2013-03-01 15:03:00,
2013-03-01 10:04:00,33.8,25.1,29.67,WSW,257,0.0,0.0,70,0.01,,,0.01,130.00,VWS V14.01,2013-03-01 15:04:00,
2013-03-01 10:05:00,34.0,25.3,29.67,West,263,0.0,0.0,70,0.01,,,0.01,160.00,VWS V14.01,2013-03-01 15:05:00,
2013-03-01 10:06:00,33.8,25.1,29.67,SW,233,0.0,0.0,70,0.01,,,0.01,118.00,VWS V14.01,2013-03-01 15:06:00,
2013-03-01 10:08:00,34.0,25.6,29.67,SSW,205,0.0,0.0,71,0.01,,,0.01,134.00,VWS V14.01,2013-03-01 15:08:00,
2013-03-01 10:09:00,34.0,25.6,29.67,SSW,205,0.0,0.0,71,0.01,,,0.01,157.00,VWS V14.01,2013-03-01 15:09:00,
2013-03-01 10:10:00,33.8,25.1,29.67,SW,229,0.0,0.0,70,0.01,,,0.01,118.00,VWS V14.01,2013-03-01 15:10:00,
2013-03-01 10:11:00,34.1,25.4,29.67,West,268,0.0,0.0,70,0.01,,,0.01,185.00,VWS V14.01,2013-03-01 15:11:00,
2013-03-01 10:12:00,34.1,25.4,29.67,WSW,241,0.0,0.0,70,0.01,,,0.01,181.00,VWS V14.01,2013-03-01 15:12:00,
2013-03-01 10:13:00,34.3,25.5,29.67,WNW,295,0.0,0.0,70,0.01,,,0.01,172.00,VWS V14.01,2013-03-01 15:13:00,
2013-03-01 10:14:00,34.3,25.9,29.67,SSW,206,0.0,0.0,71,0.01,,,0.01,172.00,VWS V14.01,2013-03-01 15:14:00,
2013-03-01 10:15:00,34.3,25.5,29.67,WNW,289,0.0,0.0,70,0.01,,,0.01,165.00,VWS V14.01,2013-03-01 15:15:00,
2013-03-01 10:16:00,34.1,25.4,29.67,West,268,0.0,0.0,70,0.01,,,0.01,185.00,VWS V14.01,2013-03-01 15:16:00,
2013-03-01 10:17:00,34.3,25.2,29.67,WNW,288,0.0,0.0,69,0.01,,,0.01,165.00,VWS V14.01,2013-03-01 15:17:00,
2013-03-01 10:18:00,34.3,25.2,29.67,West,271,0.0,0.0,69,0.01,,,0.01,183.00,VWS V14.01,2013-03-01 15:18:00,
2013-03-01 10:19:00,34.3,25.2,29.67,SW,229,0.0,0.0,69,0.01,,,0.01,216.00,VWS V14.01,2013-03-01 15:19:00,
2013-03-01 10:20:00,34.3,25.2,29.67,West,278,0.0,0.0,69,0.01,,,0.01,262.00,VWS V14.01,2013-03-01 15:20:00,
2013-03-01 10:21:00,34.3,25.5,29.67,NW,322,0.0,0.0,70,0.01,,,0.01,160.00,VWS V14.01,2013-03-01 15:21:00,
2013-03-01 10:22:00,34.3,25.2,29.67,West,261,0.0,0.0,69,0.01,,,0.01,246.00,VWS V14.01,2013-03-01 15:22:00,
2013-03-01 10:23:00,34.4,25.3,29.67,South,172,0.0,0.0,69,0.01,,,0.01,229.00,VWS V14.01,2013-03-01 15:23:00,
2013-03-01 10:24:00,34.4,25.3,29.67,WSW,253,0.0,0.0,69,0.01,,,0.01,178.00,VWS V14.01,2013-03-01 15:24:00,
2013-03-01 10:25:00,34.4,25.3,29.67,West,263,0.0,0.0,69,0.01,,,0.01,162.00,VWS V14.01,2013-03-01 15:25:00,
2013-03-01 10:26:00,34.4,25.3,29.67,West,265,0.0,0.0,69,0.01,,,0.01,164.00,VWS V14.01,2013-03-01 15:26:00,
2013-03-01 10:27:00,34.3,25.2,29.67,West,261,0.0,0.0,69,0.01,,,0.01,246.00,VWS V14.01,2013-03-01 15:27:00,
2013-03-01 10:28:00,34.4,25.3,29.67,WSW,243,0.0,0.0,69,0.01,,,0.01,167.00,VWS V14.01,2013-03-01 15:28:00,
2013-03-01 10:29:00,34.4,25.3,29.67,SSW,210,0.0,0.0,69,0.01,,,0.01,167.00,VWS V14.01,2013-03-01 15:29:00,
2013-03-01 10:30:00,34.4,25.3,29.67,West,272,0.0,0.0,69,0.01,,,0.01,179.00,VWS V14.01,2013-03-01 15:30:00,
2013-03-01 10:31:00,34.4,25.3,29.67,WNW,289,0.0,0.0,69,0.01,,,0.01,185.00,VWS V14.01,2013-03-01 15:31:00,
2013-03-01 10:32:00,34.4,25.0,29.67,WSW,254,0.0,0.0,68,0.01,,,0.01,178.00,VWS V14.01,2013-03-01 15:32:00,
2013-03-01 10:33:00,34.4,25.3,29.67,WSW,243,0.0,0.0,69,0.01,,,0.01,167.00,VWS V14.01,2013-03-01 15:33:00,
2013-03-01 10:34:00,34.6,25.5,29.67,West,278,0.0,0.0,69,0.01,,,0.01,169.00,VWS V14.01,2013-03-01 15:34:00,
2013-03-01 10:35:00,34.6,25.5,29.67,WSW,251,0.0,0.0,69,0.01,,,0.01,181.00,VWS V14.01,2013-03-01 15:35:00,
2013-03-01 10:36:00,34.6,25.5,29.67,WSW,244,0.0,0.0,69,0.01,,,0.01,181.00,VWS V14.01,2013-03-01 15:36:00,
2013-03-01 10:37:00,34.6,25.5,29.67,SW,229,0.0,0.0,69,0.01,,,0.01,188.00,VWS V14.01,2013-03-01 15:37:00,
2013-03-01 10:38:00,34.7,25.6,29.67,SW,229,0.0,0.0,69,0.01,,,0.01,204.00,VWS V14.01,2013-03-01 15:38:00,
2013-03-01 10:39:00,34.6,25.5,29.67,West,278,0.0,0.0,69,0.01,,,0.01,169.00,VWS V14.01,2013-03-01 15:39:00,
2013-03-01 10:40:00,34.7,25.2,29.67,WSW,243,0.0,0.0,68,0.01,,,0.01,216.00,VWS V14.01,2013-03-01 15:40:00,
2013-03-01 10:41:00,34.7,25.2,29.67,SW,222,0.0,0.0,68,0.01,,,0.01,187.00,VWS V14.01,2013-03-01 15:41:00,
2013-03-01 10:42:00,34.7,25.2,29.67,NW,304,0.0,0.0,68,0.01,,,0.01,176.00,VWS V14.01,2013-03-01 15:42:00,
2013-03-01 10:43:00,34.7,25.2,29.67,West,261,0.0,0.0,68,0.01,,,0.01,188.00,VWS V14.01,2013-03-01 15:43:00,
2013-03-01 10:44:00,34.7,25.6,29.67,South,179,0.0,0.0,69,0.01,,,0.01,216.00,VWS V14.01,2013-03-01 15:44:00,
2013-03-01 10:45:00,34.7,24.9,29.66,WNW,301,0.0,0.0,67,0.01,,,0.01,245.00,VWS V14.01,2013-03-01 15:45:00,
2013-03-01 10:46:00,34.7,24.9,29.66,WSW,237,0.0,0.0,67,0.01,,,0.01,266.00,VWS V14.01,2013-03-01 15:46:00,
2013-03-01 10:47:00,34.7,24.9,29.66,West,260,0.0,0.0,67,0.01,,,0.01,280.00,VWS V14.01,2013-03-01 15:47:00,
2013-03-01 10:48:00,34.9,25.1,29.66,WSW,258,0.0,0.0,67,0.01,,,0.01,280.00,VWS V14.01,2013-03-01 15:48:00,
2013-03-01 10:49:00,34.9,25.4,29.66,WSW,240,0.0,0.0,68,0.01,,,0.01,267.00,VWS V14.01,2013-03-01 15:49:00,
2013-03-01 10:50:00,34.7,24.9,29.66,WNW,301,0.0,0.0,67,0.01,,,0.01,245.00,VWS V14.01,2013-03-01 15:50:00,
2013-03-01 10:51:00,34.9,24.7,29.66,West,268,0.0,0.0,66,0.01,,,0.01,297.00,VWS V14.01,2013-03-01 15:51:00,
2013-03-01 10:52:00,34.9,24.7,29.66,WSW,239,0.0,0.0,66,0.01,,,0.01,317.00,VWS V14.01,2013-03-01 15:52:00,
2013-03-01 10:53:00,35.0,24.8,29.66,NNW,333,0.0,0.0,66,0.01,,,0.01,308.00,VWS V14.01,2013-03-01 15:53:00,
2013-03-01 10:54:00,35.0,24.8,29.66,WNW,292,0.0,0.0,66,0.01,,,0.01,287.00,VWS V14.01,2013-03-01 15:54:00,
2013-03-01 10:55:00,34.9,25.1,29.66,West,272,0.0,0.0,67,0.01,,,0.01,274.00,VWS V14.01,2013-03-01 15:55:00,
2013-03-01 10:56:00,35.2,25.0,29.66,SW,232,0.0,0.0,66,0.00,,,0.01,223.00,VWS V14.01,2013-03-01 15:56:00,
2013-03-01 10:57:00,35.2,25.0,29.66,WSW,243,0.0,0.0,66,0.00,,,0.01,215.00,VWS V14.01,2013-03-01 15:57:00,
2013-03-01 10:58:00,35.3,25.1,29.66,SSW,213,0.0,0.0,66,0.00,,,0.01,201.00,VWS V14.01,2013-03-01 15:58:00,
2013-03-01 10:59:00,35.3,24.7,29.66,WNW,291,0.0,0.0,65,0.00,,,0.01,192.00,VWS V14.01,2013-03-01 15:59:00,
2013-03-01 11:00:00,35.2,25.0,29.66,SW,234,0.0,0.0,66,0.01,,,0.01,234.00,VWS V14.01,2013-03-01 16:00:00,
2013-03-01 11:01:00,35.3,24.4,29.66,South,191,0.0,0.0,64,0.00,,,0.01,174.00,VWS V14.01,2013-03-01 16:01:00,
2013-03-01 11:02:00,35.3,24.4,29.66,WSW,258,0.0,0.0,64,0.00,,,0.01,169.00,VWS V14.01,2013-03-01 16:02:00,
2013-03-01 11:03:00,35.3,24.4,29.66,WSW,253,0.0,0.0,64,0.00,,,0.01,162.00,VWS V14.01,2013-03-01 16:03:00,
2013-03-01 11:04:00,35.3,24.0,29.66,WSW,254,0.0,0.0,63,0.00,,,0.01,153.00,VWS V14.01,2013-03-01 16:04:00,
2013-03-01 11:05:00,35.3,24.4,29.66,WNW,294,0.0,0.0,64,0.00,,,0.01,179.00,VWS V14.01,2013-03-01 16:05:00,
2013-03-01 11:06:00,35.3,24.0,29.66,SW,224,0.0,0.0,63,0.00,,,0.01,160.00,VWS V14.01,2013-03-01 16:06:00,
2013-03-01 11:07:00,35.3,24.0,29.66,WNW,294,0.0,0.0,63,0.00,,,0.01,169.00,VWS V14.01,2013-03-01 16:07:00,
2013-03-01 11:08:00,35.3,24.4,29.66,West,275,0.0,0.0,64,0.00,,,0.01,181.00,VWS V14.01,2013-03-01 16:08:00,
2013-03-01 11:09:00,35.3,24.0,29.66,West,265,0.0,0.0,63,0.00,,,0.01,197.00,VWS V14.01,2013-03-01 16:09:00,
2013-03-01 11:10:00,35.3,24.0,29.66,WSW,257,0.0,0.0,63,0.00,,,0.01,150.00,VWS V14.01,2013-03-01 16:10:00,
2013-03-01 11:11:00,35.2,23.5,29.66,West,274,0.0,0.0,62,0.00,,,0.01,278.00,VWS V14.01,2013-03-01 16:11:00,
2013-03-01 11:12:00,35.2,23.5,29.66,West,267,0.0,0.0,62,0.00,,,0.01,296.00,VWS V14.01,2013-03-01 16:12:00,
2013-03-01 11:13:00,35.0,23.3,29.66,SW,217,0.0,0.0,62,0.00,,,0.01,315.00,VWS V14.01,2013-03-01 16:13:00,
2013-03-01 11:14:00,35.0,23.3,29.66,WSW,248,0.0,0.0,62,0.00,,,0.01,329.00,VWS V14.01,2013-03-01 16:14:00,
2013-03-01 11:15:00,35.2,23.5,29.66,WNW,282,0.0,0.0,62,0.00,,,0.01,257.00,VWS V14.01,2013-03-01 16:15:00,
2013-03-01 11:16:00,35.2,23.5,29.66,WNW,292,0.0,0.0,62,0.00,,,0.01,310.00,VWS V14.01,2013-03-01 16:16:00,
2013-03-01 11:17:00,35.2,23.5,29.66,WNW,295,0.0,0.0,62,0.00,,,0.01,311.00,VWS V14.01,2013-03-01 16:17:00,
2013-03-01 11:18:00,35.2,23.5,29.66,WNW,292,0.0,0.0,62,0.00,,,0.01,318.00,VWS V14.01,2013-03-01 16:18:00,
2013-03-01 11:19:00,35.3,23.6,29.66,West,264,0.0,0.0,62,0.00,,,0.01,303.00,VWS V14.01,2013-03-01 16:19:00,
2013-03-01 11:20:00,35.2,23.5,29.66,WSW,247,0.0,0.0,62,0.00,,,0.01,320.00,VWS V14.01,2013-03-01 16:20:00,
2013-03-01 11:21:00,35.5,24.2,29.66,West,280,0.0,0.0,63,0.00,,,0.01,243.00,VWS V14.01,2013-03-01 16:21:00,
2013-03-01 11:22:00,35.5,24.2,29.66,SW,226,0.0,0.0,63,0.00,,,0.01,208.00,VWS V14.01,2013-03-01 16:22:00,
2013-03-01 11:23:00,35.5,24.2,29.66,WNW,288,0.0,0.0,63,0.00,,,0.01,204.00,VWS V14.01,2013-03-01 16:23:00,
2013-03-01 11:24:00,35.5,23.8,29.66,West,281,0.0,0.0,62,0.00,,,0.01,202.00,VWS V14.01,2013-03-01 16:24:00,
2013-03-01 11:25:00,35.5,23.8,29.66,WNW,284,0.0,0.0,62,0.00,,,0.01,199.00,VWS V14.01,2013-03-01 16:25:00,
2013-03-01 11:26:00,35.5,24.2,29.66,West,280,0.0,0.0,63,0.00,,,0.01,243.00,VWS V14.01,2013-03-01 16:26:00,
2013-03-01 11:27:00,35.5,23.8,29.66,WNW,288,0.0,0.0,62,0.00,,,0.01,199.00,VWS V14.01,2013-03-01 16:27:00,
2013-03-01 11:28:00,35.3,23.6,29.66,WNW,292,0.0,0.0,62,0.00,,,0.01,199.00,VWS V14.01,2013-03-01 16:28:00,
2013-03-01 11:29:00,35.3,23.6,29.66,West,274,0.0,0.0,62,0.00,,,0.01,197.00,VWS V14.01,2013-03-01 16:29:00,
2013-03-01 11:30:00,35.3,23.6,29.67,West,272,0.0,0.0,62,0.00,,,0.01,192.00,VWS V14.01,2013-03-01 16:30:00,
2013-03-01 11:31:00,35.5,23.8,29.66,West,278,0.0,0.0,62,0.00,,,0.01,201.00,VWS V14.01,2013-03-01 16:31:00,
2013-03-01 11:32:00,35.3,23.6,29.67,WNW,291,0.0,0.0,62,0.00,,,0.01,201.00,VWS V14.01,2013-03-01 16:32:00,
2013-03-01 11:33:00,35.3,23.6,29.67,WNW,282,0.0,0.0,62,0.00,,,0.01,208.00,VWS V14.01,2013-03-01 16:33:00,
2013-03-01 11:34:00,35.3,23.6,29.67,West,278,0.0,0.0,62,0.00,,,0.01,216.00,VWS V14.01,2013-03-01 16:34:00,
2013-03-01 11:35:00,35.3,23.6,29.67,West,275,0.0,0.0,62,0.00,,,0.01,229.00,VWS V14.01,2013-03-01 16:35:00,
2013-03-01 11:36:00,35.2,23.5,29.67,West,271,0.0,0.0,62,0.00,,,0.01,192.00,VWS V14.01,2013-03-01 16:36:00,
2013-03-01 11:37:00,35.3,23.2,29.67,West,270,0.0,0.0,61,0.00,,,0.01,252.00,VWS V14.01,2013-03-01 16:37:00,
2013-03-01 11:38:00,35.3,23.6,29.67,West,264,0.0,0.0,62,0.00,,,0.01,255.00,VWS V14.01,2013-03-01 16:38:00,
2013-03-01 11:39:00,35.3,23.6,29.67,WSW,256,0.0,0.0,62,0.00,,,0.01,246.00,VWS V14.01,2013-03-01 16:39:00,
2013-03-01 11:40:00,35.3,23.6,29.67,West,267,0.0,0.0,62,0.00,,,0.01,208.00,VWS V14.01,2013-03-01 16:40:00,
2013-03-01 11:41:00,35.5,23.8,29.67,WSW,256,0.0,0.0,62,0.00,,,0.01,199.00,VWS V14.01,2013-03-01 16:41:00,
2013-03-01 11:42:00,35.3,23.2,29.67,West,270,0.0,0.0,61,0.00,,,0.01,252.00,VWS V14.01,2013-03-01 16:42:00,
2013-03-01 11:43:00,35.5,23.8,29.67,WSW,257,0.0,0.0,62,0.00,,,0.01,206.00,VWS V14.01,2013-03-01 16:43:00,
2013-03-01 11:44:00,35.5,23.8,29.67,West,272,0.0,0.0,62,0.00,,,0.01,211.00,VWS V14.01,2013-03-01 16:44:00,
2013-03-01 11:45:00,35.6,23.9,29.67,WSW,239,0.0,0.0,62,0.00,,,0.01,236.00,VWS V14.01,2013-03-01 16:45:00,
2013-03-01 11:46:00,35.6,23.9,29.67,WSW,257,0.0,0.0,62,0.00,,,0.01,252.00,VWS V14.01,2013-03-01 16:46:00,
2013-03-01 11:47:00,35.8,24.1,29.67,SW,223,0.0,0.0,62,0.00,,,0.01,264.00,VWS V14.01,2013-03-01 16:47:00,
2013-03-01 11:48:00,35.5,23.8,29.67,WSW,257,0.0,0.0,62,0.00,,,0.01,206.00,VWS V14.01,2013-03-01 16:48:00,
2013-03-01 11:49:00,35.9,24.2,29.67,SSW,212,0.0,0.0,62,0.00,,,0.01,273.00,VWS V14.01,2013-03-01 16:49:00,
2013-03-01 11:50:00,36.0,24.3,29.67,SSW,196,0.0,0.0,62,0.00,,,0.01,230.00,VWS V14.01,2013-03-01 16:50:00,
2013-03-01 11:51:00,36.0,24.3,29.67,WSW,243,0.0,0.0,62,0.00,,,0.01,234.00,VWS V14.01,2013-03-01 16:51:00,
2013-03-01 11:52:00,36.0,24.3,29.67,SSE,158,0.0,0.0,62,0.00,,,0.01,243.00,VWS V14.01,2013-03-01 16:52:00,
2013-03-01 11:53:00,35.9,24.5,29.67,South,174,0.0,0.0,63,0.00,,,0.01,273.00,VWS V14.01,2013-03-01 16:53:00,
2013-03-01 11:54:00,36.2,24.5,29.67,West,272,0.0,0.0,62,0.00,,,0.01,252.00,VWS V14.01,2013-03-01 16:54:00,
2013-03-01 11:55:00,36.3,24.5,29.67,West,267,0.0,0.0,62,0.00,,,0.01,266.00,VWS V14.01,2013-03-01 16:55:00,
2013-03-01 11:56:00,36.3,24.2,29.67,West,261,0.0,0.0,61,0.00,,,0.01,255.00,VWS V14.01,2013-03-01 16:56:00,
2013-03-01 11:57:00,36.3,23.8,29.67,WNW,282,0.0,0.0,60,0.00,,,0.01,241.00,VWS V14.01,2013-03-01 16:57:00,
2013-03-01 11:58:00,36.2,24.5,29.67,South,185,0.0,0.0,62,0.00,,,0.01,248.00,VWS V14.01,2013-03-01 16:58:00,
2013-03-01 11:59:00,36.2,23.7,29.67,SW,236,0.0,0.0,60,0.00,,,0.01,225.00,VWS V14.01,2013-03-01 16:59:00,
2013-03-01 12:00:00,36.2,24.5,29.67,West,264,0.0,0.0,62,0.00,,,0.01,241.00,VWS V14.01,2013-03-01 17:00:00,
2013-03-01 12:01:00,36.0,23.9,29.67,West,271,0.0,0.0,61,0.00,,,0.01,245.00,VWS V14.01,2013-03-01 17:01:00,
2013-03-01 12:02:00,36.0,23.9,29.67,SW,226,0.0,0.0,61,0.00,,,0.01,241.00,VWS V14.01,2013-03-01 17:02:00,
2013-03-01 12:03:00,36.0,23.9,29.67,WSW,258,0.0,0.0,61,0.00,,,0.01,236.00,VWS V14.01,2013-03-01 17:03:00,
2013-03-01 12:04:00,36.2,23.7,29.67,SW,236,0.0,0.0,60,0.00,,,0.01,225.00,VWS V14.01,2013-03-01 17:04:00,
2013-03-01 12:05:00,36.0,23.9,29.67,West,263,0.0,0.0,61,0.00,,,0.01,206.00,VWS V14.01,2013-03-01 17:05:00,
2013-03-01 12:06:00,36.0,23.9,29.67,WSW,241,0.0,0.0,61,0.00,,,0.01,206.00,VWS V14.01,2013-03-01 17:06:00,
2013-03-01 12:07:00,36.0,23.9,29.67,West,267,0.0,0.0,61,0.00,,,0.01,215.00,VWS V14.01,2013-03-01 17:07:00,
2013-03-01 12:08:00,35.9,23.8,29.67,West,263,0.0,0.0,61,0.00,,,0.01,222.00,VWS V14.01,2013-03-01 17:08:00,
2013-03-01 12:09:00,36.0,23.9,29.67,West,275,0.0,0.0,61,0.00,,,0.01,213.00,VWS V14.01,2013-03-01 17:09:00,
2013-03-01 12:10:00,35.9,23.8,29.67,WNW,287,0.0,0.0,61,0.00,,,0.01,204.00,VWS V14.01,2013-03-01 17:10:00,
2013-03-01 12:11:00,35.8,23.7,29.67,West,260,0.0,0.0,61,0.00,,,0.01,197.00,VWS V14.01,2013-03-01 17:11:00,
2013-03-01 12:12:00,35.8,23.7,29.67,WSW,250,0.0,0.0,61,0.00,,,0.01,188.00,VWS V14.01,2013-03-01 17:12:00,
2013-03-01 12:13:00,35.8,24.1,29.67,West,280,0.0,0.0,62,0.00,,,0.01,179.00,VWS V14.01,2013-03-01 17:13:00,
2013-03-01 12:14:00,35.8,24.1,29.67,WSW,239,0.0,0.0,62,0.00,,,0.01,183.00,VWS V14.01,2013-03-01 17:14:00,
2013-03-01 12:15:00,35.9,23.8,29.67,WNW,287,0.0,0.0,61,0.00,,,0.01,204.00,VWS V14.01,2013-03-01 17:15:00,
2013-03-01 12:16:00,35.8,24.1,29.66,WSW,247,0.0,0.0,62,0.00,,,0.01,197.00,VWS V14.01,2013-03-01 17:16:00,
2013-03-01 12:17:00,35.8,24.1,29.66,West,270,0.0,0.0,62,0.00,,,0.01,197.00,VWS V14.01,2013-03-01 17:17:00,
2013-03-01 12:18:00,35.8,24.1,29.66,NW,309,0.0,0.0,62,0.00,,,0.01,202.00,VWS V14.01,2013-03-01 17:18:00,
2013-03-01 12:19:00,35.8,24.1,29.66,WSW,258,0.0,0.0,62,0.00,,,0.01,216.00,VWS V14.01,2013-03-01 17:19:00,
2013-03-01 12:20:00,35.8,24.1,29.66,SW,232,0.0,0.0,62,0.00,,,0.01,259.00,VWS V14.01,2013-03-01 17:20:00,
2013-03-01 12:21:00,35.8,24.1,29.66,WSW,247,0.0,0.0,62,0.00,,,0.01,197.00,VWS V14.01,2013-03-01 17:21:00,
2013-03-01 12:22:00,35.9,24.2,29.66,WSW,243,0.0,0.0,62,0.00,,,0.01,290.00,VWS V14.01,2013-03-01 17:22:00,
2013-03-01 12:23:00,35.9,24.2,29.66,West,270,0.0,0.0,62,0.00,,,0.01,289.00,VWS V14.01,2013-03-01 17:23:00,
2013-03-01 12:24:00,35.9,24.2,29.66,West,271,0.0,0.0,62,0.00,,,0.01,278.00,VWS V14.01,2013-03-01 17:24:00,
2013-03-01 12:25:00,35.9,24.2,29.66,West,278,0.0,0.0,62,0.00,,,0.01,253.00,VWS V14.01,2013-03-01 17:25:00,
2013-03-01 12:26:00,35.8,24.1,29.66,West,270,0.0,0.0,62,0.00,,,0.01,280.00,VWS V14.01,2013-03-01 17:26:00,
2013-03-01 12:27:00,36.0,23.9,29.66,West,264,0.0,0.0,61,0.00,,,0.01,232.00,VWS V14.01,2013-03-01 17:27:00,
2013-03-01 12:28:00,36.0,23.9,29.66,SSW,210,0.0,0.0,61,0.00,,,0.01,185.00,VWS V14.01,2013-03-01 17:28:00,
2013-03-01 12:29:00,36.2,24.5,29.66,WSW,246,0.0,0.0,62,0.00,,,0.01,171.00,VWS V14.01,2013-03-01 17:29:00,
2013-03-01 12:30:00,36.2,24.5,29.66,WSW,250,0.0,0.0,62,0.00,,,0.01,158.00,VWS V14.01,2013-03-01 17:30:00,
2013-03-01 12:31:00,36.3,24.5,29.66,WSW,243,0.0,0.0,62,0.00,,,0.01,153.00,VWS V14.01,2013-03-01 17:31:00,
2013-03-01 12:32:00,36.0,23.9,29.66,West,264,0.0,0.0,61,0.00,,,0.01,232.00,VWS V14.01,2013-03-01 17:32:00,
2013-03-01 12:33:00,36.3,24.2,29.66,West,265,0.0,0.0,61,0.00,,,0.01,143.00,VWS V14.01,2013-03-01 17:33:00,
2013-03-01 12:34:00,36.3,24.2,29.66,WSW,246,0.0,0.0,61,0.00,,,0.01,139.00,VWS V14.01,2013-03-01 17:34:00,
2013-03-01 12:35:00,36.2,24.1,29.66,SW,227,0.0,0.0,61,0.00,,,0.01,132.00,VWS V14.01,2013-03-01 17:35:00,
2013-03-01 12:36:00,36.2,24.1,29.66,WSW,254,0.0,0.0,61,0.00,,,0.01,130.00,VWS V14.01,2013-03-01 17:36:00,
2013-03-01 12:37:00,36.2,24.1,29.66,West,261,0.0,0.0,61,0.00,,,0.01,128.00,VWS V14.01,2013-03-01 17:37:00,
2013-03-01 12:38:00,36.3,24.1,29.66,West,265,0.0,0.0,61,0.00,,,0.01,143.00,VWS V14.01,2013-03-01 17:38:00,
2013-03-01 12:39:00,36.2,24.1,29.66,SW,224,0.0,0.0,61,0.00,,,0.01,123.00,VWS V14.01,2013-03-01 17:39:00,
2013-03-01 12:40:00,36.2,24.1,29.66,WSW,248,0.0,0.0,61,0.00,,,0.01,120.00,VWS V14.01,2013-03-01 17:40:00,
2013-03-01 12:41:00,36.0,24.3,29.66,West,272,0.0,0.0,62,0.00,,,0.01,118.00,VWS V14.01,2013-03-01 17:41:00,
2013-03-01 12:42:00,36.0,24.3,29.66,WSW,254,0.0,0.0,62,0.00,,,0.01,114.00,VWS V14.01,2013-03-01 17:42:00,
2013-03-01 12:43:00,36.0,24.3,29.66,West,263,0.0,0.0,62,0.00,,,0.01,111.00,VWS V14.01,2013-03-01 17:43:00,
2013-03-01 12:44:00,36.2,24.1,29.66,SW,224,0.0,0.0,61,0.00,,,0.01,123.00,VWS V14.01,2013-03-01 17:44:00,
2013-03-01 12:45:00,35.9,24.2,29.66,WSW,247,0.0,0.0,62,0.00,,,0.01,109.00,VWS V14.01,2013-03-01 17:45:00,
2013-03-01 12:46:00,35.9,24.5,29.66,WNW,282,0.0,0.0,63,0.00,,,0.01,109.00,VWS V14.01,2013-03-01 17:46:00,
2013-03-01 12:47:00,35.9,24.5,29.66,WSW,237,0.0,0.0,63,0.00,,,0.01,109.00,VWS V14.01,2013-03-01 17:47:00,
2013-03-01 12:48:00,35.9,24.5,29.66,WSW,251,0.0,0.0,63,0.00,,,0.01,109.00,VWS V14.01,2013-03-01 17:48:00,
2013-03-01 12:49:00,35.9,24.2,29.66,WNW,285,0.0,0.0,62,0.00,,,0.01,111.00,VWS V14.01,2013-03-01 17:49:00,
2013-03-01 12:50:00,35.8,24.5,29.66,WNW,288,0.0,0.0,63,0.00,,,0.01,113.00,VWS V14.01,2013-03-01 17:50:00,
2013-03-01 12:51:00,35.6,24.3,29.66,WNW,291,0.0,0.0,63,0.00,,,0.01,114.00,VWS V14.01,2013-03-01 17:51:00,
2013-03-01 12:52:00,35.5,24.5,29.66,SW,223,0.0,0.0,64,0.00,,,0.01,116.00,VWS V14.01,2013-03-01 17:52:00,
2013-03-01 12:53:00,35.5,24.5,29.66,WNW,291,0.0,0.0,64,0.00,,,0.01,114.00,VWS V14.01,2013-03-01 17:53:00,
2013-03-01 12:54:00,35.5,24.9,29.66,NNW,328,0.0,0.0,65,0.00,,,0.01,113.00,VWS V14.01,2013-03-01 17:54:00,
2013-03-01 12:55:00,35.8,24.5,29.66,WNW,288,0.0,0.0,63,0.00,,,0.01,113.00,VWS V14.01,2013-03-01 17:55:00,
2013-03-01 12:56:00,35.3,24.7,29.66,WSW,256,0.0,0.0,65,0.00,,,0.01,106.00,VWS V14.01,2013-03-01 17:56:00,
2013-03-01 12:57:00,35.2,24.6,29.66,NW,304,0.0,0.0,65,0.00,,,0.01,102.00,VWS V14.01,2013-03-01 17:57:00,
2013-03-01 12:58:00,35.0,24.4,29.66,WNW,288,0.0,0.0,65,0.00,,,0.01,99.00,VWS V14.01,2013-03-01 17:58:00,
2013-03-01 12:59:00,35.0,24.4,29.66,WNW,295,0.0,0.0,65,0.00,,,0.01,99.00,VWS V14.01,2013-03-01 17:59:00,
2013-03-01 13:00:00,35.5,24.9,29.66,WNW,288,0.0,0.0,65,0.00,,,0.01,109.00,VWS V14.01,2013-03-01 18:00:00,
2013-03-01 13:01:00,34.9,24.3,29.66,West,264,0.0,0.0,65,0.00,,,0.01,99.00,VWS V14.01,2013-03-01 18:01:00,
2013-03-01 13:02:00,34.9,24.7,29.66,NW,304,0.0,0.0,66,0.00,,,0.01,99.00,VWS V14.01,2013-03-01 18:02:00,
2013-03-01 13:03:00,34.7,24.5,29.66,NW,309,0.0,0.0,66,0.00,,,0.01,99.00,VWS V14.01,2013-03-01 18:03:00,
2013-03-01 13:04:00,34.7,24.5,29.66,West,268,0.0,0.0,66,0.00,,,0.01,97.00,VWS V14.01,2013-03-01 18:04:00,
2013-03-01 13:05:00,34.7,24.5,29.66,West,274,0.0,0.0,66,0.00,,,0.01,99.00,VWS V14.01,2013-03-01 18:05:00,
2013-03-01 13:06:00,34.9,24.3,29.66,West,264,0.0,0.0,65,0.00,,,0.01,99.00,VWS V14.01,2013-03-01 18:06:00,
2013-03-01 13:07:00,34.6,24.4,29.66,WSW,250,0.0,0.0,66,0.00,,,0.01,102.00,VWS V14.01,2013-03-01 18:07:00,
2013-03-01 13:08:00,34.6,24.4,29.66,WSW,240,0.0,0.0,66,0.00,,,0.01,107.00,VWS V14.01,2013-03-01 18:08:00,
2013-03-01 13:09:00,34.6,24.4,29.66,WSW,254,0.0,0.0,66,0.00,,,0.01,111.00,VWS V14.01,2013-03-01 18:09:00,
2013-03-01 13:10:00,34.4,24.2,29.66,West,277,0.0,0.0,66,0.00,,,0.01,111.00,VWS V14.01,2013-03-01 18:10:00,
2013-03-01 13:11:00,34.4,24.2,29.66,WNW,301,0.0,0.0,66,0.00,,,0.01,118.00,VWS V14.01,2013-03-01 18:11:00,
2013-03-01 13:12:00,34.6,24.4,29.66,WSW,250,0.0,0.0,66,0.00,,,0.01,102.00,VWS V14.01,2013-03-01 18:12:00,
2013-03-01 13:13:00,34.3,24.5,29.66,WSW,258,0.0,0.0,67,0.00,,,0.01,137.00,VWS V14.01,2013-03-01 18:13:00,
2013-03-01 13:14:00,34.3,24.5,29.66,West,270,0.0,0.0,67,0.00,,,0.01,146.00,VWS V14.01,2013-03-01 18:14:00,
2013-03-01 13:15:00,34.3,24.5,29.66,West,272,0.0,0.0,67,0.00,,,0.01,157.00,VWS V14.01,2013-03-01 18:15:00,
2013-03-01 13:16:00,34.3,24.5,29.66,WNW,295,0.0,0.0,67,0.00,,,0.01,158.00,VWS V14.01,2013-03-01 18:16:00,
2013-03-01 13:17:00,34.3,24.5,29.66,NW,305,0.0,0.0,67,0.00,,,0.01,164.00,VWS V14.01,2013-03-01 18:17:00,
2013-03-01 13:18:00,34.3,24.5,29.66,WSW,258,0.0,0.0,67,0.00,,,0.01,137.00,VWS V14.01,2013-03-01 18:18:00,
2013-03-01 13:19:00,34.3,24.5,29.66,West,264,0.0,0.0,67,0.00,,,0.01,178.00,VWS V14.01,2013-03-01 18:19:00,
2013-03-01 13:20:00,34.4,24.6,29.66,NW,305,0.0,0.0,67,0.00,,,0.01,181.00,VWS V14.01,2013-03-01 18:20:00,
2013-03-01 13:21:00,34.4,24.6,29.66,SW,223,0.0,0.0,67,0.00,,,0.01,181.00,VWS V14.01,2013-03-01 18:21:00,
2013-03-01 13:22:00,34.4,24.6,29.66,West,265,0.0,0.0,67,0.00,,,0.01,179.00,VWS V14.01,2013-03-01 18:22:00,
2013-03-01 13:23:00,34.3,24.5,29.66,WNW,287,0.0,0.0,67,0.00,,,0.01,172.00,VWS V14.01,2013-03-01 18:23:00,
2013-03-01 13:24:00,34.6,24.4,29.66,West,281,0.0,0.0,66,0.00,,,0.01,165.00,VWS V14.01,2013-03-01 18:24:00,
2013-03-01 13:25:00,34.6,24.1,29.66,West,274,0.0,0.0,65,0.00,,,0.01,162.00,VWS V14.01,2013-03-01 18:25:00,
2013-03-01 13:26:00,34.6,24.1,29.66,NW,309,0.0,0.0,65,0.00,,,0.01,162.00,VWS V14.01,2013-03-01 18:26:00,
2013-03-01 13:27:00,34.6,24.1,29.66,WNW,295,0.0,0.0,65,0.00,,,0.01,158.00,VWS V14.01,2013-03-01 18:27:00,
2013-03-01 13:28:00,34.6,24.8,29.66,WSW,258,0.0,0.0,67,0.00,,,0.01,172.00,VWS V14.01,2013-03-01 18:28:00,
2013-03-01 13:29:00,34.6,23.7,29.66,WNW,289,0.0,0.0,64,0.00,,,0.01,144.00,VWS V14.01,2013-03-01 18:29:00,
2013-03-01 13:30:00,34.6,23.7,29.65,WSW,254,0.0,0.0,64,0.00,,,0.01,141.00,VWS V14.01,2013-03-01 18:30:00,
2013-03-01 13:31:00,34.6,23.7,29.65,WNW,292,0.0,0.0,64,0.00,,,0.01,134.00,VWS V14.01,2013-03-01 18:31:00,
2013-03-01 13:32:00,34.6,23.7,29.65,WNW,291,0.0,0.0,64,0.00,,,0.01,128.00,VWS V14.01,2013-03-01 18:32:00,
2013-03-01 13:33:00,34.6,24.1,29.66,West,271,0.0,0.0,65,0.00,,,0.01,151.00,VWS V14.01,2013-03-01 18:33:00,
2013-03-01 13:34:00,34.4,23.9,29.65,WNW,284,0.0,0.0,65,0.00,,,0.01,120.00,VWS V14.01,2013-03-01 18:34:00,
2013-03-01 13:35:00,34.4,23.9,29.65,NW,320,0.0,0.0,65,0.00,,,0.01,114.00,VWS V14.01,2013-03-01 18:35:00,
2013-03-01 13:36:00,34.4,23.9,29.65,NW,325,0.0,0.0,65,0.00,,,0.01,113.00,VWS V14.01,2013-03-01 18:36:00,
2013-03-01 13:37:00,34.4,23.9,29.65,West,278,0.0,0.0,65,0.00,,,0.01,111.00,VWS V14.01,2013-03-01 18:37:00,
2013-03-01 13:38:00,34.4,23.9,29.65,WNW,295,0.0,0.0,65,0.00,,,0.01,109.00,VWS V14.01,2013-03-01 18:38:00,
2013-03-01 13:39:00,34.4,23.9,29.65,WNW,284,0.0,0.0,65,0.00,,,0.01,120.00,VWS V14.01,2013-03-01 18:39:00,
2013-03-01 13:40:00,34.4,24.2,29.65,SW,236,0.0,0.0,66,0.00,,,0.01,118.00,VWS V14.01,2013-03-01 18:40:00,
2013-03-01 13:41:00,34.3,24.1,29.65,WNW,284,0.0,0.0,66,0.00,,,0.01,111.00,VWS V14.01,2013-03-01 18:41:00,
2013-03-01 13:42:00,34.3,24.1,29.65,NW,306,0.0,0.0,66,0.00,,,0.01,104.00,VWS V14.01,2013-03-01 18:42:00,
2013-03-01 13:43:00,34.3,24.1,29.65,West,261,0.0,0.0,66,0.00,,,0.01,102.00,VWS V14.01,2013-03-01 18:43:00,
2013-03-01 13:44:00,34.4,24.2,29.65,WNW,289,0.0,0.0,66,0.00,,,0.01,111.00,VWS V14.01,2013-03-01 18:44:00,
2013-03-01 13:45:00,34.3,24.1,29.65,West,268,0.0,0.0,66,0.00,,,0.01,100.00,VWS V14.01,2013-03-01 18:45:00,
2013-03-01 13:46:00,34.1,24.0,29.65,West,275,0.0,0.0,66,0.00,,,0.01,99.00,VWS V14.01,2013-03-01 18:46:00,
2013-03-01 13:47:00,34.1,24.3,29.65,WSW,253,0.0,0.0,67,0.00,,,0.01,100.00,VWS V14.01,2013-03-01 18:47:00,
2013-03-01 13:48:00,34.1,24.3,29.65,West,267,0.0,0.0,67,0.00,,,0.01,100.00,VWS V14.01,2013-03-01 18:48:00,
2013-03-01 13:49:00,34.0,24.2,29.65,NW,311,0.0,0.0,67,0.00,,,0.01,97.00,VWS V14.01,2013-03-01 18:49:00,
2013-03-01 13:50:00,34.3,24.1,29.65,West,268,0.0,0.0,66,0.00,,,0.01,100.00,VWS V14.01,2013-03-01 18:50:00,
2013-03-01 13:51:00,34.0,24.6,29.65,West,267,0.0,0.0,68,0.00,,,0.01,93.00,VWS V14.01,2013-03-01 18:51:00,
2013-03-01 13:52:00,33.8,24.4,29.65,WNW,288,0.0,0.0,68,0.00,,,0.01,95.00,VWS V14.01,2013-03-01 18:52:00,
2013-03-01 13:53:00,33.8,24.4,29.65,WNW,291,0.0,0.0,68,0.00,,,0.01,102.00,VWS V14.01,2013-03-01 18:53:00,
2013-03-01 13:54:00,33.7,24.6,29.65,West,270,0.0,0.0,69,0.00,,,0.01,102.00,VWS V14.01,2013-03-01 18:54:00,
2013-03-01 13:55:00,33.7,24.6,29.65,West,281,0.0,0.0,69,0.00,,,0.01,123.00,VWS V14.01,2013-03-01 18:55:00,
2013-03-01 13:56:00,34.0,24.6,29.65,West,267,0.0,0.0,68,0.00,,,0.01,93.00,VWS V14.01,2013-03-01 18:56:00,
2013-03-01 13:57:00,33.5,24.4,29.65,West,271,0.0,0.0,69,0.00,,,0.01,123.00,VWS V14.01,2013-03-01 18:57:00,
2013-03-01 13:58:00,33.5,24.4,29.65,WNW,292,0.0,0.0,69,0.00,,,0.01,120.00,VWS V14.01,2013-03-01 18:58:00,
2013-03-01 13:59:00,33.5,24.4,29.65,West,268,0.0,0.0,69,0.00,,,0.01,123.00,VWS V14.01,2013-03-01 18:59:00,
2013-03-01 14:00:00,33.5,24.4,29.65,WSW,254,0.0,0.0,69,0.00,,,0.01,146.00,VWS V14.01,2013-03-01 19:00:00,
2013-03-01 14:01:00,33.5,24.4,29.65,West,263,0.0,0.0,69,0.00,,,0.01,123.00,VWS V14.01,2013-03-01 19:01:00,
2013-03-01 14:02:00,33.5,24.4,29.65,West,278,0.0,0.0,69,0.00,,,0.01,151.00,VWS V14.01,2013-03-01 19:02:00,
2013-03-01 14:03:00,33.5,24.8,29.65,WSW,253,0.0,0.0,70,0.00,,,0.01,141.00,VWS V14.01,2013-03-01 19:03:00,
2013-03-01 14:04:00,33.7,24.6,29.65,West,267,0.0,0.0,69,0.00,,,0.01,130.00,VWS V14.01,2013-03-01 19:04:00,
2013-03-01 14:05:00,33.7,24.6,29.65,NW,308,0.0,0.0,69,0.00,,,0.01,121.00,VWS V14.01,2013-03-01 19:05:00,
2013-03-01 14:06:00,33.5,24.4,29.65,WNW,287,0.0,0.0,69,0.00,,,0.01,153.00,VWS V14.01,2013-03-01 19:06:00,
2013-03-01 14:07:00,33.7,24.6,29.65,WSW,250,0.0,0.0,69,0.00,,,0.01,95.00,VWS V14.01,2013-03-01 19:07:00,
2013-03-01 14:08:00,33.7,24.6,29.65,NW,306,0.0,0.0,69,0.00,,,0.01,90.00,VWS V14.01,2013-03-01 19:08:00,
2013-03-01 14:09:00,33.7,24.6,29.65,WSW,244,0.0,0.0,69,0.00,,,0.01,86.00,VWS V14.01,2013-03-01 19:09:00,
2013-03-01 14:10:00,33.7,24.6,29.65,West,268,0.0,0.0,69,0.00,,,0.01,83.00,VWS V14.01,2013-03-01 19:10:00,
2013-03-01 14:11:00,33.7,24.6,29.65,West,267,0.0,0.0,69,0.00,,,0.01,104.00,VWS V14.01,2013-03-01 19:11:00,
2013-03-01 14:12:00,33.7,24.6,29.65,West,275,0.0,0.0,69,0.00,,,0.01,83.00,VWS V14.01,2013-03-01 19:12:00,
2013-03-01 14:13:00,33.7,24.6,29.65,West,268,0.0,0.0,69,0.00,,,0.01,83.00,VWS V14.01,2013-03-01 19:13:00,
2013-03-01 14:14:00,33.7,24.6,29.65,West,272,0.0,0.0,69,0.00,,,0.01,83.00,VWS V14.01,2013-03-01 19:14:00,
2013-03-01 14:15:00,33.7,24.6,29.65,WSW,258,0.0,0.0,69,0.00,,,0.01,81.00,VWS V14.01,2013-03-01 19:15:00,
2013-03-01 14:16:00,33.7,24.6,29.65,West,265,0.0,0.0,69,0.00,,,0.01,83.00,VWS V14.01,2013-03-01 19:16:00,
2013-03-01 14:17:00,33.7,24.6,29.65,West,275,0.0,0.0,69,0.00,,,0.01,83.00,VWS V14.01,2013-03-01 19:17:00,
2013-03-01 14:18:00,33.7,24.6,29.65,WNW,295,0.0,0.0,69,0.00,,,0.01,88.00,VWS V14.01,2013-03-01 19:18:00,
2013-03-01 14:19:00,33.7,24.6,29.65,WNW,294,0.0,0.0,69,0.00,,,0.01,88.00,VWS V14.01,2013-03-01 19:19:00,
2013-03-01 14:20:00,33.5,24.4,29.65,SW,230,0.0,0.0,69,0.00,,,0.01,88.00,VWS V14.01,2013-03-01 19:20:00,
2013-03-01 14:21:00,33.5,24.4,29.65,West,281,0.0,0.0,69,0.00,,,0.01,97.00,VWS V14.01,2013-03-01 19:21:00,
2013-03-01 14:22:00,33.7,24.6,29.65,WSW,244,0.0,0.0,69,0.00,,,0.01,88.00,VWS V14.01,2013-03-01 19:22:00,
2013-03-01 14:23:00,33.5,24.4,29.65,WSW,257,0.0,0.0,69,0.00,,,0.01,99.00,VWS V14.01,2013-03-01 19:23:00,
2013-03-01 14:24:00,33.5,24.4,29.65,West,264,0.0,0.0,69,0.00,,,0.01,95.00,VWS V14.01,2013-03-01 19:24:00,
2013-03-01 14:25:00,33.5,24.4,29.65,WSW,243,0.0,0.0,69,0.00,,,0.01,90.00,VWS V14.01,2013-03-01 19:25:00,
2013-03-01 14:26:00,33.5,24.4,29.65,West,275,0.0,0.0,69,0.00,,,0.01,88.00,VWS V14.01,2013-03-01 19:26:00,
2013-03-01 14:27:00,33.5,24.4,29.65,WSW,253,0.0,0.0,69,0.00,,,0.01,99.00,VWS V14.01,2013-03-01 19:27:00,
2013-03-01 14:28:00,33.5,24.4,29.65,WSW,258,0.0,0.0,69,0.00,,,0.01,81.00,VWS V14.01,2013-03-01 19:28:00,
2013-03-01 14:29:00,33.5,24.4,29.65,WNW,291,0.0,0.0,69,0.00,,,0.01,79.00,VWS V14.01,2013-03-01 19:29:00,
2013-03-01 14:30:00,33.5,24.4,29.65,WNW,285,0.0,0.0,69,0.00,,,0.01,76.00,VWS V14.01,2013-03-01 19:30:00,
2013-03-01 14:31:00,33.5,24.4,29.65,West,274,0.0,0.0,69,0.00,,,0.01,76.00,VWS V14.01,2013-03-01 19:31:00,
2013-03-01 14:32:00,33.5,24.4,29.65,West,275,0.0,0.0,69,0.00,,,0.01,84.00,VWS V14.01,2013-03-01 19:32:00,
2013-03-01 14:33:00,33.5,24.4,29.65,WNW,289,0.0,0.0,69,0.00,,,0.01,70.00,VWS V14.01,2013-03-01 19:33:00,
2013-03-01 14:34:00,33.5,24.4,29.65,West,268,0.0,0.0,69,0.00,,,0.01,69.00,VWS V14.01,2013-03-01 19:34:00,
2013-03-01 14:35:00,33.5,24.4,29.65,West,268,0.0,0.0,69,0.00,,,0.01,67.00,VWS V14.01,2013-03-01 19:35:00,
2013-03-01 14:36:00,33.5,24.4,29.65,NW,311,0.0,0.0,69,0.00,,,0.01,65.00,VWS V14.01,2013-03-01 19:36:00,
2013-03-01 14:37:00,33.5,24.4,29.65,West,274,0.0,0.0,69,0.00,,,0.01,67.00,VWS V14.01,2013-03-01 19:37:00,
2013-03-01 14:38:00,33.5,24.4,29.65,WNW,289,0.0,0.0,69,0.00,,,0.01,70.00,VWS V14.01,2013-03-01 19:38:00,
2013-03-01 14:39:00,33.4,24.3,29.65,WNW,294,0.0,0.0,69,0.00,,,0.01,67.00,VWS V14.01,2013-03-01 19:39:00,
2013-03-01 14:40:00,33.4,24.3,29.65,West,260,0.0,0.0,69,0.00,,,0.01,74.00,VWS V14.01,2013-03-01 19:40:00,
2013-03-01 14:41:00,33.4,24.3,29.65,WNW,294,0.0,0.0,69,0.00,,,0.01,81.00,VWS V14.01,2013-03-01 19:41:00,
2013-03-01 14:42:00,33.2,24.1,29.65,WNW,287,0.0,0.0,69,0.00,,,0.01,88.00,VWS V14.01,2013-03-01 19:42:00,
2013-03-01 14:43:00,33.2,24.1,29.65,West,260,0.0,0.0,69,0.00,,,0.01,93.00,VWS V14.01,2013-03-01 19:43:00,
2013-03-01 14:44:00,33.4,24.3,29.65,WNW,294,0.0,0.0,69,0.00,,,0.01,67.00,VWS V14.01,2013-03-01 19:44:00,
2013-03-01 14:45:00,33.2,23.8,29.65,West,261,0.0,0.0,68,0.00,,,0.01,97.00,VWS V14.01,2013-03-01 19:45:00,
2013-03-01 14:46:00,33.2,23.8,29.65,WNW,285,0.0,0.0,68,0.00,,,0.01,100.00,VWS V14.01,2013-03-01 19:46:00,
2013-03-01 14:47:00,33.2,23.8,29.65,West,274,0.0,0.0,68,0.00,,,0.01,104.00,VWS V14.01,2013-03-01 19:47:00,
2013-03-01 14:48:00,33.2,23.8,29.65,West,261,0.0,0.0,68,0.00,,,0.01,106.00,VWS V14.01,2013-03-01 19:48:00,
2013-03-01 14:49:00,33.2,23.8,29.65,West,260,0.0,0.0,68,0.00,,,0.01,95.00,VWS V14.01,2013-03-01 19:49:00,
2013-03-01 14:50:00,33.2,23.8,29.65,West,270,0.0,0.0,68,0.00,,,0.01,93.00,VWS V14.01,2013-03-01 19:50:00,
2013-03-01 14:51:00,33.2,23.8,29.65,WNW,288,0.0,0.0,68,0.00,,,0.01,90.00,VWS V14.01,2013-03-01 19:51:00,
2013-03-01 14:52:00,33.2,23.5,29.65,West,270,0.0,0.0,67,0.00,,,0.01,86.00,VWS V14.01,2013-03-01 19:52:00,
2013-03-01 14:53:00,33.2,23.1,29.65,West,272,0.0,0.0,66,0.00,,,0.01,84.00,VWS V14.01,2013-03-01 19:53:00,
2013-03-01 14:54:00,33.2,23.5,29.65,WSW,240,0.0,0.0,67,0.00,,,0.01,104.00,VWS V14.01,2013-03-01 19:54:00,
2013-03-01 14:55:00,33.2,23.1,29.65,West,271,0.0,0.0,66,0.00,,,0.01,76.00,VWS V14.01,2013-03-01 19:55:00,
2013-03-01 14:56:00,33.2,23.1,29.65,WSW,257,0.0,0.0,66,0.00,,,0.01,74.00,VWS V14.01,2013-03-01 19:56:00,
2013-03-01 14:57:00,33.1,23.0,29.65,WNW,291,0.0,0.0,66,0.00,,,0.01,72.00,VWS V14.01,2013-03-01 19:57:00,
2013-03-01 14:58:00,33.1,23.0,29.65,WSW,258,0.0,0.0,66,0.00,,,0.01,72.00,VWS V14.01,2013-03-01 19:58:00,
2013-03-01 14:59:00,33.2,23.1,29.65,West,261,0.0,0.0,66,0.00,,,0.01,79.00,VWS V14.01,2013-03-01 19:59:00,
2013-03-01 15:00:00,33.1,23.0,29.66,West,270,0.0,0.0,66,0.00,,,0.01,79.00,VWS V14.01,2013-03-01 20:00:00,
2013-03-01 15:01:00,33.1,23.0,29.66,WNW,291,0.0,0.0,66,0.00,,,0.01,86.00,VWS V14.01,2013-03-01 20:01:00,
2013-03-01 15:02:00,33.1,23.0,29.66,West,271,0.0,0.0,66,0.00,,,0.01,95.00,VWS V14.01,2013-03-01 20:02:00,
2013-03-01 15:03:00,33.1,23.0,29.66,WNW,285,0.0,0.0,66,0.00,,,0.01,97.00,VWS V14.01,2013-03-01 20:03:00,
2013-03-01 15:04:00,33.1,23.0,29.66,West,264,0.0,0.0,66,0.00,,,0.01,99.00,VWS V14.01,2013-03-01 20:04:00,
2013-03-01 15:05:00,33.1,23.0,29.66,West,270,0.0,0.0,66,0.00,,,0.01,79.00,VWS V14.01,2013-03-01 20:05:00,
2013-03-01 15:06:00,33.1,23.4,29.66,WNW,289,0.0,0.0,67,0.00,,,0.01,113.00,VWS V14.01,2013-03-01 20:06:00,
2013-03-01 15:07:00,33.1,23.4,29.66,West,277,0.0,0.0,67,0.00,,,0.01,120.00,VWS V14.01,2013-03-01 20:07:00,
2013-03-01 15:08:00,33.1,23.4,29.66,West,264,0.0,0.0,67,0.00,,,0.01,125.00,VWS V14.01,2013-03-01 20:08:00,
2013-03-01 15:09:00,33.1,23.7,29.66,WSW,251,0.0,0.0,68,0.00,,,0.01,125.00,VWS V14.01,2013-03-01 20:09:00,
2013-03-01 15:10:00,33.1,23.4,29.66,WSW,251,0.0,0.0,67,0.00,,,0.01,106.00,VWS V14.01,2013-03-01 20:10:00,
2013-03-01 15:11:00,33.2,23.8,29.66,WSW,258,0.0,0.0,68,0.00,,,0.01,114.00,VWS V14.01,2013-03-01 20:11:00,
2013-03-01 15:12:00,33.2,23.8,29.66,West,277,0.0,0.0,68,0.00,,,0.01,111.00,VWS V14.01,2013-03-01 20:12:00,
2013-03-01 15:13:00,33.2,23.5,29.66,WSW,239,0.0,0.0,67,0.00,,,0.01,109.00,VWS V14.01,2013-03-01 20:13:00,
2013-03-01 15:14:00,33.2,22.7,29.66,WNW,288,0.0,0.0,65,0.00,,,0.01,109.00,VWS V14.01,2013-03-01 20:14:00,
2013-03-01 15:15:00,33.2,22.7,29.65,WNW,289,0.0,0.0,65,0.00,,,0.01,106.00,VWS V14.01,2013-03-01 20:15:00,
2013-03-01 15:16:00,33.2,23.8,29.66,WSW,258,0.0,0.0,68,0.00,,,0.01,114.00,VWS V14.01,2013-03-01 20:16:00,
2013-03-01 15:17:00,33.2,22.7,29.65,WSW,257,0.0,0.0,65,0.00,,,0.01,116.00,VWS V14.01,2013-03-01 20:17:00,
2013-03-01 15:18:00,33.2,22.7,29.65,West,264,0.0,0.0,65,0.00,,,0.01,127.00,VWS V14.01,2013-03-01 20:18:00,
2013-03-01 15:19:00,33.2,22.7,29.65,WSW,256,0.0,0.0,65,0.00,,,0.01,135.00,VWS V14.01,2013-03-01 20:19:00,
2013-03-01 15:20:00,33.2,22.7,29.65,SW,215,0.0,0.0,65,0.00,,,0.01,143.00,VWS V14.01,2013-03-01 20:20:00,
2013-03-01 15:21:00,33.2,22.7,29.65,WNW,287,0.0,0.0,65,0.00,,,0.01,107.00,VWS V14.01,2013-03-01 20:21:00,
2013-03-01 15:22:00,33.4,22.9,29.65,West,260,0.0,0.0,65,0.00,,,0.01,150.00,VWS V14.01,2013-03-01 20:22:00,
2013-03-01 15:23:00,33.4,22.9,29.65,WSW,253,0.0,0.0,65,0.00,,,0.01,155.00,VWS V14.01,2013-03-01 20:23:00,
2013-03-01 15:24:00,33.4,23.3,29.65,West,270,0.0,0.0,66,0.00,,,0.01,162.00,VWS V14.01,2013-03-01 20:24:00,
2013-03-01 15:25:00,33.5,23.4,29.65,WSW,251,0.0,0.0,66,0.00,,,0.01,164.00,VWS V14.01,2013-03-01 20:25:00,
2013-03-01 15:26:00,33.2,22.7,29.65,WSW,240,0.0,0.0,65,0.00,,,0.01,148.00,VWS V14.01,2013-03-01 20:26:00,
2013-03-01 15:27:00,33.5,22.6,29.65,NW,309,0.0,0.0,64,0.00,,,0.01,158.00,VWS V14.01,2013-03-01 20:27:00,
2013-03-01 15:28:00,33.5,22.6,29.65,WNW,292,0.0,0.0,64,0.00,,,0.01,155.00,VWS V14.01,2013-03-01 20:28:00,
2013-03-01 15:29:00,33.5,22.6,29.65,WSW,253,0.0,0.0,64,0.00,,,0.01,151.00,VWS V14.01,2013-03-01 20:29:00,
2013-03-01 15:30:00,33.5,22.6,29.65,West,277,0.0,0.0,64,0.00,,,0.01,137.00,VWS V14.01,2013-03-01 20:30:00,
2013-03-01 15:31:00,33.7,23.2,29.65,WNW,285,0.0,0.0,65,0.00,,,0.01,127.00,VWS V14.01,2013-03-01 20:31:00,
2013-03-01 15:32:00,33.5,22.6,29.65,NW,309,0.0,0.0,64,0.00,,,0.01,158.00,VWS V14.01,2013-03-01 20:32:00,
2013-03-01 15:33:00,33.7,23.2,29.65,West,267,0.0,0.0,65,0.00,,,0.01,127.00,VWS V14.01,2013-03-01 20:33:00,
2013-03-01 15:34:00,33.8,23.3,29.65,WNW,296,0.0,0.0,65,0.00,,,0.01,118.00,VWS V14.01,2013-03-01 20:34:00,
2013-03-01 15:35:00,33.8,22.9,29.65,WSW,244,0.0,0.0,64,0.00,,,0.01,99.00,VWS V14.01,2013-03-01 20:35:00,
2013-03-01 15:36:00,33.8,22.9,29.65,SW,223,0.0,0.0,64,0.00,,,0.01,97.00,VWS V14.01,2013-03-01 20:36:00,
2013-03-01 15:37:00,33.7,23.2,29.65,West,265,0.0,0.0,65,0.00,,,0.01,127.00,VWS V14.01,2013-03-01 20:37:00,
2013-03-01 15:38:00,33.8,22.6,29.65,NW,309,0.0,0.0,63,0.00,,,0.01,100.00,VWS V14.01,2013-03-01 20:38:00,
2013-03-01 15:39:00,33.8,22.6,29.65,WNW,296,0.0,0.0,63,0.00,,,0.01,102.00,VWS V14.01,2013-03-01 20:39:00,
2013-03-01 15:40:00,33.8,22.6,29.65,WNW,287,0.0,0.0,63,0.00,,,0.01,93.00,VWS V14.01,2013-03-01 20:40:00,
2013-03-01 15:41:00,33.8,22.6,29.65,West,281,0.0,0.0,63,0.00,,,0.01,90.00,VWS V14.01,2013-03-01 20:41:00,
2013-03-01 15:42:00,33.8,22.5,29.65,West,264,0.0,0.0,63,0.00,,,0.01,99.00,VWS V14.01,2013-03-01 20:42:00,
2013-03-01 15:43:00,33.7,22.5,29.65,West,274,0.0,0.0,63,0.00,,,0.01,95.00,VWS V14.01,2013-03-01 20:43:00,
2013-03-01 15:44:00,33.7,22.8,29.65,West,277,0.0,0.0,64,0.00,,,0.01,104.00,VWS V14.01,2013-03-01 20:44:00,
2013-03-01 15:45:00,33.5,22.6,29.65,West,265,0.0,0.0,64,0.00,,,0.01,113.00,VWS V14.01,2013-03-01 20:45:00,
2013-03-01 15:46:00,33.5,22.6,29.65,WSW,248,0.0,0.0,64,0.00,,,0.01,111.00,VWS V14.01,2013-03-01 20:46:00,
2013-03-01 15:47:00,33.7,22.5,29.65,NW,304,0.0,0.0,63,0.00,,,0.01,90.00,VWS V14.01,2013-03-01 20:47:00,
2013-03-01 15:48:00,33.5,22.6,29.65,NW,312,0.0,0.0,64,0.00,,,0.01,109.00,VWS V14.01,2013-03-01 20:48:00,
2013-03-01 15:49:00,33.5,22.3,29.65,West,267,0.0,0.0,63,0.00,,,0.01,104.00,VWS V14.01,2013-03-01 20:49:00,
2013-03-01 15:50:00,33.5,22.3,29.65,NW,308,0.0,0.0,63,0.00,,,0.01,99.00,VWS V14.01,2013-03-01 20:50:00,
2013-03-01 15:51:00,33.5,22.3,29.65,West,261,0.0,0.0,63,0.00,,,0.01,99.00,VWS V14.01,2013-03-01 20:51:00,
2013-03-01 15:52:00,33.5,22.6,29.65,NW,312,0.0,0.0,64,0.00,,,0.01,111.00,VWS V14.01,2013-03-01 20:52:00,
2013-03-01 15:53:00,33.5,22.3,29.65,West,263,0.0,0.0,63,0.00,,,0.01,100.00,VWS V14.01,2013-03-01 20:53:00,
2013-03-01 15:54:00,33.5,22.3,29.65,WNW,287,0.0,0.0,63,0.00,,,0.01,93.00,VWS V14.01,2013-03-01 20:54:00,
2013-03-01 15:55:00,33.5,22.3,29.65,WNW,298,0.0,0.0,63,0.00,,,0.01,84.00,VWS V14.01,2013-03-01 20:55:00,
2013-03-01 15:56:00,33.7,22.5,29.65,WNW,291,0.0,0.0,63,0.00,,,0.01,83.00,VWS V14.01,2013-03-01 20:56:00,
2013-03-01 15:57:00,33.5,22.3,29.65,WNW,288,0.0,0.0,63,0.00,,,0.01,99.00,VWS V14.01,2013-03-01 20:57:00,
2013-03-01 15:58:00,33.5,21.9,29.65,WNW,294,0.0,0.0,62,0.00,,,0.01,79.00,VWS V14.01,2013-03-01 20:58:00,
2013-03-01 15:59:00,33.5,21.9,29.65,West,270,0.0,0.0,62,0.00,,,0.01,76.00,VWS V14.01,2013-03-01 20:59:00,
2013-03-01 16:00:00,33.5,21.9,29.65,SW,229,0.0,0.0,62,0.00,,,0.01,76.00,VWS V14.01,2013-03-01 21:00:00,
2013-03-01 16:01:00,33.5,21.9,29.65,West,277,0.0,0.0,62,0.00,,,0.01,81.00,VWS V14.01,2013-03-01 21:01:00,
2013-03-01 16:02:00,33.5,21.9,29.65,NW,304,0.0,0.0,62,0.00,,,0.01,83.00,VWS V14.01,2013-03-01 21:02:00,
2013-03-01 16:03:00,33.5,21.9,29.65,WNW,294,0.0,0.0,62,0.00,,,0.01,79.00,VWS V14.01,2013-03-01 21:03:00,
2013-03-01 16:04:00,33.5,22.3,29.65,West,271,0.0,0.0,63,0.00,,,0.01,77.00,VWS V14.01,2013-03-01 21:04:00,
2013-03-01 16:05:00,33.5,21.9,29.65,West,270,0.0,0.0,62,0.00,,,0.01,74.00,VWS V14.01,2013-03-01 21:05:00,
2013-03-01 16:06:00,33.5,21.9,29.65,NW,313,0.0,0.0,62,0.00,,,0.01,74.00,VWS V14.01,2013-03-01 21:06:00,
2013-03-01 16:07:00,33.5,21.9,29.65,West,267,0.0,0.0,62,0.00,,,0.01,74.00,VWS V14.01,2013-03-01 21:07:00,
2013-03-01 16:08:00,33.5,21.9,29.65,NW,306,0.0,0.0,62,0.00,,,0.01,81.00,VWS V14.01,2013-03-01 21:08:00,
2013-03-01 16:09:00,33.5,21.9,29.65,WNW,295,0.0,0.0,62,0.00,,,0.01,72.00,VWS V14.01,2013-03-01 21:09:00,
2013-03-01 16:10:00,33.5,21.9,29.65,West,265,0.0,0.0,62,0.00,,,0.01,76.00,VWS V14.01,2013-03-01 21:10:00,
2013-03-01 16:11:00,33.5,21.9,29.65,West,265,0.0,0.0,62,0.00,,,0.01,77.00,VWS V14.01,2013-03-01 21:11:00,
2013-03-01 16:12:00,33.4,21.8,29.65,West,270,0.0,0.0,62,0.00,,,0.01,77.00,VWS V14.01,2013-03-01 21:12:00,
2013-03-01 16:13:00,33.5,21.9,29.65,West,265,0.0,0.0,62,0.00,,,0.01,72.00,VWS V14.01,2013-03-01 21:13:00,
2013-03-01 16:14:00,33.4,21.8,29.65,West,277,0.0,0.0,62,0.00,,,0.01,70.00,VWS V14.01,2013-03-01 21:14:00,
2013-03-01 16:15:00,33.4,21.8,29.66,WSW,244,0.0,0.0,62,0.00,,,0.01,70.00,VWS V14.01,2013-03-01 21:15:00,
2013-03-01 16:16:00,33.4,21.8,29.66,WNW,291,0.0,0.0,62,0.00,,,0.01,65.00,VWS V14.01,2013-03-01 21:16:00,
2013-03-01 16:17:00,33.4,21.8,29.66,WNW,285,0.0,0.0,62,0.00,,,0.01,69.00,VWS V14.01,2013-03-01 21:17:00,
2013-03-01 16:18:00,33.4,21.8,29.65,West,274,0.0,0.0,62,0.00,,,0.01,74.00,VWS V14.01,2013-03-01 21:18:00,
2013-03-01 16:19:00,33.4,21.8,29.66,West,275,0.0,0.0,62,0.00,,,0.01,69.00,VWS V14.01,2013-03-01 21:19:00,
2013-03-01 16:20:00,33.4,22.2,29.66,West,281,0.0,0.0,63,0.00,,,0.01,62.00,VWS V14.01,2013-03-01 21:20:00,
2013-03-01 16:21:00,33.4,22.2,29.66,West,268,0.0,0.0,63,0.00,,,0.01,49.00,VWS V14.01,2013-03-01 21:21:00,
2013-03-01 16:22:00,33.4,22.2,29.66,WSW,253,0.0,0.0,63,0.00,,,0.01,48.00,VWS V14.01,2013-03-01 21:22:00,
2013-03-01 16:23:00,33.4,21.8,29.66,West,265,0.0,0.0,62,0.00,,,0.01,70.00,VWS V14.01,2013-03-01 21:23:00,
2013-03-01 16:24:00,33.5,21.9,29.66,WNW,291,0.0,0.0,62,0.00,,,0.01,49.00,VWS V14.01,2013-03-01 21:24:00,
2013-03-01 16:25:00,33.4,21.8,29.66,South,185,0.0,0.0,62,0.00,,,0.01,51.00,VWS V14.01,2013-03-01 21:25:00,
2013-03-01 16:26:00,33.5,22.3,29.66,West,263,0.0,0.0,63,0.00,,,0.01,55.00,VWS V14.01,2013-03-01 21:26:00,
2013-03-01 16:27:00,33.5,22.3,29.66,WNW,282,0.0,0.0,63,0.00,,,0.01,56.00,VWS V14.01,2013-03-01 21:27:00,
2013-03-01 16:28:00,33.5,21.9,29.66,NW,304,0.0,0.0,62,0.00,,,0.01,55.00,VWS V14.01,2013-03-01 21:28:00,
2013-03-01 16:29:00,33.5,21.9,29.66,WNW,291,0.0,0.0,62,0.00,,,0.01,49.00,VWS V14.01,2013-03-01 21:29:00,
2013-03-01 16:30:00,33.5,21.9,29.66,SSE,157,0.0,0.0,62,0.00,,,0.01,48.00,VWS V14.01,2013-03-01 21:30:00,
2013-03-01 16:31:00,33.5,21.9,29.66,West,264,0.0,0.0,62,0.00,,,0.01,42.00,VWS V14.01,2013-03-01 21:31:00,
2013-03-01 16:32:00,33.5,21.9,29.66,WSW,256,0.0,0.0,62,0.00,,,0.01,40.00,VWS V14.01,2013-03-01 21:32:00,
2013-03-01 16:33:00,33.5,21.9,29.66,WNW,284,0.0,0.0,62,0.00,,,0.01,39.00,VWS V14.01,2013-03-01 21:33:00,
2013-03-01 16:34:00,33.5,21.9,29.66,WNW,294,0.0,0.0,62,0.00,,,0.01,39.00,VWS V14.01,2013-03-01 21:34:00,
2013-03-01 16:35:00,33.5,21.9,29.66,SSE,157,0.0,0.0,62,0.00,,,0.01,48.00,VWS V14.01,2013-03-01 21:35:00,
2013-03-01 16:36:00,33.4,21.8,29.66,WNW,291,0.0,0.0,62,0.00,,,0.01,35.00,VWS V14.01,2013-03-01 21:36:00,
2013-03-01 16:37:00,33.4,21.8,29.66,SSE,165,0.0,0.0,62,0.00,,,0.01,32.00,VWS V14.01,2013-03-01 21:37:00,
2013-03-01 16:38:00,33.4,22.2,29.66,West,274,0.0,0.0,63,0.00,,,0.01,32.00,VWS V14.01,2013-03-01 21:38:00,
2013-03-01 16:39:00,33.4,22.2,29.66,WNW,288,0.0,0.0,63,0.00,,,0.01,32.00,VWS V14.01,2013-03-01 21:39:00,
2013-03-01 16:40:00,33.2,22.0,29.66,WNW,284,0.0,0.0,63,0.00,,,0.01,32.00,VWS V14.01,2013-03-01 21:40:00,
2013-03-01 16:41:00,33.4,21.8,29.66,WNW,291,0.0,0.0,62,0.00,,,0.01,35.00,VWS V14.01,2013-03-01 21:41:00,
2013-03-01 16:42:00,33.2,22.0,29.66,NW,316,0.0,0.0,63,0.00,,,0.01,32.00,VWS V14.01,2013-03-01 21:42:00,
2013-03-01 16:43:00,33.2,22.0,29.66,NW,305,0.0,0.0,63,0.00,,,0.01,32.00,VWS V14.01,2013-03-01 21:43:00,
2013-03-01 16:44:00,33.1,21.9,29.66,WNW,282,0.0,0.0,63,0.00,,,0.01,35.00,VWS V14.01,2013-03-01 21:44:00,
2013-03-01 16:45:00,33.1,21.9,29.66,West,272,0.0,0.0,63,0.00,,,0.01,35.00,VWS V14.01,2013-03-01 21:45:00,
2013-03-01 16:46:00,33.1,21.9,29.66,WNW,291,0.0,0.0,63,0.00,,,0.01,35.00,VWS V14.01,2013-03-01 21:46:00,
2013-03-01 16:47:00,33.2,22.0,29.66,NW,316,0.0,0.0,63,0.00,,,0.01,32.00,VWS V14.01,2013-03-01 21:47:00,
2013-03-01 16:48:00,33.1,22.3,29.66,WSW,253,0.0,0.0,64,0.00,,,0.01,28.00,VWS V14.01,2013-03-01 21:48:00,
2013-03-01 16:49:00,33.1,22.3,29.66,NW,313,0.0,0.0,64,0.00,,,0.01,28.00,VWS V14.01,2013-03-01 21:49:00,
2013-03-01 16:50:00,32.9,21.7,29.66,WSW,257,0.0,0.0,63,0.00,,,0.01,28.00,VWS V14.01,2013-03-01 21:50:00,
2013-03-01 16:51:00,32.9,21.7,29.66,WSW,256,0.0,0.0,63,0.00,,,0.01,28.00,VWS V14.01,2013-03-01 21:51:00,
2013-03-01 16:52:00,32.9,21.7,29.66,West,265,0.0,0.0,63,0.00,,,0.01,33.00,VWS V14.01,2013-03-01 21:52:00,
2013-03-01 16:53:00,33.1,22.3,29.66,WSW,253,0.0,0.0,64,0.00,,,0.01,28.00,VWS V14.01,2013-03-01 21:53:00,
2013-03-01 16:54:00,32.9,21.7,29.66,WNW,282,0.0,0.0,63,0.00,,,0.01,33.00,VWS V14.01,2013-03-01 21:54:00,
2013-03-01 16:55:00,32.9,21.7,29.66,West,261,0.0,0.0,63,0.00,,,0.01,33.00,VWS V14.01,2013-03-01 21:55:00,
2013-03-01 16:56:00,32.9,22.1,29.66,West,264,0.0,0.0,64,0.00,,,0.01,53.00,VWS V14.01,2013-03-01 21:56:00,
2013-03-01 16:57:00,32.9,22.1,29.66,WNW,284,0.0,0.0,64,0.00,,,0.01,53.00,VWS V14.01,2013-03-01 21:57:00,
2013-03-01 16:58:00,32.9,21.7,29.66,West,277,0.0,0.0,63,0.00,,,0.01,33.00,VWS V14.01,2013-03-01 21:58:00,
2013-03-01 16:59:00,32.9,22.1,29.66,NW,311,0.0,0.0,64,0.00,,,0.01,53.00,VWS V14.01,2013-03-01 21:59:00,
2013-03-01 17:00:00,32.9,22.1,29.66,West,260,0.0,0.0,64,0.00,,,0.01,25.00,VWS V14.01,2013-03-01 22:00:00,
2013-03-01 17:01:00,32.9,21.7,29.66,WNW,282,0.0,0.0,63,0.00,,,0.01,25.00,VWS V14.01,2013-03-01 22:01:00,
2013-03-01 17:02:00,32.9,21.7,29.66,SW,230,0.0,0.0,63,0.00,,,0.01,25.00,VWS V14.01,2013-03-01 22:02:00,
2013-03-01 17:03:00,32.9,21.7,29.66,NW,312,0.0,0.0,63,0.00,,,0.01,25.00,VWS V14.01,2013-03-01 22:03:00,
2013-03-01 17:04:00,32.9,22.1,29.66,NW,311,0.0,0.0,64,0.00,,,0.01,53.00,VWS V14.01,2013-03-01 22:04:00,
2013-03-01 17:05:00,32.9,21.7,29.66,West,274,0.0,0.0,63,0.00,,,0.01,21.00,VWS V14.01,2013-03-01 22:05:00,
2013-03-01 17:06:00,32.9,21.7,29.66,West,260,0.0,0.0,63,0.00,,,0.01,21.00,VWS V14.01,2013-03-01 22:06:00,
2013-03-01 17:07:00,32.9,21.7,29.66,West,277,0.0,0.0,63,0.00,,,0.01,21.00,VWS V14.01,2013-03-01 22:07:00,
2013-03-01 17:08:00,32.9,21.7,29.66,West,270,0.0,0.0,63,0.00,,,0.01,21.00,VWS V14.01,2013-03-01 22:08:00,
2013-03-01 17:09:00,32.9,21.7,29.66,WNW,282,0.0,0.0,63,0.00,,,0.01,19.00,VWS V14.01,2013-03-01 22:09:00,
2013-03-01 17:10:00,32.9,21.7,29.66,West,274,0.0,0.0,63,0.00,,,0.01,21.00,VWS V14.01,2013-03-01 22:10:00,
2013-03-01 17:11:00,32.8,21.6,29.66,WSW,246,0.0,0.0,63,0.00,,,0.01,19.00,VWS V14.01,2013-03-01 22:11:00,
2013-03-01 17:12:00,32.8,21.6,29.66,West,281,0.0,0.0,63,0.00,,,0.01,19.00,VWS V14.01,2013-03-01 22:12:00,
2013-03-01 17:13:00,32.8,21.6,29.66,West,268,0.0,0.0,63,0.00,,,0.01,16.00,VWS V14.01,2013-03-01 22:13:00,
2013-03-01 17:14:00,32.8,22.0,29.66,WNW,295,0.0,0.0,64,0.00,,,0.01,16.00,VWS V14.01,2013-03-01 22:14:00,
2013-03-01 17:15:00,32.9,21.7,29.66,WSW,253,0.0,0.0,63,0.00,,,0.01,19.00,VWS V14.01,2013-03-01 22:15:00,
2013-03-01 17:16:00,32.8,22.0,29.67,West,275,0.0,0.0,64,0.00,,,0.01,16.00,VWS V14.01,2013-03-01 22:16:00,
2013-03-01 17:17:00,32.8,22.0,29.67,WNW,285,0.0,0.0,64,0.00,,,0.01,9.00,VWS V14.01,2013-03-01 22:17:00,
2013-03-01 17:18:00,32.8,22.0,29.67,West,275,0.0,0.0,64,0.00,,,0.01,9.00,VWS V14.01,2013-03-01 22:18:00,
2013-03-01 17:19:00,32.8,22.0,29.67,West,277,0.0,0.0,64,0.00,,,0.01,9.00,VWS V14.01,2013-03-01 22:19:00,
2013-03-01 17:20:00,32.8,22.0,29.67,West,264,0.0,0.0,64,0.00,,,0.01,9.00,VWS V14.01,2013-03-01 22:20:00,
2013-03-01 17:21:00,32.8,22.0,29.67,West,275,0.0,0.0,64,0.00,,,0.01,16.00,VWS V14.01,2013-03-01 22:21:00,
2013-03-01 17:22:00,32.8,22.0,29.67,WNW,294,0.0,0.0,64,0.00,,,0.01,7.00,VWS V14.01,2013-03-01 22:22:00,
2013-03-01 17:23:00,32.8,22.0,29.67,WSW,247,0.0,0.0,64,0.00,,,0.01,7.00,VWS V14.01,2013-03-01 22:23:00,
2013-03-01 17:24:00,32.8,22.0,29.67,West,264,0.0,0.0,64,0.00,,,0.01,7.00,VWS V14.01,2013-03-01 22:24:00,
2013-03-01 17:25:00,32.7,21.9,29.67,WNW,285,0.0,0.0,64,0.00,,,0.01,0.00,VWS V14.01,2013-03-01 22:25:00,
2013-03-01 17:26:00,32.7,21.9,29.67,West,267,0.0,0.0,64,0.00,,,0.01,0.00,VWS V14.01,2013-03-01 22:26:00,
2013-03-01 17:27:00,32.8,22.0,29.67,WNW,294,0.0,0.0,64,0.00,,,0.01,7.00,VWS V14.01,2013-03-01 22:27:00,
2013-03-01 17:28:00,32.7,22.2,29.67,WNW,291,0.0,0.0,65,0.00,,,0.01,0.00,VWS V14.01,2013-03-01 22:28:00,
2013-03-01 17:29:00,32.7,22.2,29.67,NW,309,0.0,0.0,65,0.00,,,0.01,0.00,VWS V14.01,2013-03-01 22:29:00,
2013-03-01 17:30:00,32.7,22.2,29.67,West,280,0.0,0.0,65,0.00,,,0.01,0.00,VWS V14.01,2013-03-01 22:30:00,
2013-03-01 17:31:00,32.7,22.2,29.67,WNW,282,0.0,0.0,65,0.00,,,0.01,0.00,VWS V14.01,2013-03-01 22:31:00,
2013-03-01 17:32:00,32.7,21.9,29.67,West,268,0.0,0.0,64,0.00,,,0.01,0.00,VWS V14.01,2013-03-01 22:32:00,
2013-03-01 17:33:00,32.5,22.1,29.67,West,275,0.0,0.0,65,0.00,,,0.01,0.00,VWS V14.01,2013-03-01 22:33:00,
2013-03-01 17:34:00,32.5,22.1,29.67,West,267,0.0,0.0,65,0.00,,,0.01,0.00,VWS V14.01,2013-03-01 22:34:00,
2013-03-01 17:35:00,32.5,22.1,29.67,West,274,0.0,0.0,65,0.00,,,0.01,0.00,VWS V14.01,2013-03-01 22:35:00,
2013-03-01 17:36:00,32.5,22.1,29.67,West,270,0.0,0.0,65,0.00,,,0.01,0.00,VWS V14.01,2013-03-01 22:36:00,
2013-03-01 17:37:00,32.5,22.1,29.67,WNW,299,0.0,0.0,65,0.00,,,0.01,0.00,VWS V14.01,2013-03-01 22:37:00,
2013-03-01 17:38:00,32.5,22.1,29.67,West,275,0.0,0.0,65,0.00,,,0.01,0.00,VWS V14.01,2013-03-01 22:38:00,
2013-03-01 17:39:00,32.5,22.1,29.67,West,274,0.0,0.0,65,0.00,,,0.01,5.00,VWS V14.01,2013-03-01 22:39:00,
2013-03-01 17:40:00,32.5,22.1,29.67,West,268,0.0,0.0,65,0.00,,,0.01,5.00,VWS V14.01,2013-03-01 22:40:00,
2013-03-01 17:41:00,32.5,22.1,29.67,WSW,248,0.0,0.0,65,0.00,,,0.01,5.00,VWS V14.01,2013-03-01 22:41:00,
2013-03-01 17:42:00,32.4,22.0,29.67,West,265,0.0,0.0,65,0.00,,,0.01,0.00,VWS V14.01,2013-03-01 22:42:00,
2013-03-01 17:43:00,32.4,22.0,29.67,WSW,247,0.0,0.0,65,0.00,,,0.01,0.00,VWS V14.01,2013-03-01 22:43:00,
2013-03-01 17:44:00,32.5,22.1,29.67,West,274,0.0,0.0,65,0.00,,,0.01,5.00,VWS V14.01,2013-03-01 22:44:00,
2013-03-01 17:45:00,32.4,22.3,29.67,WSW,250,0.0,0.0,66,0.00,,,0.01,0.00,VWS V14.01,2013-03-01 22:45:00,
2013-03-01 17:46:00,32.4,22.3,29.67,West,277,0.0,0.0,66,0.00,,,0.01,0.00,VWS V14.01,2013-03-01 22:46:00,
2013-03-01 17:47:00,32.4,22.3,29.67,WNW,282,0.0,0.0,66,0.00,,,0.01,0.00,VWS V14.01,2013-03-01 22:47:00,
2013-03-01 17:48:00,32.4,22.3,29.67,NW,309,0.0,0.0,66,0.00,,,0.01,0.00,VWS V14.01,2013-03-01 22:48:00,
2013-03-01 17:49:00,32.2,22.1,29.67,WSW,250,0.0,0.0,66,0.00,,,0.01,0.00,VWS V14.01,2013-03-01 22:49:00,
2013-03-01 17:50:00,32.4,22.3,29.67,WSW,250,0.0,0.0,66,0.00,,,0.01,0.00,VWS V14.01,2013-03-01 22:50:00,
2013-03-01 17:51:00,32.2,22.5,29.67,SW,219,0.0,0.0,67,0.00,,,0.01,0.00,VWS V14.01,2013-03-01 22:51:00,
2013-03-01 17:52:00,32.2,22.5,29.67,WNW,296,0.0,0.0,67,0.00,,,0.01,0.00,VWS V14.01,2013-03-01 22:52:00,
2013-03-01 17:53:00,32.2,22.5,29.67,WSW,256,0.0,0.0,67,0.00,,,0.01,0.00,VWS V14.01,2013-03-01 22:53:00,
2013-03-01 17:54:00,32.2,22.5,29.67,WNW,287,0.0,0.0,67,0.00,,,0.01,0.00,VWS V14.01,2013-03-01 22:54:00,
2013-03-01 17:55:00,32.2,22.5,29.67,WNW,285,0.0,0.0,67,0.00,,,0.01,0.00,VWS V14.01,2013-03-01 22:55:00,
2013-03-01 17:56:00,32.2,22.5,29.67,SW,219,0.0,0.0,67,0.00,,,0.01,0.00,VWS V14.01,2013-03-01 22:56:00,
2013-03-01 17:57:00,32.2,22.8,29.67,West,263,0.0,0.0,68,0.00,,,0.01,0.00,VWS V14.01,2013-03-01 22:57:00,
2013-03-01 17:58:00,32.2,22.8,29.67,WNW,285,0.0,0.0,68,0.00,,,0.01,0.00,VWS V14.01,2013-03-01 22:58:00,
2013-03-01 17:59:00,32.2,22.8,29.67,WSW,253,0.0,0.0,68,0.00,,,0.01,0.00,VWS V14.01,2013-03-01 22:59:00,
2013-03-01 18:00:00,32.2,22.8,29.68,WNW,289,0.0,0.0,68,0.00,,,0.01,0.00,VWS V14.01,2013-03-01 23:00:00,
2013-03-01 18:01:00,32.2,22.5,29.67,West,267,0.0,0.0,67,0.00,,,0.01,0.00,VWS V14.01,2013-03-01 23:01:00,
2013-03-01 18:02:00,32.1,22.8,29.68,WNW,288,0.0,0.0,68,0.00,,,0.01,0.00,VWS V14.01,2013-03-01 23:02:00,
2013-03-01 18:03:00,32.1,22.8,29.68,West,278,0.0,0.0,68,0.00,,,0.01,0.00,VWS V14.01,2013-03-01 23:03:00,
2013-03-01 18:04:00,32.1,22.8,29.68,West,261,0.0,0.0,68,0.00,,,0.01,0.00,VWS V14.01,2013-03-01 23:04:00,
2013-03-01 18:05:00,32.1,22.8,29.68,WSW,256,0.0,0.0,68,0.00,,,0.01,0.00,VWS V14.01,2013-03-01 23:05:00,
2013-03-01 18:06:00,32.1,22.8,29.68,WSW,239,0.0,0.0,68,0.00,,,0.01,0.00,VWS V14.01,2013-03-01 23:06:00,
2013-03-01 18:07:00,32.1,22.8,29.68,WNW,287,0.0,0.0,68,0.00,,,0.01,0.00,VWS V14.01,2013-03-01 23:07:00,
2013-03-01 18:08:00,32.1,22.8,29.68,WNW,289,0.0,0.0,68,0.00,,,0.01,0.00,VWS V14.01,2013-03-01 23:08:00,
2013-03-01 18:09:00,31.9,22.5,29.68,WNW,295,0.0,0.0,68,0.00,,,0.01,0.00,VWS V14.01,2013-03-01 23:09:00,
2013-03-01 18:10:00,31.9,22.5,29.68,NNW,332,0.0,0.0,68,0.00,,,0.01,0.00,VWS V14.01,2013-03-01 23:10:00,
2013-03-01 18:11:00,32.1,23.1,29.68,South,188,0.0,0.0,69,0.00,,,0.01,0.00,VWS V14.01,2013-03-01 23:11:00,
2013-03-01 18:12:00,31.9,22.5,29.68,NW,312,0.0,0.0,68,0.00,,,0.01,0.00,VWS V14.01,2013-03-01 23:12:00,
2013-03-01 18:13:00,31.9,22.5,29.68,WNW,282,0.0,0.0,68,0.00,,,0.01,0.00,VWS V14.01,2013-03-01 23:13:00,
2013-03-01 18:14:00,31.9,22.5,29.68,West,271,0.0,0.0,68,0.00,,,0.01,0.00,VWS V14.01,2013-03-01 23:14:00,
2013-03-01 18:15:00,31.9,22.5,29.68,West,260,0.0,0.0,68,0.00,,,0.01,0.00,VWS V14.01,2013-03-01 23:15:00,
2013-03-01 18:16:00,31.9,22.5,29.68,West,265,0.0,0.0,68,0.00,,,0.01,0.00,VWS V14.01,2013-03-01 23:16:00,
2013-03-01 18:17:00,31.9,22.5,29.68,WNW,295,0.0,0.0,68,0.00,,,0.01,0.00,VWS V14.01,2013-03-01 23:17:00,
2013-03-01 18:18:00,31.9,22.5,29.68,West,265,0.0,0.0,68,0.00,,,0.01,0.00,VWS V14.01,2013-03-01 23:18:00,
2013-03-01 18:19:00,31.9,22.5,29.68,West,281,0.0,0.0,68,0.00,,,0.01,0.00,VWS V14.01,2013-03-01 23:19:00,
2013-03-01 18:20:00,31.9,22.2,29.68,West,270,0.0,0.0,67,0.00,,,0.01,0.00,VWS V14.01,2013-03-01 23:20:00,
2013-03-01 18:21:00,31.9,22.5,29.68,NW,305,0.0,0.0,68,0.00,,,0.01,0.00,VWS V14.01,2013-03-01 23:21:00,
2013-03-01 18:22:00,31.9,22.2,29.68,West,270,0.0,0.0,67,0.00,,,0.01,0.00,VWS V14.01,2013-03-01 23:22:00,
2013-03-01 18:23:00,31.9,22.2,29.68,WSW,253,0.0,0.0,67,0.00,,,0.01,0.00,VWS V14.01,2013-03-01 23:23:00,
2013-03-01 18:24:00,31.9,22.2,29.68,West,261,0.0,0.0,67,0.00,,,0.01,0.00,VWS V14.01,2013-03-01 23:24:00,
2013-03-01 18:25:00,31.9,22.5,29.68,West,275,0.0,0.0,68,0.00,,,0.01,0.00,VWS V14.01,2013-03-01 23:25:00,
2013-03-01 18:26:00,31.9,22.2,29.68,West,280,0.0,0.0,67,0.00,,,0.01,0.00,VWS V14.01,2013-03-01 23:26:00,
2013-03-01 18:27:00,31.9,22.5,29.68,WSW,257,0.0,0.0,68,0.00,,,0.01,0.00,VWS V14.01,2013-03-01 23:27:00,
2013-03-01 18:28:00,31.9,22.5,29.68,West,264,0.0,0.0,68,0.00,,,0.01,0.00,VWS V14.01,2013-03-01 23:28:00,
2013-03-01 18:29:00,31.9,22.5,29.68,West,277,0.0,0.0,68,0.00,,,0.01,0.00,VWS V14.01,2013-03-01 23:29:00,
2013-03-01 18:30:00,31.9,22.5,29.69,West,265,0.0,0.0,68,0.00,,,0.01,0.00,VWS V14.01,2013-03-01 23:30:00,
2013-03-01 18:31:00,31.9,22.5,29.69,WNW,302,0.0,0.0,68,0.00,,,0.01,0.00,VWS V14.01,2013-03-01 23:31:00,
2013-03-01 18:32:00,31.9,22.5,29.68,WSW,257,0.0,0.0,68,0.00,,,0.01,0.00,VWS V14.01,2013-03-01 23:32:00,
2013-03-01 18:33:00,31.9,22.5,29.69,West,267,0.0,0.0,68,0.00,,,0.01,0.00,VWS V14.01,2013-03-01 23:33:00,
2013-03-01 18:34:00,31.9,22.5,29.69,West,280,0.0,0.0,68,0.00,,,0.01,0.00,VWS V14.01,2013-03-01 23:34:00,
2013-03-01 18:35:00,31.9,22.5,29.69,West,275,0.0,0.0,68,0.00,,,0.01,0.00,VWS V14.01,2013-03-01 23:35:00,
2013-03-01 18:36:00,31.9,22.5,29.69,West,271,0.0,0.0,68,0.00,,,0.01,0.00,VWS V14.01,2013-03-01 23:36:00,
2013-03-01 18:37:00,31.9,22.5,29.69,West,264,0.0,0.0,68,0.00,,,0.01,0.00,VWS V14.01,2013-03-01 23:37:00,
2013-03-01 18:38:00,31.9,22.5,29.69,North,0,0.0,0.0,68,0.00,,,0.01,0.00,VWS V14.01,2013-03-01 23:38:00,
2013-03-01 18:39:00,31.9,22.5,29.69,North,0,0.0,0.0,68,0.00,,,0.01,0.00,VWS V14.01,2013-03-01 23:39:00,
2013-03-01 18:40:00,31.9,22.5,29.69,North,0,0.0,0.0,68,0.00,,,0.01,0.00,VWS V14.01,2013-03-01 23:40:00,
2013-03-01 18:41:00,31.9,22.5,29.69,North,0,0.0,0.0,68,0.00,,,0.01,0.00,VWS V14.01,2013-03-01 23:41:00,
2013-03-01 18:42:00,31.9,22.5,29.69,WSW,256,0.0,0.0,68,0.00,,,0.01,0.00,VWS V14.01,2013-03-01 23:42:00,
2013-03-01 18:43:00,31.9,22.5,29.69,West,261,0.0,0.0,68,0.00,,,0.01,0.00,VWS V14.01,2013-03-01 23:43:00,
2013-03-01 18:44:00,31.9,22.5,29.69,West,264,0.0,0.0,68,0.00,,,0.01,0.00,VWS V14.01,2013-03-01 23:44:00,
2013-03-01 18:45:00,31.9,22.9,29.69,WNW,294,0.0,0.0,69,0.00,,,0.01,0.00,VWS V14.01,2013-03-01 23:45:00,
2013-03-01 18:46:00,31.9,22.9,29.69,WNW,282,0.0,0.0,69,0.00,,,0.01,0.00,VWS V14.01,2013-03-01 23:46:00,
2013-03-01 18:47:00,31.9,22.5,29.69,North,0,0.0,0.0,68,0.00,,,0.01,0.00,VWS V14.01,2013-03-01 23:47:00,
2013-03-01 18:48:00,31.9,22.9,29.69,WSW,251,0.0,0.0,69,0.00,,,0.01,0.00,VWS V14.01,2013-03-01 23:48:00,
2013-03-01 18:49:00,31.8,22.8,29.69,WSW,254,0.0,0.0,69,0.00,,,0.01,0.00,VWS V14.01,2013-03-01 23:49:00,
2013-03-01 18:50:00,31.9,22.9,29.69,West,265,0.0,0.0,69,0.00,,,0.01,0.00,VWS V14.01,2013-03-01 23:50:00,
2013-03-01 18:51:00,31.8,22.8,29.69,West,260,0.0,0.0,69,0.00,,,0.01,0.00,VWS V14.01,2013-03-01 23:51:00,
2013-03-01 18:52:00,31.8,22.8,29.69,WNW,296,0.0,0.0,69,0.00,,,0.01,0.00,VWS V14.01,2013-03-01 23:52:00,
2013-03-01 18:53:00,31.8,22.8,29.69,West,277,0.0,0.0,69,0.00,,,0.01,0.00,VWS V14.01,2013-03-01 23:53:00,
2013-03-01 18:54:00,31.8,22.8,29.69,WSW,254,0.0,0.0,69,0.00,,,0.01,0.00,VWS V14.01,2013-03-01 23:54:00,
2013-03-01 18:55:00,31.8,22.8,29.69,West,278,0.0,0.0,69,0.00,,,0.01,0.00,VWS V14.01,2013-03-01 23:55:00,
2013-03-01 18:56:00,31.8,22.8,29.69,WSW,239,0.0,0.0,69,0.00,,,0.01,0.00,VWS V14.01,2013-03-01 23:56:00,
2013-03-01 18:57:00,31.8,22.8,29.69,West,274,0.0,0.0,69,0.00,,,0.01,0.00,VWS V14.01,2013-03-01 23:57:00,
2013-03-01 18:58:00,31.8,22.8,29.69,West,272,0.0,0.0,69,0.00,,,0.01,0.00,VWS V14.01,2013-03-01 23:58:00,
2013-03-01 18:59:00,31.8,22.8,29.69,West,277,0.0,0.0,69,0.00,,,0.01,0.00,VWS V14.01,2013-03-01 23:59:00,
2013-03-01 19:00:00,31.8,22.8,29.70,West,271,0.0,0.0,69,0.00,,,0.01,0.00,VWS V14.01,2013-03-02 00:00:00,
2013-03-01 19:01:00,31.8,22.8,29.70,WNW,288,0.0,0.0,69,0.00,,,0.01,0.00,VWS V14.01,2013-03-02 00:01:00,
2013-03-01 19:02:00,31.8,22.8,29.70,WNW,287,0.0,0.0,69,0.00,,,0.01,0.00,VWS V14.01,2013-03-02 00:02:00,
2013-03-01 19:03:00,31.8,22.8,29.70,West,265,0.0,0.0,69,0.00,,,0.01,0.00,VWS V14.01,2013-03-02 00:03:00,
2013-03-01 19:04:00,31.8,22.8,29.70,WNW,295,0.0,0.0,69,0.00,,,0.01,0.00,VWS V14.01,2013-03-02 00:04:00,
2013-03-01 19:05:00,31.8,22.8,29.70,West,271,0.0,0.0,69,0.00,,,0.01,0.00,VWS V14.01,2013-03-02 00:05:00,
2013-03-01 19:06:00,31.8,22.8,29.70,West,267,0.0,0.0,69,0.00,,,0.01,0.00,VWS V14.01,2013-03-02 00:06:00,
2013-03-01 19:07:00,31.8,22.8,29.70,WSW,254,0.0,0.0,69,0.00,,,0.01,0.00,VWS V14.01,2013-03-02 00:07:00,
2013-03-01 19:08:00,31.8,22.8,29.70,West,281,0.0,0.0,69,0.00,,,0.01,0.00,VWS V14.01,2013-03-02 00:08:00,
2013-03-01 19:09:00,31.8,22.8,29.70,West,267,0.0,0.0,69,0.00,,,0.01,0.00,VWS V14.01,2013-03-02 00:09:00,
2013-03-01 19:10:00,31.8,22.8,29.70,WNW,285,0.0,0.0,69,0.00,,,0.01,0.00,VWS V14.01,2013-03-02 00:10:00,
2013-03-01 19:11:00,31.8,22.8,29.70,WSW,258,0.0,0.0,69,0.00,,,0.01,0.00,VWS V14.01,2013-03-02 00:11:00,
2013-03-01 19:12:00,31.8,23.1,29.70,WNW,287,0.0,0.0,70,0.00,,,0.01,0.00,VWS V14.01,2013-03-02 00:12:00,
2013-03-01 19:13:00,31.8,23.1,29.70,West,275,0.0,0.0,70,0.00,,,0.01,0.00,VWS V14.01,2013-03-02 00:13:00,
2013-03-01 19:14:00,31.8,23.1,29.70,West,261,0.0,0.0,70,0.00,,,0.01,0.00,VWS V14.01,2013-03-02 00:14:00,
2013-03-01 19:15:00,31.8,22.8,29.70,West,280,0.0,0.0,69,0.00,,,0.01,0.00,VWS V14.01,2013-03-02 00:15:00,
2013-03-01 19:16:00,31.8,23.1,29.70,WSW,244,0.0,0.0,70,0.00,,,0.01,0.00,VWS V14.01,2013-03-02 00:16:00,
2013-03-01 19:17:00,31.8,23.1,29.70,West,270,0.0,0.0,70,0.00,,,0.01,0.00,VWS V14.01,2013-03-02 00:17:00,
2013-03-01 19:18:00,31.8,23.1,29.70,West,281,0.0,0.0,70,0.00,,,0.01,0.00,VWS V14.01,2013-03-02 00:18:00,
2013-03-01 19:19:00,31.6,23.0,29.70,West,263,0.0,0.0,70,0.00,,,0.01,0.00,VWS V14.01,2013-03-02 00:19:00,
2013-03-01 19:20:00,31.8,23.1,29.70,West,271,0.0,0.0,70,0.00,,,0.01,0.00,VWS V14.01,2013-03-02 00:20:00,
2013-03-01 19:21:00,31.6,23.0,29.70,South,179,0.0,0.0,70,0.00,,,0.01,0.00,VWS V14.01,2013-03-02 00:21:00,
2013-03-01 19:22:00,31.6,23.0,29.70,West,265,0.0,0.0,70,0.00,,,0.01,0.00,VWS V14.01,2013-03-02 00:22:00,
2013-03-01 19:23:00,31.6,23.0,29.70,West,265,0.0,0.0,70,0.00,,,0.01,0.00,VWS V14.01,2013-03-02 00:23:00,
2013-03-01 19:24:00,31.6,23.0,29.70,West,265,0.0,0.0,70,0.00,,,0.01,0.00,VWS V14.01,2013-03-02 00:24:00,
2013-03-01 19:25:00,31.6,23.0,29.70,West,265,0.0,0.0,70,0.00,,,0.01,0.00,VWS V14.01,2013-03-02 00:25:00,
2013-03-01 19:26:00,31.6,23.0,29.70,South,179,0.0,0.0,70,0.00,,,0.01,0.00,VWS V14.01,2013-03-02 00:26:00,
2013-03-01 19:27:00,31.6,23.0,29.70,South,182,0.0,0.0,70,0.00,,,0.01,0.00,VWS V14.01,2013-03-02 00:27:00,
2013-03-01 19:28:00,31.6,23.0,29.70,WSW,241,0.0,0.0,70,0.00,,,0.01,0.00,VWS V14.01,2013-03-02 00:28:00,
2013-03-01 19:29:00,31.6,23.0,29.70,WSW,241,0.0,0.0,70,0.00,,,0.01,0.00,VWS V14.01,2013-03-02 00:29:00,
2013-03-01 19:30:00,31.6,23.0,29.71,WSW,258,0.0,0.0,70,0.00,,,0.01,0.00,VWS V14.01,2013-03-02 00:30:00,
2013-03-01 19:31:00,31.6,23.0,29.71,South,186,0.0,0.0,70,0.00,,,0.01,0.00,VWS V14.01,2013-03-02 00:31:00,
2013-03-01 19:32:00,31.6,23.0,29.70,South,182,0.0,0.0,70,0.00,,,0.01,0.00,VWS V14.01,2013-03-02 00:32:00,
2013-03-01 19:33:00,31.6,22.6,29.71,West,264,0.0,0.0,69,0.00,,,0.01,0.00,VWS V14.01,2013-03-02 00:33:00,
2013-03-01 19:34:00,31.6,22.6,29.71,West,274,0.0,0.0,69,0.00,,,0.01,0.00,VWS V14.01,2013-03-02 00:34:00,
2013-03-01 19:35:00,31.6,22.6,29.71,SW,227,0.0,0.0,69,0.00,,,0.01,0.00,VWS V14.01,2013-03-02 00:35:00,
2013-03-01 19:36:00,31.6,22.6,29.71,WSW,251,0.0,0.0,69,0.00,,,0.01,0.00,VWS V14.01,2013-03-02 00:36:00,
2013-03-01 19:37:00,31.6,22.6,29.71,West,267,0.0,0.0,69,0.00,,,0.01,0.00,VWS V14.01,2013-03-02 00:37:00,
2013-03-01 19:38:00,31.6,22.6,29.71,West,264,0.0,0.0,69,0.00,,,0.01,0.00,VWS V14.01,2013-03-02 00:38:00,
2013-03-01 19:39:00,31.6,22.6,29.71,West,264,0.0,0.0,69,0.00,,,0.01,0.00,VWS V14.01,2013-03-02 00:39:00,
2013-03-01 19:40:00,31.6,22.6,29.71,West,263,0.0,0.0,69,0.00,,,0.01,0.00,VWS V14.01,2013-03-02 00:40:00,
2013-03-01 19:41:00,31.6,22.6,29.71,West,271,0.0,0.0,69,0.00,,,0.01,0.00,VWS V14.01,2013-03-02 00:41:00,
2013-03-01 19:42:00,31.6,22.6,29.71,WNW,294,0.0,0.0,69,0.00,,,0.01,0.00,VWS V14.01,2013-03-02 00:42:00,
2013-03-01 19:43:00,31.6,22.6,29.71,West,271,0.0,0.0,69,0.00,,,0.01,0.00,VWS V14.01,2013-03-02 00:43:00,
2013-03-01 19:44:00,31.6,22.6,29.71,WSW,248,0.0,0.0,69,0.00,,,0.01,0.00,VWS V14.01,2013-03-02 00:44:00,
2013-03-01 19:45:00,31.6,22.6,29.70,West,265,0.0,0.0,69,0.00,,,0.01,0.00,VWS V14.01,2013-03-02 00:45:00,
2013-03-01 19:46:00,31.6,22.3,29.70,WSW,256,0.0,0.0,68,0.00,,,0.01,0.00,VWS V14.01,2013-03-02 00:46:00,
2013-03-01 19:47:00,31.6,22.3,29.70,WNW,291,0.0,0.0,68,0.00,,,0.01,0.00,VWS V14.01,2013-03-02 00:47:00,
2013-03-01 19:48:00,31.6,22.6,29.71,West,271,0.0,0.0,69,0.00,,,0.01,0.00,VWS V14.01,2013-03-02 00:48:00,
2013-03-01 19:49:00,31.6,22.6,29.70,WSW,257,0.0,0.0,69,0.00,,,0.01,0.00,VWS V14.01,2013-03-02 00:49:00,
2013-03-01 19:50:00,31.6,22.6,29.70,West,260,0.0,0.0,69,0.00,,,0.01,0.00,VWS V14.01,2013-03-02 00:50:00,
2013-03-01 19:51:00,31.6,22.6,29.70,WSW,257,0.0,0.0,69,0.00,,,0.01,0.00,VWS V14.01,2013-03-02 00:51:00,
2013-03-01 19:52:00,31.6,22.6,29.70,West,280,0.0,0.0,69,0.00,,,0.01,0.00,VWS V14.01,2013-03-02 00:52:00,
2013-03-01 19:53:00,31.6,22.3,29.70,WNW,288,0.0,0.0,68,0.00,,,0.01,0.00,VWS V14.01,2013-03-02 00:53:00,
2013-03-01 19:54:00,31.6,22.6,29.70,West,267,0.0,0.0,69,0.00,,,0.01,0.00,VWS V14.01,2013-03-02 00:54:00,
2013-03-01 19:55:00,31.6,22.6,29.70,WSW,254,0.0,0.0,69,0.00,,,0.01,0.00,VWS V14.01,2013-03-02 00:55:00,
2013-03-01 19:56:00,31.6,22.6,29.70,West,270,0.0,0.0,69,0.00,,,0.01,0.00,VWS V14.01,2013-03-02 00:56:00,
2013-03-01 19:57:00,31.5,22.5,29.70,WSW,253,0.0,0.0,69,0.00,,,0.01,0.00,VWS V14.01,2013-03-02 00:57:00,
2013-03-01 19:58:00,31.5,22.5,29.70,West,267,0.0,0.0,69,0.00,,,0.01,0.00,VWS V14.01,2013-03-02 00:58:00,
2013-03-01 19:59:00,31.6,22.6,29.70,West,267,0.0,0.0,69,0.00,,,0.01,0.00,VWS V14.01,2013-03-02 00:59:00,
2013-03-01 20:00:00,31.5,22.5,29.70,West,260,0.0,0.0,69,0.00,,,0.01,0.00,VWS V14.01,2013-03-02 01:00:00,
2013-03-01 20:01:00,31.5,22.5,29.70,West,277,0.0,0.0,69,0.00,,,0.01,0.00,VWS V14.01,2013-03-02 01:01:00,
2013-03-01 20:02:00,31.5,22.5,29.70,West,272,0.0,0.0,69,0.00,,,0.01,0.00,VWS V14.01,2013-03-02 01:02:00,
2013-03-01 20:03:00,31.5,22.5,29.70,WSW,256,0.0,0.0,69,0.00,,,0.01,0.00,VWS V14.01,2013-03-02 01:03:00,
2013-03-01 20:04:00,31.5,22.5,29.70,WSW,244,0.0,0.0,69,0.00,,,0.01,0.00,VWS V14.01,2013-03-02 01:04:00,
2013-03-01 20:05:00,31.5,22.5,29.70,West,271,0.0,0.0,69,0.00,,,0.01,0.00,VWS V14.01,2013-03-02 01:05:00,
2013-03-01 20:06:00,31.5,22.2,29.70,West,280,0.0,0.0,68,0.00,,,0.01,0.00,VWS V14.01,2013-03-02 01:06:00,
2013-03-01 20:07:00,31.5,22.2,29.70,West,280,0.0,0.0,68,0.00,,,0.01,0.00,VWS V14.01,2013-03-02 01:07:00,
2013-03-01 20:08:00,31.5,22.2,29.70,West,271,0.0,0.0,68,0.00,,,0.01,0.00,VWS V14.01,2013-03-02 01:08:00,
2013-03-01 20:09:00,31.5,22.2,29.70,West,278,0.0,0.0,68,0.00,,,0.01,0.00,VWS V14.01,2013-03-02 01:09:00,
2013-03-01 20:10:00,31.5,22.5,29.70,West,271,0.0,0.0,69,0.00,,,0.01,0.00,VWS V14.01,2013-03-02 01:10:00,
2013-03-01 20:11:00,31.5,22.2,29.70,WNW,292,0.0,0.0,68,0.00,,,0.01,0.00,VWS V14.01,2013-03-02 01:11:00,
2013-03-01 20:12:00,31.5,22.2,29.70,WSW,257,0.0,0.0,68,0.00,,,0.01,0.00,VWS V14.01,2013-03-02 01:12:00,
2013-03-01 20:13:00,31.5,22.2,29.70,West,270,0.0,0.0,68,0.00,,,0.01,0.00,VWS V14.01,2013-03-02 01:13:00,
2013-03-01 20:14:00,31.5,22.2,29.70,West,271,0.0,0.0,68,0.00,,,0.01,0.00,VWS V14.01,2013-03-02 01:14:00,
2013-03-01 20:15:00,31.5,22.2,29.70,West,280,0.0,0.0,68,0.00,,,0.01,0.00,VWS V14.01,2013-03-02 01:15:00,
2013-03-01 20:16:00,31.5,22.2,29.70,WNW,291,0.0,0.0,68,0.00,,,0.01,0.00,VWS V14.01,2013-03-02 01:16:00,
2013-03-01 20:17:00,31.5,22.2,29.70,West,277,0.0,0.0,68,0.00,,,0.01,0.00,VWS V14.01,2013-03-02 01:17:00,
2013-03-01 20:18:00,31.5,22.2,29.70,West,275,0.0,0.0,68,0.00,,,0.01,0.00,VWS V14.01,2013-03-02 01:18:00,
2013-03-01 20:19:00,31.5,22.2,29.70,West,260,0.0,0.0,68,0.00,,,0.01,0.00,VWS V14.01,2013-03-02 01:19:00,
2013-03-01 20:20:00,31.5,22.2,29.70,WSW,256,0.0,0.0,68,0.00,,,0.01,0.00,VWS V14.01,2013-03-02 01:20:00,
2013-03-01 20:21:00,31.5,22.2,29.70,WNW,291,0.0,0.0,68,0.00,,,0.01,0.00,VWS V14.01,2013-03-02 01:21:00,
2013-03-01 20:22:00,31.5,22.2,29.70,West,270,0.0,0.0,68,0.00,,,0.01,0.00,VWS V14.01,2013-03-02 01:22:00,
2013-03-01 20:23:00,31.5,22.2,29.70,West,261,0.0,0.0,68,0.00,,,0.01,0.00,VWS V14.01,2013-03-02 01:23:00,
2013-03-01 20:24:00,31.5,22.2,29.70,NW,305,0.0,0.0,68,0.00,,,0.01,0.00,VWS V14.01,2013-03-02 01:24:00,
2013-03-01 20:25:00,31.5,22.2,29.70,West,274,0.0,0.0,68,0.00,,,0.01,0.00,VWS V14.01,2013-03-02 01:25:00,
2013-03-01 20:26:00,31.5,22.2,29.70,WNW,292,0.0,0.0,68,0.00,,,0.01,0.00,VWS V14.01,2013-03-02 01:26:00,
2013-03-01 20:27:00,31.5,22.2,29.70,WSW,246,0.0,0.0,68,0.00,,,0.01,0.00,VWS V14.01,2013-03-02 01:27:00,
2013-03-01 20:28:00,31.5,22.2,29.70,West,271,0.0,0.0,68,0.00,,,0.01,0.00,VWS V14.01,2013-03-02 01:28:00,
2013-03-01 20:29:00,31.5,22.2,29.70,WNW,282,0.0,0.0,68,0.00,,,0.01,0.00,VWS V14.01,2013-03-02 01:29:00,
2013-03-01 20:30:00,31.5,22.2,29.70,WSW,246,0.0,0.0,68,0.00,,,0.01,0.00,VWS V14.01,2013-03-02 01:30:00,
2013-03-01 20:31:00,31.5,22.2,29.70,WSW,257,0.0,0.0,68,0.00,,,0.01,0.00,VWS V14.01,2013-03-02 01:31:00,
2013-03-01 20:32:00,31.5,22.2,29.70,WSW,246,0.0,0.0,68,0.00,,,0.01,0.00,VWS V14.01,2013-03-02 01:32:00,
2013-03-01 20:33:00,31.5,22.2,29.70,NW,309,0.0,0.0,68,0.00,,,0.01,0.00,VWS V14.01,2013-03-02 01:33:00,
2013-03-01 20:34:00,31.3,22.3,29.70,WNW,289,0.0,0.0,69,0.00,,,0.01,0.00,VWS V14.01,2013-03-02 01:34:00,
2013-03-01 20:35:00,31.3,22.3,29.70,West,277,0.0,0.0,69,0.00,,,0.01,0.00,VWS V14.01,2013-03-02 01:35:00,
2013-03-01 20:36:00,31.3,22.3,29.70,NW,316,0.0,0.0,69,0.00,,,0.01,0.00,VWS V14.01,2013-03-02 01:36:00,
2013-03-01 20:37:00,31.5,22.2,29.70,West,265,0.0,0.0,68,0.00,,,0.01,0.00,VWS V14.01,2013-03-02 01:37:00,
2013-03-01 20:38:00,31.3,22.3,29.70,WNW,296,0.0,0.0,69,0.00,,,0.01,0.00,VWS V14.01,2013-03-02 01:38:00,
2013-03-01 20:39:00,31.3,22.3,29.70,West,277,0.0,0.0,69,0.00,,,0.01,0.00,VWS V14.01,2013-03-02 01:39:00,
2013-03-01 20:40:00,31.3,22.3,29.70,West,277,0.0,0.0,69,0.00,,,0.01,0.00,VWS V14.01,2013-03-02 01:40:00,
2013-03-01 20:41:00,31.3,22.3,29.70,WNW,291,0.0,0.0,69,0.00,,,0.01,0.00,VWS V14.01,2013-03-02 01:41:00,
2013-03-01 20:42:00,31.3,22.3,29.70,WSW,244,0.0,0.0,69,0.00,,,0.01,0.00,VWS V14.01,2013-03-02 01:42:00,
2013-03-01 20:43:00,31.3,22.3,29.70,WNW,296,0.0,0.0,69,0.00,,,0.01,0.00,VWS V14.01,2013-03-02 01:43:00,
2013-03-01 20:44:00,31.2,21.9,29.70,West,268,0.0,0.0,68,0.00,,,0.01,0.00,VWS V14.01,2013-03-02 01:44:00,
2013-03-01 20:45:00,31.2,21.9,29.69,WSW,247,0.0,0.0,68,0.00,,,0.01,0.00,VWS V14.01,2013-03-02 01:45:00,
2013-03-01 20:46:00,31.2,21.9,29.69,SSW,193,0.0,0.0,68,0.00,,,0.01,0.00,VWS V14.01,2013-03-02 01:46:00,
2013-03-01 20:47:00,31.2,21.9,29.69,WNW,301,0.0,0.0,68,0.00,,,0.01,0.00,VWS V14.01,2013-03-02 01:47:00,
2013-03-01 20:48:00,31.2,21.9,29.69,West,267,0.0,0.0,68,0.00,,,0.01,0.00,VWS V14.01,2013-03-02 01:48:00,
2013-03-01 20:49:00,31.2,21.9,29.70,West,268,0.0,0.0,68,0.00,,,0.01,0.00,VWS V14.01,2013-03-02 01:49:00,
2013-03-01 20:50:00,31.0,21.7,29.69,WNW,291,0.0,0.0,68,0.00,,,0.01,0.00,VWS V14.01,2013-03-02 01:50:00,
2013-03-01 20:51:00,31.0,21.7,29.69,West,264,0.0,0.0,68,0.00,,,0.01,0.00,VWS V14.01,2013-03-02 01:51:00,
2013-03-01 20:52:00,31.0,21.7,29.69,West,281,0.0,0.0,68,0.00,,,0.01,0.00,VWS V14.01,2013-03-02 01:52:00,
2013-03-01 20:53:00,31.0,21.7,29.69,WSW,250,0.0,0.0,68,0.00,,,0.01,0.00,VWS V14.01,2013-03-02 01:53:00,
2013-03-01 20:54:00,31.0,21.7,29.69,West,268,0.0,0.0,68,0.00,,,0.01,0.00,VWS V14.01,2013-03-02 01:54:00,
2013-03-01 20:55:00,31.0,21.7,29.69,West,267,0.0,0.0,68,0.00,,,0.01,0.00,VWS V14.01,2013-03-02 01:55:00,
2013-03-01 20:56:00,31.0,21.7,29.69,West,267,0.0,0.0,68,0.00,,,0.01,0.00,VWS V14.01,2013-03-02 01:56:00,
2013-03-01 20:57:00,30.9,21.6,29.69,West,280,0.0,0.0,68,0.00,,,0.01,0.00,VWS V14.01,2013-03-02 01:57:00,
2013-03-01 20:58:00,30.9,21.6,29.69,WNW,302,0.0,0.0,68,0.00,,,0.01,0.00,VWS V14.01,2013-03-02 01:58:00,
2013-03-01 20:59:00,31.0,21.7,29.69,West,264,0.0,0.0,68,0.00,,,0.01,0.00,VWS V14.01,2013-03-02 01:59:00,
2013-03-01 21:00:00,30.9,21.6,29.70,West,277,0.0,0.0,68,0.00,,,0.01,0.00,VWS V14.01,2013-03-02 02:00:00,
2013-03-01 21:01:00,30.9,21.6,29.70,WNW,291,0.0,0.0,68,0.00,,,0.01,0.00,VWS V14.01,2013-03-02 02:01:00,
2013-03-01 21:02:00,30.9,21.6,29.70,WSW,239,0.0,0.0,68,0.00,,,0.01,0.00,VWS V14.01,2013-03-02 02:02:00,
2013-03-01 21:03:00,30.9,21.6,29.70,West,263,0.0,0.0,68,0.00,,,0.01,0.00,VWS V14.01,2013-03-02 02:03:00,
2013-03-01 21:04:00,30.9,21.6,29.69,WSW,253,0.0,0.0,68,0.00,,,0.01,0.00,VWS V14.01,2013-03-02 02:04:00,
2013-03-01 21:05:00,30.9,21.6,29.70,WSW,257,0.0,0.0,68,0.00,,,0.01,0.00,VWS V14.01,2013-03-02 02:05:00,
2013-03-01 21:06:00,30.9,21.6,29.70,West,267,0.0,0.0,68,0.00,,,0.01,0.00,VWS V14.01,2013-03-02 02:06:00,
2013-03-01 21:07:00,30.9,21.6,29.70,WSW,256,0.0,0.0,68,0.00,,,0.01,0.00,VWS V14.01,2013-03-02 02:07:00,
2013-03-01 21:08:00,30.9,21.6,29.70,West,267,0.0,0.0,68,0.00,,,0.01,0.00,VWS V14.01,2013-03-02 02:08:00,
2013-03-01 21:09:00,30.9,21.6,29.70,West,263,0.0,0.0,68,0.00,,,0.01,0.00,VWS V14.01,2013-03-02 02:09:00,
2013-03-01 21:10:00,30.9,21.6,29.70,West,268,0.0,0.0,68,0.00,,,0.01,0.00,VWS V14.01,2013-03-02 02:10:00,
2013-03-01 21:11:00,30.9,21.6,29.70,West,268,0.0,0.0,68,0.00,,,0.01,0.00,VWS V14.01,2013-03-02 02:11:00,
2013-03-01 21:12:00,30.9,21.6,29.70,West,268,0.0,0.0,68,0.00,,,0.01,0.00,VWS V14.01,2013-03-02 02:12:00,
2013-03-01 21:13:00,30.9,21.6,29.70,West,268,0.0,0.0,68,0.00,,,0.01,0.00,VWS V14.01,2013-03-02 02:13:00,
2013-03-01 21:14:00,30.9,21.9,29.70,West,270,0.0,0.0,69,0.00,,,0.01,0.00,VWS V14.01,2013-03-02 02:14:00,
2013-03-01 21:15:00,30.9,21.6,29.70,West,268,0.0,0.0,68,0.00,,,0.01,0.00,VWS V14.01,2013-03-02 02:15:00,
2013-03-01 21:16:00,30.7,21.4,29.70,WSW,243,0.0,0.0,68,0.00,,,0.01,0.00,VWS V14.01,2013-03-02 02:16:00,
2013-03-01 21:17:00,30.7,21.4,29.70,WSW,246,0.0,0.0,68,0.00,,,0.01,0.00,VWS V14.01,2013-03-02 02:17:00,
2013-03-01 21:18:00,30.7,21.4,29.70,West,263,0.0,0.0,68,0.00,,,0.01,0.00,VWS V14.01,2013-03-02 02:18:00,
2013-03-01 21:19:00,30.7,21.4,29.70,WNW,282,0.0,0.0,68,0.00,,,0.01,0.00,VWS V14.01,2013-03-02 02:19:00,
2013-03-01 21:20:00,30.7,21.4,29.70,WSW,256,0.0,0.0,68,0.00,,,0.01,0.00,VWS V14.01,2013-03-02 02:20:00,
2013-03-01 21:21:00,30.7,21.4,29.70,WSW,243,0.0,0.0,68,0.00,,,0.01,0.00,VWS V14.01,2013-03-02 02:21:00,
2013-03-01 21:22:00,30.7,21.8,29.70,West,270,0.0,0.0,69,0.00,,,0.01,0.00,VWS V14.01,2013-03-02 02:22:00,
2013-03-01 21:23:00,30.7,21.8,29.70,West,271,0.0,0.0,69,0.00,,,0.01,0.00,VWS V14.01,2013-03-02 02:23:00,
2013-03-01 21:24:00,30.7,21.8,29.70,West,264,0.0,0.0,69,0.00,,,0.01,0.00,VWS V14.01,2013-03-02 02:24:00,
2013-03-01 21:25:00,30.7,21.8,29.70,SW,234,0.0,0.0,69,0.00,,,0.01,0.00,VWS V14.01,2013-03-02 02:25:00,
2013-03-01 21:26:00,30.7,21.4,29.70,West,270,0.0,0.0,68,0.00,,,0.01,0.00,VWS V14.01,2013-03-02 02:26:00,
2013-03-01 21:27:00,30.7,21.8,29.70,WSW,258,0.0,0.0,69,0.00,,,0.01,0.00,VWS V14.01,2013-03-02 02:27:00,
2013-03-01 21:28:00,30.7,21.8,29.70,WNW,285,0.0,0.0,69,0.00,,,0.01,0.00,VWS V14.01,2013-03-02 02:28:00,
2013-03-01 21:29:00,30.7,21.4,29.70,West,267,0.0,0.0,68,0.00,,,0.01,0.00,VWS V14.01,2013-03-02 02:29:00,
2013-03-01 21:30:00,30.7,21.4,29.70,West,261,0.0,0.0,68,0.00,,,0.01,0.00,VWS V14.01,2013-03-02 02:30:00,
2013-03-01 21:31:00,30.7,21.8,29.70,WSW,248,0.0,0.0,69,0.00,,,0.01,0.00,VWS V14.01,2013-03-02 02:31:00,
2013-03-01 21:32:00,30.7,21.8,29.70,SSE,168,0.0,0.0,69,0.00,,,0.01,0.00,VWS V14.01,2013-03-02 02:32:00,
2013-03-01 21:33:00,30.7,21.8,29.70,WSW,253,0.0,0.0,69,0.00,,,0.01,0.00,VWS V14.01,2013-03-02 02:33:00,
2013-03-01 21:34:00,30.7,21.8,29.70,West,271,0.0,0.0,69,0.00,,,0.01,0.00,VWS V14.01,2013-03-02 02:34:00,
2013-03-01 21:35:00,30.7,21.4,29.70,West,263,0.0,0.0,68,0.00,,,0.01,0.00,VWS V14.01,2013-03-02 02:35:00,
2013-03-01 21:36:00,30.7,21.4,29.70,SW,220,0.0,0.0,68,0.00,,,0.01,0.00,VWS V14.01,2013-03-02 02:36:00,
2013-03-01 21:37:00,30.7,21.8,29.70,SSE,168,0.0,0.0,69,0.00,,,0.01,0.00,VWS V14.01,2013-03-02 02:37:00,
2013-03-01 21:38:00,30.7,21.4,29.70,WSW,243,0.0,0.0,68,0.00,,,0.01,0.00,VWS V14.01,2013-03-02 02:38:00,
2013-03-01 21:39:00,30.7,21.4,29.70,West,270,0.0,0.0,68,0.00,,,0.01,0.00,VWS V14.01,2013-03-02 02:39:00,
2013-03-01 21:40:00,30.7,21.4,29.70,West,260,0.0,0.0,68,0.00,,,0.01,0.00,VWS V14.01,2013-03-02 02:40:00,
2013-03-01 21:41:00,30.7,21.4,29.70,West,271,0.0,0.0,68,0.00,,,0.01,0.00,VWS V14.01,2013-03-02 02:41:00,
2013-03-01 21:42:00,30.7,21.4,29.70,WSW,247,0.0,0.0,68,0.00,,,0.01,0.00,VWS V14.01,2013-03-02 02:42:00,
2013-03-01 21:43:00,30.9,21.6,29.70,West,274,0.0,0.0,68,0.00,,,0.01,0.00,VWS V14.01,2013-03-02 02:43:00,
2013-03-01 21:44:00,30.9,21.9,29.70,WNW,289,0.0,0.0,69,0.00,,,0.01,0.00,VWS V14.01,2013-03-02 02:44:00,
2013-03-01 21:45:00,30.9,21.9,29.70,WSW,248,0.0,0.0,69,0.00,,,0.01,0.00,VWS V14.01,2013-03-02 02:45:00,
2013-03-01 21:46:00,30.9,21.6,29.70,West,260,0.0,0.0,68,0.00,,,0.01,0.00,VWS V14.01,2013-03-02 02:46:00,
2013-03-01 21:47:00,30.9,21.9,29.70,West,275,0.0,0.0,69,0.00,,,0.01,0.00,VWS V14.01,2013-03-02 02:47:00,
2013-03-01 21:48:00,30.9,21.6,29.70,West,274,0.0,0.0,68,0.00,,,0.01,0.00,VWS V14.01,2013-03-02 02:48:00,
2013-03-01 21:49:00,30.9,21.9,29.70,West,278,0.0,0.0,69,0.00,,,0.01,0.00,VWS V14.01,2013-03-02 02:49:00,
2013-03-01 21:50:00,30.9,21.9,29.70,SW,234,0.0,0.0,69,0.00,,,0.01,0.00,VWS V14.01,2013-03-02 02:50:00,
2013-03-01 21:51:00,30.9,21.9,29.70,West,270,0.0,0.0,69,0.00,,,0.01,0.00,VWS V14.01,2013-03-02 02:51:00,
2013-03-01 21:52:00,30.9,21.9,29.70,WNW,295,0.0,0.0,69,0.00,,,0.01,0.00,VWS V14.01,2013-03-02 02:52:00,
2013-03-01 21:53:00,30.9,21.6,29.70,West,261,0.0,0.0,68,0.00,,,0.01,0.00,VWS V14.01,2013-03-02 02:53:00,
2013-03-01 21:54:00,30.9,21.9,29.70,West,278,0.0,0.0,69,0.00,,,0.01,0.00,VWS V14.01,2013-03-02 02:54:00,
2013-03-01 21:55:00,30.9,21.6,29.70,West,280,0.0,0.0,68,0.00,,,0.01,0.00,VWS V14.01,2013-03-02 02:55:00,
2013-03-01 21:56:00,30.9,21.6,29.70,WNW,295,0.0,0.0,68,0.00,,,0.01,0.00,VWS V14.01,2013-03-02 02:56:00,
2013-03-01 21:57:00,30.9,21.2,29.70,West,260,0.0,0.0,67,0.00,,,0.01,0.00,VWS V14.01,2013-03-02 02:57:00,
2013-03-01 21:58:00,30.9,21.2,29.70,West,274,0.0,0.0,67,0.00,,,0.01,0.00,VWS V14.01,2013-03-02 02:58:00,
2013-03-01 21:59:00,30.9,21.6,29.70,WSW,246,0.0,0.0,68,0.00,,,0.01,0.00,VWS V14.01,2013-03-02 02:59:00,
2013-03-01 22:00:00,30.9,21.2,29.70,WSW,251,0.0,0.0,67,0.00,,,0.01,0.00,VWS V14.01,2013-03-02 03:00:00,
2013-03-01 22:01:00,30.9,21.6,29.70,WSW,239,0.0,0.0,68,0.00,,,0.01,0.00,VWS V14.01,2013-03-02 03:01:00,
2013-03-01 22:02:00,30.9,21.6,29.70,West,280,0.0,0.0,68,0.00,,,0.01,0.00,VWS V14.01,2013-03-02 03:02:00,
2013-03-01 22:03:00,30.9,21.6,29.70,SW,229,0.0,0.0,68,0.00,,,0.01,0.00,VWS V14.01,2013-03-02 03:03:00,
2013-03-01 22:04:00,30.9,21.2,29.70,West,274,0.0,0.0,67,0.00,,,0.01,0.00,VWS V14.01,2013-03-02 03:04:00,
2013-03-01 22:05:00,30.9,21.2,29.70,West,277,0.0,0.0,67,0.00,,,0.01,0.00,VWS V14.01,2013-03-02 03:05:00,
2013-03-01 22:06:00,30.9,21.2,29.70,South,176,0.0,0.0,67,0.00,,,0.01,0.00,VWS V14.01,2013-03-02 03:06:00,
2013-03-01 22:07:00,30.9,21.2,29.70,NW,304,0.0,0.0,67,0.00,,,0.01,0.00,VWS V14.01,2013-03-02 03:07:00,
2013-03-01 22:08:00,30.9,21.2,29.70,WNW,302,0.0,0.0,67,0.00,,,0.01,0.00,VWS V14.01,2013-03-02 03:08:00,
2013-03-01 22:09:00,30.9,21.2,29.70,WNW,284,0.0,0.0,67,0.00,,,0.01,0.00,VWS V14.01,2013-03-02 03:09:00,
2013-03-01 22:10:00,30.9,21.2,29.70,West,277,0.0,0.0,67,0.00,,,0.01,0.00,VWS V14.01,2013-03-02 03:10:00,
2013-03-01 22:11:00,30.9,21.2,29.70,WSW,247,0.0,0.0,67,0.00,,,0.01,0.00,VWS V14.01,2013-03-02 03:11:00,
2013-03-01 22:12:00,30.9,21.2,29.70,WSW,243,0.0,0.0,67,0.00,,,0.01,0.00,VWS V14.01,2013-03-02 03:12:00,
2013-03-01 22:13:00,30.9,21.2,29.70,West,277,0.0,0.0,67,0.00,,,0.01,0.00,VWS V14.01,2013-03-02 03:13:00,
2013-03-01 22:14:00,30.9,21.2,29.70,WNW,295,0.0,0.0,67,0.00,,,0.01,0.00,VWS V14.01,2013-03-02 03:14:00,
2013-03-01 22:15:00,30.9,21.2,29.70,WNW,302,0.0,0.0,67,0.00,,,0.01,0.00,VWS V14.01,2013-03-02 03:15:00,
2013-03-01 22:16:00,30.9,21.2,29.69,West,268,0.0,0.0,67,0.00,,,0.01,0.00,VWS V14.01,2013-03-02 03:16:00,
2013-03-01 22:17:00,30.9,21.2,29.69,WNW,288,0.0,0.0,67,0.00,,,0.01,0.00,VWS V14.01,2013-03-02 03:17:00,
2013-03-01 22:18:00,30.9,21.2,29.69,WNW,285,0.0,0.0,67,0.00,,,0.01,0.00,VWS V14.01,2013-03-02 03:18:00,
2013-03-01 22:19:00,30.9,21.2,29.69,NW,309,0.0,0.0,67,0.00,,,0.01,0.00,VWS V14.01,2013-03-02 03:19:00,
2013-03-01 22:20:00,30.9,21.2,29.69,West,274,0.0,0.0,67,0.00,,,0.01,0.00,VWS V14.01,2013-03-02 03:20:00,
2013-03-01 22:21:00,30.9,21.2,29.69,West,268,0.0,0.0,67,0.00,,,0.01,0.00,VWS V14.01,2013-03-02 03:21:00,
2013-03-01 22:22:00,30.9,21.2,29.69,NW,304,0.0,0.0,67,0.00,,,0.01,0.00,VWS V14.01,2013-03-02 03:22:00,
2013-03-01 22:23:00,31.0,21.3,29.69,WNW,285,0.0,0.0,67,0.00,,,0.01,0.00,VWS V14.01,2013-03-02 03:23:00,
2013-03-01 22:24:00,31.0,21.3,29.69,WNW,291,0.0,0.0,67,0.00,,,0.01,0.00,VWS V14.01,2013-03-02 03:24:00,
2013-03-01 22:25:00,31.0,21.3,29.69,West,275,0.0,0.0,67,0.00,,,0.01,0.00,VWS V14.01,2013-03-02 03:25:00,
2013-03-01 22:26:00,31.0,21.3,29.69,West,270,0.0,0.0,67,0.00,,,0.01,0.00,VWS V14.01,2013-03-02 03:26:00,
2013-03-01 22:27:00,30.9,21.2,29.69,NW,304,0.0,0.0,67,0.00,,,0.01,0.00,VWS V14.01,2013-03-02 03:27:00,
2013-03-01 22:28:00,31.0,21.7,29.69,West,267,0.0,0.0,68,0.00,,,0.01,0.00,VWS V14.01,2013-03-02 03:28:00,
2013-03-01 22:29:00,31.0,21.7,29.69,West,277,0.0,0.0,68,0.00,,,0.01,0.00,VWS V14.01,2013-03-02 03:29:00,
2013-03-01 22:30:00,31.0,21.7,29.69,West,267,0.0,0.0,68,0.00,,,0.01,0.00,VWS V14.01,2013-03-02 03:30:00,
2013-03-01 22:31:00,31.0,21.7,29.69,SSW,212,0.0,0.0,68,0.00,,,0.01,0.00,VWS V14.01,2013-03-02 03:31:00,
2013-03-01 22:32:00,30.9,21.6,29.69,West,277,0.0,0.0,68,0.00,,,0.01,0.00,VWS V14.01,2013-03-02 03:32:00,
2013-03-01 22:33:00,31.0,21.7,29.69,West,267,0.0,0.0,68,0.00,,,0.01,0.00,VWS V14.01,2013-03-02 03:33:00,
2013-03-01 22:34:00,30.9,21.6,29.69,WNW,282,0.0,0.0,68,0.00,,,0.01,0.00,VWS V14.01,2013-03-02 03:34:00,
2013-03-01 22:35:00,30.9,21.6,29.69,West,267,0.0,0.0,68,0.00,,,0.01,0.00,VWS V14.01,2013-03-02 03:35:00,
2013-03-01 22:36:00,30.9,21.6,29.69,WNW,292,0.0,0.0,68,0.00,,,0.01,0.00,VWS V14.01,2013-03-02 03:36:00,
2013-03-01 22:37:00,30.9,21.6,29.69,West,267,0.0,0.0,68,0.00,,,0.01,0.00,VWS V14.01,2013-03-02 03:37:00,
2013-03-01 22:38:00,30.9,21.6,29.69,West,278,0.0,0.0,68,0.00,,,0.01,0.00,VWS V14.01,2013-03-02 03:38:00,
2013-03-01 22:39:00,30.9,21.6,29.69,WNW,296,0.0,0.0,68,0.00,,,0.01,0.00,VWS V14.01,2013-03-02 03:39:00,
2013-03-01 22:40:00,30.9,21.6,29.69,West,278,0.0,0.0,68,0.00,,,0.01,0.00,VWS V14.01,2013-03-02 03:40:00,
2013-03-01 22:41:00,30.9,21.6,29.69,West,278,0.0,0.0,68,0.00,,,0.01,0.00,VWS V14.01,2013-03-02 03:41:00,
2013-03-01 22:42:00,30.9,21.6,29.69,WNW,284,0.0,0.0,68,0.00,,,0.01,0.00,VWS V14.01,2013-03-02 03:42:00,
2013-03-01 22:43:00,30.9,21.9,29.69,West,261,0.0,0.0,69,0.00,,,0.01,0.00,VWS V14.01,2013-03-02 03:43:00,
2013-03-01 22:44:00,30.9,21.6,29.69,WNW,296,0.0,0.0,68,0.00,,,0.01,0.00,VWS V14.01,2013-03-02 03:44:00,
2013-03-01 22:45:00,30.9,21.9,29.70,West,275,0.0,0.0,69,0.00,,,0.01,0.00,VWS V14.01,2013-03-02 03:45:00,
2013-03-01 22:46:00,30.9,21.9,29.70,West,272,0.0,0.0,69,0.00,,,0.01,0.00,VWS V14.01,2013-03-02 03:46:00,
2013-03-01 22:47:00,30.9,21.9,29.70,West,263,0.0,0.0,69,0.00,,,0.01,0.00,VWS V14.01,2013-03-02 03:47:00,
2013-03-01 22:48:00,30.9,21.9,29.70,West,264,0.0,0.0,69,0.00,,,0.01,0.00,VWS V14.01,2013-03-02 03:48:00,
2013-03-01 22:49:00,30.9,21.9,29.69,West,270,0.0,0.0,69,0.00,,,0.01,0.00,VWS V14.01,2013-03-02 03:49:00,
2013-03-01 22:50:00,30.9,21.9,29.70,West,265,0.0,0.0,69,0.00,,,0.01,0.00,VWS V14.01,2013-03-02 03:50:00,
2013-03-01 22:51:00,30.9,21.9,29.70,West,272,0.0,0.0,69,0.00,,,0.01,0.00,VWS V14.01,2013-03-02 03:51:00,
2013-03-01 22:52:00,30.9,21.9,29.70,West,277,0.0,0.0,69,0.00,,,0.01,0.00,VWS V14.01,2013-03-02 03:52:00,
2013-03-01 22:53:00,30.7,21.8,29.70,WNW,282,0.0,0.0,69,0.00,,,0.01,0.00,VWS V14.01,2013-03-02 03:53:00,
2013-03-01 22:54:00,30.9,21.9,29.70,NW,304,0.0,0.0,69,0.00,,,0.01,0.00,VWS V14.01,2013-03-02 03:54:00,
2013-03-01 22:55:00,30.7,22.1,29.70,West,272,0.0,0.0,70,0.00,,,0.01,0.00,VWS V14.01,2013-03-02 03:55:00,
2013-03-01 22:56:00,30.7,22.1,29.70,West,263,0.0,0.0,70,0.00,,,0.01,0.00,VWS V14.01,2013-03-02 03:56:00,
2013-03-01 22:57:00,30.7,22.1,29.70,North,0,0.0,0.0,70,0.00,,,0.01,0.00,VWS V14.01,2013-03-02 03:57:00,
2013-03-01 23:00:00,30.7,22.1,29.70,West,272,0.0,0.0,70,0.00,,,0.01,0.00,VWS V14.01,2013-03-02 04:00:00,
2013-03-01 23:02:00,30.7,22.1,29.70,WSW,254,0.0,0.0,70,0.00,,,0.01,0.00,VWS V14.01,2013-03-02 04:02:00,
2013-03-01 23:03:00,30.7,22.1,29.70,West,272,0.0,0.0,70,0.00,,,0.01,0.00,VWS V14.01,2013-03-02 04:03:00,
2013-03-01 23:04:00,30.7,22.1,29.70,WSW,258,0.0,0.0,70,0.00,,,0.01,0.00,VWS V14.01,2013-03-02 04:04:00,
2013-03-01 23:05:00,30.7,22.4,29.70,West,275,0.0,0.0,71,0.00,,,0.01,0.00,VWS V14.01,2013-03-02 04:05:00,
2013-03-01 23:06:00,30.7,22.4,29.70,WNW,284,0.0,0.0,71,0.00,,,0.01,0.00,VWS V14.01,2013-03-02 04:06:00,
2013-03-01 23:07:00,30.7,22.1,29.70,North,0,0.0,0.0,70,0.00,,,0.01,0.00,VWS V14.01,2013-03-02 04:07:00,
2013-03-01 23:08:00,30.6,22.3,29.70,West,267,0.0,0.0,71,0.00,,,0.01,0.00,VWS V14.01,2013-03-02 04:08:00,
2013-03-01 23:18:00,30.6,22.3,29.70,SW,227,0.0,0.0,71,0.00,,,0.01,0.00,VWS V14.01,2013-03-02 04:18:00,
2013-03-01 23:23:00,30.4,22.5,29.70,West,280,0.0,0.0,72,0.00,,,0.01,0.00,VWS V14.01,2013-03-02 04:23:00,
2013-03-01 23:29:00,30.4,22.1,29.70,South,174,0.0,0.0,71,0.00,,,0.01,0.00,VWS V14.01,2013-03-02 04:29:00,
2013-03-01 23:35:00,30.4,21.8,29.69,WNW,294,0.0,0.0,70,0.00,,,0.01,0.00,VWS V14.01,2013-03-02 04:35:00,
2013-03-01 23:41:00,30.4,21.5,29.69,NW,305,0.0,0.0,69,0.00,,,0.01,0.00,VWS V14.01,2013-03-02 04:41:00,
2013-03-01 23:47:00,30.4,21.5,29.69,WSW,256,0.0,0.0,69,0.00,,,0.01,0.00,VWS V14.01,2013-03-02 04:47:00,
2013-03-01 23:52:00,30.4,21.1,29.68,West,281,0.0,0.0,68,0.00,,,0.01,0.00,VWS V14.01,2013-03-02 04:52:00,
2013-03-01 23:58:00,30.4,21.1,29.68,West,272,0.0,0.0,68,0.00,,,0.01,0.00,VWS V14.01,2013-03-02 04:58:00,